GFSCGP_250_spd_000.txt.gz
Wind_Speed
38 36 33 22 18 16 10 8 7 8 3 5 10 15 18 16 16 16 17 18 16 16 14 13 12 11 9 7 6 4 5 6 7 9 10 12 15 17 17 19 21 22 22 23
39 41 42 31 24 24 18 15 12 11 11 9 10 12 12 11 14 17 15 11 9 6 7 6 5 6 5 4 3 2 2 2 6 10 13 16 17 19 20 23 24 25 26 26
44 47 46 38 33 31 27 23 19 15 14 15 13 14 13 13 14 15 15 13 9 8 5 2 2 3 2 2 2 2 3 4 9 13 15 17 20 22 23 25 27 28 27 26
52 51 50 44 39 38 35 33 27 20 20 18 16 14 15 16 19 20 18 17 13 11 12 9 7 6 6 5 5 6 7 9 12 15 16 19 22 24 27 27 28 30 28 28
59 57 55 49 47 44 45 40 33 29 27 20 20 19 16 16 16 21 21 22 20 17 16 14 11 10 9 8 9 10 12 15 18 20 21 22 24 26 28 30 29 29 29 29
67 64 62 55 55 52 50 43 38 34 33 24 27 25 22 23 18 20 21 23 24 22 18 15 14 12 12 12 15 17 19 21 23 24 25 27 28 29 31 31 31 31 33 33
76 69 68 62 57 58 56 45 39 35 35 30 33 30 30 28 23 23 20 22 23 22 20 16 16 16 16 19 22 23 25 26 29 29 30 31 31 31 31 33 34 36 38 39
82 76 74 68 61 62 62 54 45 42 38 38 42 35 39 32 30 30 28 26 26 25 24 23 21 20 22 25 27 28 29 30 31 33 34 34 33 33 33 34 37 39 41 41
87 83 84 78 74 70 65 62 52 51 46 44 43 45 43 35 34 37 36 33 31 30 29 28 27 27 29 30 32 33 34 34 34 35 36 35 34 35 37 38 40 42 43 42
90 89 88 87 84 78 71 67 67 56 51 45 47 45 47 42 41 41 37 36 36 33 33 33 32 31 32 33 35 36 38 39 38 37 37 36 36 37 40 42 44 46 46 45
89 94 94 95 88 82 78 76 70 63 58 51 49 48 56 46 45 45 43 41 39 39 38 37 35 36 39 40 40 41 41 42 41 40 38 37 38 41 43 47 47 47 48 42
83 91 97 94 93 92 89 85 81 74 59 55 52 53 60 52 49 50 49 46 45 45 44 42 40 41 43 43 44 44 42 43 44 43 40 40 41 44 47 48 50 47 44 45
82 83 93 99 99 98 95 87 82 76 70 62 58 57 58 63 57 55 54 50 48 47 48 46 44 44 46 46 45 44 44 46 47 46 44 44 47 49 50 51 51 50 49 44
76 82 87 95 100 99 99 93 88 86 78 68 60 63 63 65 66 63 60 56 52 50 51 51 48 48 46 46 47 46 48 50 49 50 49 49 52 54 53 53 44 45 50 51
68 80 83 91 98 104 102 97 96 92 82 78 67 65 65 66 74 69 66 60 57 55 56 55 55 51 48 48 49 49 52 53 52 54 54 56 56 57 56 49 40 45 48 50
62 74 80 87 94 106 107 103 99 95 92 85 80 70 71 72 77 74 67 64 62 62 63 61 59 54 53 52 52 53 57 56 57 59 61 61 61 57 53 52 46 47 51 53
63 65 75 80 93 100 109 105 103 97 96 92 86 73 78 78 80 76 73 67 66 65 66 64 63 58 56 54 55 60 62 61 63 65 66 64 61 58 54 53 51 52 56 59
62 61 66 76 86 97 95 103 104 103 98 94 92 86 82 82 82 78 74 68 68 68 68 67 65 61 59 57 61 63 67 66 68 70 69 67 65 59 55 52 54 57 61 65
64 61 61 66 80 84 87 98 107 107 101 96 91 89 84 82 82 83 75 73 71 70 70 70 68 64 61 60 65 69 71 71 72 72 70 68 65 62 59 59 60 62 68 69
62 59 60 62 70 75 88 88 94 104 102 95 93 86 85 84 87 88 80 77 76 74 74 73 71 69 66 68 71 74 72 72 73 74 72 67 64 63 64 63 66 69 71 71
63 60 56 59 65 71 76 82 87 97 93 98 93 92 88 87 92 89 84 83 79 78 77 76 76 74 73 74 75 74 75 74 72 72 70 69 66 63 65 70 72 74 74 69
62 57 57 56 57 62 64 71 82 85 90 97 95 94 92 89 91 88 86 85 83 82 82 80 79 79 79 77 77 79 76 73 71 70 71 71 70 70 72 74 74 74 72 69
60 58 54 55 55 49 52 61 66 72 82 92 95 93 93 91 90 87 86 86 85 85 84 82 81 82 80 81 79 80 75 72 70 69 70 71 72 74 76 76 75 74 72 72
62 60 54 50 49 42 49 52 58 66 73 82 91 91 92 90 88 86 85 84 85 82 82 82 82 80 80 81 78 79 77 73 70 71 72 72 74 75 75 73 74 74 72 74
61 58 50 44 42 43 46 50 54 59 66 72 83 88 88 85 85 84 85 85 82 80 78 80 79 78 78 78 77 79 76 73 73 73 75 76 75 73 71 73 72 71 73 76
54 50 51 42 40 33 34 44 59 50 54 73 73 80 82 80 82 81 81 82 82 78 76 77 78 77 77 78 79 79 77 75 74 76 77 76 72 75 72 72 73 76 80 80

GFSCGP_250_spd_003.txt.gz
Wind_Speed
41 40 36 31 24 21 16 10 8 6 8 6 6 14 17 17 19 21 20 22 19 17 15 14 14 14 13 11 9 6 5 3 4 7 10 12 13 16 19 21 22 22 21 21
41 41 46 36 30 29 23 18 14 12 11 11 9 12 12 15 18 18 22 21 20 16 14 11 10 10 9 8 7 6 5 3 3 9 12 14 13 15 18 21 21 21 21 20
47 48 53 40 34 34 32 27 23 19 15 14 13 13 15 16 19 21 20 19 15 11 9 6 6 6 6 6 6 6 5 3 5 10 14 14 13 16 18 20 21 20 21 21
55 55 56 50 41 37 39 35 31 26 20 19 19 18 16 17 19 21 20 18 15 11 10 9 7 6 6 6 7 7 6 6 8 12 15 16 19 21 23 23 21 21 22 23
64 61 60 57 49 46 44 45 38 33 29 28 21 20 23 23 22 23 23 22 21 18 14 14 12 11 10 10 9 9 9 10 14 16 17 19 22 25 26 24 22 22 23 26
70 68 64 61 61 54 53 51 43 37 36 33 26 26 26 24 25 22 28 26 26 24 21 21 19 16 15 13 13 14 14 15 17 19 20 22 25 26 25 24 24 27 28 30
76 73 71 69 66 64 60 54 49 42 35 36 36 33 31 30 28 26 24 27 26 25 25 24 22 22 19 18 18 18 19 21 21 23 24 26 27 26 26 27 29 31 32 34
72 76 77 76 70 69 68 64 53 50 44 43 42 38 40 38 33 29 29 27 25 26 26 27 26 26 24 22 23 23 24 25 27 28 28 29 28 28 27 28 31 34 35 37
66 73 83 81 79 78 69 69 58 59 53 48 43 47 51 42 34 34 36 32 31 30 27 28 28 27 27 28 28 29 29 29 30 32 33 32 30 31 30 30 32 37 39 39
65 72 77 86 88 82 78 72 72 61 57 52 52 52 49 48 42 40 41 37 36 36 33 34 33 32 33 33 33 34 34 33 35 36 36 34 33 32 32 34 35 40 42 42
54 68 75 84 85 85 84 79 78 71 68 60 57 54 54 54 45 45 46 44 41 40 39 38 38 37 36 37 38 37 37 38 38 38 37 37 35 33 36 38 39 44 49 48
69 60 73 75 85 93 92 89 88 84 72 64 63 58 62 60 52 48 49 49 48 46 44 42 43 41 40 42 41 41 41 41 42 41 41 41 37 37 39 40 42 48 52 52
76 67 63 75 79 91 93 92 89 85 81 74 70 60 65 62 63 51 50 53 52 47 48 48 46 45 44 45 44 43 44 44 45 45 45 45 43 42 43 43 46 50 55 55
78 75 65 67 74 83 99 98 97 95 89 82 73 74 72 68 67 62 58 59 60 54 53 51 47 46 47 47 47 45 46 48 49 50 50 48 48 47 47 50 50 53 53 58
81 78 71 60 67 76 85 98 100 101 95 91 82 82 75 72 68 73 65 65 64 60 56 54 53 51 51 48 51 49 50 52 53 55 53 52 54 52 53 54 56 54 56 58
81 79 74 64 63 72 81 87 101 103 100 96 91 87 81 79 77 73 75 70 69 64 60 59 57 55 53 51 54 54 57 58 58 56 54 55 59 58 56 59 60 58 57 58
80 77 77 64 64 69 80 76 86 100 104 99 99 85 89 88 82 76 75 79 75 70 66 63 62 59 59 58 58 58 61 61 61 58 58 61 63 63 63 62 61 59 59 56
74 72 70 67 69 67 57 76 85 97 106 107 102 98 96 89 84 80 77 85 80 75 71 65 66 64 63 63 61 60 64 64 64 65 65 67 66 66 67 66 64 63 61 60
78 74 74 73 67 56 61 78 79 85 95 102 104 100 99 94 87 85 80 87 84 81 75 72 73 71 69 67 65 62 66 67 67 70 71 71 71 70 71 70 68 67 66 63
74 73 71 70 61 54 55 72 70 80 83 95 104 105 103 97 97 83 83 86 92 91 81 75 79 77 74 71 67 66 69 70 72 74 74 74 74 74 73 72 71 71 68 66
68 67 67 65 59 55 66 56 65 76 74 88 97 102 105 104 98 95 84 88 93 98 86 83 85 82 79 76 72 70 73 75 77 77 77 77 75 75 75 73 73 72 71 71
61 59 60 63 63 58 50 55 63 70 67 74 89 99 104 105 105 94 92 93 97 99 92 90 87 86 83 80 78 76 77 79 80 81 79 78 77 75 76 74 73 73 74 76
67 61 57 63 64 52 49 55 63 65 63 66 76 92 98 104 103 100 97 96 98 98 94 90 85 89 86 83 82 80 81 83 82 82 82 81 78 76 76 76 75 74 77 77
59 60 61 66 56 50 52 55 54 56 54 58 64 79 92 96 99 100 99 99 97 96 92 88 86 85 86 85 84 85 85 85 83 83 83 81 77 75 73 76 77 78 79 76
49 55 66 63 50 51 52 49 48 47 48 47 47 65 76 85 88 93 95 94 94 92 90 88 86 86 84 81 82 82 82 83 83 80 80 78 77 76 79 79 79 80 80 75
74 72 62 64 56 53 47 44 40 41 34 39 45 40 49 68 79 82 89 90 91 91 90 87 86 85 83 81 81 81 79 79 79 79 79 80 79 81 81 80 78 78 77 80

GFSCGP_250_spd_006.txt.gz
Wind_Speed
42 37 33 33 28 22 21 16 10 7 4 6 6 12 4 12 18 17 19 22 20 17 16 15 15 14 15 13 10 7 5 4 6 7 9 10 11 13 15 17 17 18 19 18
47 41 45 39 32 28 28 22 19 13 13 10 10 10 12 13 13 16 16 17 17 19 18 16 15 13 11 10 9 8 7 4 2 5 8 9 10 15 18 19 19 17 15 16
54 52 51 48 35 32 33 29 25 21 17 15 15 16 14 13 14 15 17 19 18 17 16 15 14 13 12 10 9 7 6 4 4 7 10 13 13 15 18 19 20 19 18 20
57 59 54 54 47 39 36 38 32 29 22 22 19 19 17 16 17 18 22 20 16 11 10 9 10 11 10 10 9 8 7 6 7 10 12 12 14 16 18 19 20 19 20 22
64 62 60 56 54 49 43 46 39 35 30 30 24 23 24 21 22 23 25 23 21 17 14 13 13 12 12 11 11 10 9 9 11 13 14 14 16 19 19 19 20 21 23 25
49 64 63 63 60 59 55 50 48 40 37 32 30 26 27 25 27 27 28 27 27 26 23 20 17 14 13 14 13 12 12 12 14 16 16 17 18 21 21 21 22 23 25 28
42 49 64 67 65 63 61 58 52 47 38 33 36 33 30 30 29 28 29 27 32 30 30 28 24 21 19 18 17 17 15 15 18 18 18 20 21 22 23 23 25 26 28 31
27 35 51 65 72 70 69 66 59 52 47 45 44 38 37 38 35 32 30 33 29 33 33 31 30 27 24 22 20 21 21 22 22 22 22 22 24 25 26 27 27 28 29 33
37 31 38 46 68 78 69 72 63 63 58 54 46 45 43 46 42 39 35 32 33 33 30 31 30 28 27 26 25 25 27 27 27 27 27 26 27 28 28 30 29 30 32 34
53 44 44 42 49 64 77 73 74 68 64 57 55 53 47 49 52 44 40 37 42 38 35 35 34 32 31 29 28 29 30 31 30 32 32 31 30 32 32 31 32 33 35 37
61 62 56 44 40 49 70 81 77 76 74 68 61 55 54 54 54 51 46 43 47 45 38 41 38 37 36 35 35 33 34 34 33 34 35 34 34 36 35 35 36 36 38 41
66 67 66 59 46 53 55 66 83 83 76 72 68 59 60 63 63 56 52 51 55 51 45 46 42 40 38 39 38 37 37 37 37 37 38 39 40 40 39 40 41 40 42 45
72 71 69 66 51 48 43 52 69 84 83 82 79 63 67 73 66 62 58 55 56 54 49 50 47 43 44 43 42 41 41 40 39 40 41 43 44 45 44 44 46 46 46 47
84 77 71 67 64 68 61 57 61 74 87 83 82 73 75 79 71 71 64 58 57 58 55 51 53 49 50 49 48 46 43 42 43 45 47 47 48 49 50 50 50 50 51 52
89 83 78 69 72 75 66 59 58 66 76 89 82 84 84 83 78 76 70 65 65 65 60 55 56 54 52 53 52 49 49 46 49 51 52 51 52 54 55 55 54 54 54 55
94 90 86 82 76 77 72 66 50 56 62 80 85 90 89 86 85 84 79 72 73 69 68 61 61 57 58 57 57 55 53 54 55 56 58 55 56 58 59 59 58 57 56 58
103 97 95 87 81 81 77 47 61 60 65 72 84 87 93 96 94 92 88 84 74 72 71 66 63 65 64 62 61 60 58 59 61 61 62 61 62 63 63 62 59 59 60 61
109 100 97 89 85 85 54 67 67 62 62 69 73 77 91 98 98 95 91 90 79 73 79 71 72 68 66 66 62 62 62 64 65 65 66 65 66 68 66 64 62 62 64 65
112 101 96 92 84 71 68 66 65 64 55 62 76 79 84 95 101 102 97 94 90 83 75 81 81 79 70 69 70 68 65 66 68 72 68 68 68 69 69 68 67 67 70 69
113 104 89 81 76 65 56 66 61 67 57 68 74 77 82 85 100 99 99 98 96 93 84 82 92 87 69 76 77 72 71 71 72 76 73 71 73 72 72 71 72 73 74 75
107 97 83 69 73 65 71 64 63 70 57 59 63 72 78 84 88 93 102 104 100 96 93 86 92 94 78 81 80 79 78 75 75 76 77 77 78 78 76 77 79 78 78 78
101 86 76 77 70 69 70 53 56 51 59 54 59 63 73 79 86 95 98 104 98 99 94 91 103 93 85 85 83 82 80 78 77 79 81 81 82 83 81 84 84 83 79 79
86 81 74 70 64 70 66 64 66 67 59 54 53 62 67 70 74 81 91 96 100 98 99 100 101 98 90 86 85 85 83 81 80 80 84 86 87 86 85 84 86 85 81 79
76 77 72 67 73 70 63 62 59 54 49 53 52 53 54 57 59 68 77 91 98 102 104 103 101 97 91 87 89 89 87 86 85 84 85 88 89 87 85 85 84 82 80 76
71 68 64 66 67 55 54 52 50 45 49 48 42 43 44 31 29 53 65 75 85 93 96 99 100 98 95 91 90 90 87 85 84 84 86 87 85 86 83 84 81 79 77 78
69 63 63 59 53 51 56 56 46 48 48 38 39 39 25 22 20 30 34 48 64 82 90 95 99 100 95 93 90 87 86 84 82 83 84 84 83 82 80 77 74 79 78 75

GFSCGP_250_spd_009.txt.gz
Wind_Speed
46 41 37 35 31 22 22 21 17 11 6 2 8 10 3 9 10 14 15 15 18 20 17 17 18 17 16 17 15 10 10 8 7 6 8 7 9 10 12 14 14 14 14 14
49 48 46 43 35 30 25 25 22 18 14 7 6 11 6 8 12 16 18 19 18 18 17 18 19 18 16 13 11 8 7 7 4 2 7 9 8 9 12 13 13 14 15 18
53 54 50 48 42 36 32 32 27 24 22 16 13 10 11 11 11 13 15 18 16 15 17 17 18 18 17 15 12 10 8 8 5 2 5 7 8 10 13 13 14 14 17 18
49 57 54 52 47 44 39 39 35 30 26 22 18 17 17 16 13 12 13 16 17 16 15 15 15 13 12 12 12 11 10 8 8 6 6 8 10 10 13 15 16 17 18 21
35 44 57 56 53 50 49 45 42 37 30 27 21 18 24 19 21 21 18 21 21 16 14 12 11 12 12 11 12 11 11 11 11 9 8 9 11 13 14 16 18 18 20 23
28 29 42 58 60 55 55 51 48 45 35 27 27 24 22 23 28 27 24 25 25 23 19 17 15 12 11 11 12 11 12 12 12 11 11 12 13 15 17 18 19 21 22 23
31 25 25 36 58 63 57 55 53 49 41 32 35 29 30 26 28 28 27 28 31 27 26 26 25 20 15 14 14 14 14 15 15 15 15 16 17 18 20 20 21 23 25 27
37 33 34 28 37 56 62 60 55 54 50 48 46 34 38 34 33 32 31 33 33 35 33 32 32 26 25 23 19 17 17 16 17 20 22 21 22 23 23 23 23 24 25 29
46 42 41 36 31 37 46 54 61 65 61 56 47 44 44 43 39 38 35 37 36 34 32 37 34 34 32 28 25 23 21 22 21 24 25 26 26 26 25 26 25 26 27 30
53 50 47 44 38 31 25 34 58 63 63 57 54 52 45 48 44 44 43 41 39 41 37 40 29 38 35 31 28 27 26 26 25 28 28 29 29 31 28 28 27 28 29 32
62 56 53 47 43 43 45 35 37 59 66 66 61 52 56 55 54 50 50 49 46 43 41 40 35 39 33 32 30 31 31 30 31 31 31 32 34 35 32 33 32 31 33 37
65 66 58 53 53 47 45 41 40 49 49 67 72 57 63 63 66 60 56 56 53 51 45 44 44 41 37 38 36 35 35 34 35 35 35 36 37 36 35 37 38 37 37 40
72 67 69 58 54 51 49 51 54 43 49 57 68 59 68 72 67 65 61 62 57 57 53 47 44 47 42 44 40 40 39 38 38 40 41 41 42 40 40 41 43 43 43 43
83 75 68 66 62 69 58 57 54 54 46 43 50 63 71 78 75 74 70 66 65 63 58 52 50 49 48 46 46 45 44 42 43 46 47 47 47 45 45 46 48 48 48 48
94 86 78 73 71 76 65 62 60 54 45 46 44 54 69 77 84 80 77 74 74 69 64 62 54 52 54 55 52 50 49 48 48 51 53 54 52 50 51 51 53 53 52 52
101 93 88 84 78 77 77 68 62 61 56 50 48 45 53 66 84 86 84 83 77 75 69 68 65 57 56 57 56 56 52 51 52 56 57 59 58 55 54 57 56 55 53 54
110 102 96 86 85 85 89 64 69 67 64 60 48 42 54 65 69 81 87 88 83 80 79 73 69 66 63 61 63 61 60 56 55 59 62 63 64 61 59 60 60 58 59 60
118 111 104 95 92 98 72 76 76 76 69 63 54 53 56 57 64 68 84 93 90 84 81 79 73 69 67 66 65 65 64 63 61 63 67 68 69 69 64 63 63 61 63 66
117 118 111 105 99 91 85 76 83 85 72 76 65 58 56 58 61 63 67 86 92 88 91 87 79 78 75 70 69 66 67 69 68 67 70 72 72 73 70 68 64 64 63 66
124 124 120 111 105 94 78 87 93 86 81 79 69 58 56 51 53 55 65 69 79 91 91 93 87 86 80 79 75 75 73 72 71 72 74 75 74 74 74 72 69 67 66 64
130 131 122 111 104 95 91 94 92 89 85 79 70 60 56 56 60 57 63 73 74 81 93 95 97 94 88 84 80 82 82 78 78 77 74 76 77 76 76 74 72 72 73 74
117 116 109 107 105 100 97 96 93 88 81 76 70 52 49 46 47 54 59 63 72 78 88 96 99 98 95 91 87 85 85 84 83 82 80 78 80 82 80 74 76 78 77 81
103 106 106 99 105 104 98 87 86 88 79 74 60 44 42 46 49 53 60 64 66 72 78 85 91 100 98 96 92 92 91 88 90 89 85 85 83 84 83 79 81 82 84 84
96 100 100 95 89 92 93 86 80 73 69 65 55 46 42 44 48 46 52 61 62 59 61 70 79 85 89 94 96 97 97 94 89 88 89 90 90 87 86 82 86 86 85 86
86 89 86 83 76 77 78 57 49 58 71 54 43 43 49 55 53 51 49 41 22 17 24 39 56 70 79 85 88 96 98 97 93 89 85 89 91 88 86 87 88 86 86 86
74 78 78 79 67 57 59 66 39 50 57 53 57 58 60 52 50 35 27 22 8 15 34 59 60 51 62 70 74 80 86 93 95 92 91 89 85 83 85 86 85 85 85 85

GFSCGP_250_spd_012.txt.gz
Wind_Speed
47 45 45 40 35 26 23 23 21 14 11 5 5 9 5 8 10 12 10 11 17 21 23 24 23 23 22 21 19 16 14 12 10 8 7 4 3 6 9 12 13 12 13 14
51 50 49 45 42 35 30 27 26 20 15 12 4 8 4 4 5 8 9 13 18 24 24 23 24 21 21 20 18 13 13 11 9 6 3 2 4 6 9 12 12 12 13 15
41 52 50 49 47 43 38 36 31 26 20 13 15 7 9 6 6 8 13 17 20 18 14 15 21 24 23 22 17 14 13 12 7 3 1 3 6 7 11 13 12 13 14 15
29 39 49 53 50 48 43 45 38 31 24 22 16 14 10 9 8 10 14 16 16 17 17 16 16 18 20 16 14 11 11 13 12 9 6 7 9 10 11 14 12 13 16 18
26 25 35 46 55 52 56 48 44 40 30 27 21 17 13 14 17 15 15 16 15 16 18 18 18 17 16 14 12 11 11 12 12 11 10 10 11 13 13 13 13 14 16 18
27 19 24 34 44 52 62 53 52 48 38 25 27 23 19 21 21 20 20 19 20 21 22 20 16 15 14 14 13 13 13 14 14 13 14 15 14 16 16 16 14 15 19 21
34 29 27 28 32 40 54 59 55 51 45 34 41 32 34 28 25 26 26 22 23 24 26 27 22 16 14 11 12 14 14 15 17 17 18 19 19 19 19 19 18 18 21 23
39 38 41 33 26 28 38 53 57 54 53 53 50 34 41 37 33 32 29 28 27 32 35 31 29 24 21 18 17 16 15 17 17 19 21 23 24 23 21 20 20 21 23 24
42 42 48 35 40 30 36 30 50 59 58 53 51 45 45 41 39 36 32 31 33 36 39 37 34 32 30 28 25 23 24 22 20 20 24 25 26 25 23 22 23 23 25 26
46 45 46 47 42 32 32 36 35 44 57 58 57 55 47 47 46 46 43 41 41 42 40 42 42 42 34 32 29 28 29 29 27 25 27 29 29 28 26 25 26 26 28 30
57 51 52 46 37 45 44 39 33 35 43 54 60 51 57 56 56 52 50 49 46 43 42 44 42 39 31 31 35 31 34 32 31 30 30 32 33 31 29 29 29 30 30 33
67 64 59 50 48 47 40 38 35 31 30 32 48 59 65 65 62 62 54 50 50 47 45 44 43 43 38 36 37 32 37 35 36 34 35 37 35 34 34 33 34 36 35 37
75 67 63 60 54 46 39 43 45 34 39 32 27 46 65 70 70 65 61 60 56 55 52 51 48 46 45 41 40 37 38 41 40 42 40 38 38 39 38 37 37 40 42 41
81 74 67 61 55 59 54 53 47 41 31 35 28 35 55 65 74 73 69 68 64 60 60 57 51 50 48 48 45 42 45 45 44 45 44 43 42 42 43 42 42 44 46 45
87 77 75 66 68 69 62 59 55 46 40 32 36 38 43 56 61 73 74 75 71 70 64 63 54 56 52 50 51 49 50 49 48 51 50 48 47 47 47 47 47 49 50 47
94 86 82 72 75 74 70 65 57 52 51 43 40 40 46 48 49 46 57 75 79 77 71 70 64 60 57 55 56 56 55 54 52 54 57 54 53 53 52 51 50 52 54 50
105 94 91 82 83 81 86 61 64 62 58 55 48 51 56 49 55 50 46 55 69 81 79 74 71 68 63 63 62 59 61 60 57 58 61 62 60 59 57 56 55 56 56 55
113 109 105 93 93 98 70 74 72 71 68 64 56 51 54 55 51 58 53 41 52 61 72 83 78 79 75 71 67 66 66 66 66 64 64 66 67 67 63 61 59 60 60 59
117 118 110 104 102 95 88 79 79 80 75 73 63 55 55 56 55 56 60 54 48 48 55 69 82 83 81 76 72 71 69 72 70 66 68 71 73 73 71 66 65 64 64 62
124 121 119 114 109 104 90 88 86 89 88 79 68 62 54 57 64 59 59 60 59 54 55 66 72 83 87 83 81 77 71 73 72 73 75 77 75 72 72 72 72 72 69 65
131 127 128 123 117 108 98 97 96 97 91 80 74 69 59 62 63 64 64 65 60 55 49 54 65 69 75 83 85 83 78 75 74 79 83 82 78 76 76 77 78 79 74 74
144 139 134 126 128 117 104 102 103 101 95 82 77 70 65 66 65 67 66 62 65 60 55 53 57 62 65 66 72 78 80 79 83 84 87 84 84 84 82 83 82 82 80 83
129 134 134 134 129 128 115 108 104 104 98 88 79 74 74 70 69 67 67 63 62 63 54 54 57 56 58 57 61 64 70 79 85 88 90 90 89 89 89 87 86 84 86 89
103 117 123 125 126 126 113 109 106 104 96 88 83 81 77 75 69 69 64 59 57 56 53 57 54 48 43 42 37 39 47 53 63 74 85 91 92 92 91 86 84 86 90 89
89 98 110 111 113 116 99 88 83 92 93 88 82 80 78 73 67 72 59 54 58 58 56 49 43 42 43 36 31 30 33 34 36 48 66 78 80 82 84 82 76 73 62 60
79 92 98 102 95 104 90 70 71 65 77 74 74 69 64 62 64 64 54 46 45 43 37 19 7 8 33 51 57 51 44 60 66 54 55 62 60 62 62 62 43 62 70 78

GFSCGP_250_spd_015.txt.gz
Wind_Speed
49 47 50 46 43 33 31 25 23 17 16 9 8 11 9 5 10 13 12 12 12 10 15 20 26 26 27 26 23 19 16 14 12 9 6 5 2 5 9 9 10 10 11 14
40 49 51 47 46 42 38 33 30 22 18 14 7 10 11 7 9 11 13 11 12 17 21 27 26 24 24 27 23 19 17 14 11 9 5 3 2 4 8 8 8 10 12 12
28 36 43 51 50 47 45 44 37 30 20 21 15 11 11 10 5 7 8 11 15 21 24 22 23 22 23 26 22 18 17 15 13 9 6 2 2 5 8 8 9 11 12 15
25 23 32 39 48 52 48 53 42 36 27 25 19 14 13 8 8 8 10 12 16 24 20 20 21 18 17 21 17 14 14 15 15 14 10 5 4 5 7 8 9 10 14 14
26 23 24 27 40 45 58 50 47 42 35 27 22 17 14 17 13 11 13 16 18 17 16 18 22 20 19 22 19 14 13 15 17 16 13 9 6 7 8 9 12 13 14 15
34 25 23 25 23 32 47 50 49 48 41 30 31 26 23 21 19 18 17 18 19 17 18 19 22 24 20 18 17 16 17 18 18 18 17 14 10 10 9 11 15 16 18 18
38 34 28 25 25 27 27 34 46 48 42 41 42 31 34 28 25 27 24 22 21 20 23 24 21 20 21 20 19 18 18 19 18 20 19 17 15 15 12 12 16 18 17 19
36 34 39 38 33 26 25 22 21 39 51 51 48 32 44 37 32 30 27 27 26 25 28 29 27 23 22 22 20 18 17 17 17 18 20 21 20 20 17 13 16 20 19 20
40 36 40 35 41 32 31 18 28 20 32 45 49 45 46 38 38 37 35 32 30 31 33 34 31 28 28 25 22 21 22 22 21 20 21 23 24 22 21 19 19 23 21 23
49 47 43 38 34 26 29 37 26 21 20 22 47 51 52 48 45 45 42 37 36 34 34 36 38 36 35 31 28 29 29 30 29 27 25 26 27 27 23 23 25 27 26 25
56 54 51 47 35 35 34 33 30 27 20 19 24 48 62 56 55 49 47 44 42 39 39 40 39 41 41 38 37 36 38 37 35 35 29 29 30 31 28 27 29 30 30 29
62 55 55 51 48 46 40 33 28 18 28 24 18 31 56 62 57 53 49 51 48 46 46 42 42 42 44 45 42 42 40 37 38 39 33 31 34 33 33 33 33 34 34 33
67 61 58 62 59 53 45 40 32 27 32 21 24 39 30 38 59 58 56 54 52 52 49 47 47 45 44 45 43 42 42 40 39 40 39 34 36 36 35 38 37 38 39 38
76 70 64 61 67 62 53 47 41 35 26 31 26 38 40 31 29 44 62 60 62 57 54 53 53 52 50 48 49 46 43 45 42 43 44 39 39 41 41 43 43 42 43 43
84 77 74 68 66 69 61 53 46 35 35 29 38 37 43 39 30 29 32 49 62 64 59 58 58 57 57 56 54 54 52 50 47 48 50 46 44 45 45 48 49 49 49 47
91 86 81 73 72 74 66 58 50 46 45 43 40 32 39 51 41 34 33 36 40 52 64 66 65 64 62 63 60 59 58 55 54 54 55 53 50 52 51 52 52 52 53 53
98 94 88 80 80 79 72 54 57 55 52 51 44 46 49 46 48 44 38 36 35 38 39 53 70 71 69 69 69 66 64 63 59 59 59 58 56 57 57 56 57 56 57 56
103 99 94 84 87 86 63 71 71 66 60 56 53 53 50 48 50 51 41 35 36 38 39 40 44 58 75 77 75 74 71 66 66 67 66 63 64 64 62 61 61 60 61 61
107 108 99 95 91 81 77 81 81 76 67 62 54 54 55 54 53 49 45 40 38 39 39 40 41 44 50 64 77 82 77 75 72 72 70 72 71 68 68 68 67 65 65 65
114 110 108 101 95 89 83 83 83 83 76 66 61 59 60 60 54 50 53 52 49 45 44 46 44 45 49 56 64 72 78 83 79 77 77 76 78 75 71 74 72 69 68 68
114 114 111 105 101 94 91 89 86 89 72 73 70 67 67 65 62 60 56 58 55 53 53 48 48 45 48 54 61 65 72 73 77 85 85 83 81 80 79 78 75 77 78 76
120 118 116 108 103 98 94 92 93 87 81 77 76 75 73 69 67 65 64 61 62 59 57 54 54 56 52 54 58 61 64 66 71 78 84 85 85 83 82 80 80 80 84 85
121 117 115 112 107 100 98 97 97 90 87 83 83 79 76 72 71 69 67 64 66 66 65 60 62 61 60 62 60 58 57 60 64 67 68 75 80 81 83 81 83 85 89 90
123 122 119 118 113 105 106 100 100 90 90 82 80 81 78 78 74 70 70 69 70 72 71 68 64 65 63 61 59 51 50 52 54 55 56 55 59 64 61 69 65 60 71 82
101 116 122 126 122 114 108 104 101 96 91 82 84 84 87 82 81 76 75 75 75 76 76 72 64 61 63 65 62 59 50 49 51 52 53 50 29 36 42 49 58 62 59 55
82 90 99 112 119 119 114 112 110 107 95 91 93 92 97 92 90 91 88 82 79 74 75 73 64 63 52 61 63 50 41 34 36 34 35 31 26 33 42 55 62 38 28 20

GFSCGP_250_spd_018.txt.gz
Wind_Speed
52 55 53 48 45 42 36 32 29 24 22 18 12 10 8 9 12 3 8 12 14 11 10 10 15 24 26 27 25 23 20 16 12 9 6 6 5 6 7 8 9 11 13 15
44 46 48 52 47 45 42 41 38 29 24 20 17 11 6 8 11 8 11 11 11 11 11 16 23 27 27 26 24 21 18 15 11 10 7 5 4 4 5 7 8 12 13 15
37 36 40 44 49 50 48 49 44 36 26 21 19 15 8 8 13 9 7 7 9 9 13 19 27 27 25 25 22 18 17 13 11 8 5 6 3 2 4 6 9 12 13 14
32 30 32 38 43 47 52 55 42 38 32 26 18 18 15 12 11 8 9 6 10 10 17 24 23 24 23 22 18 16 15 14 13 10 5 2 2 3 7 8 10 11 11 12
39 29 25 28 35 39 48 49 47 40 38 31 23 23 21 19 14 11 9 10 13 17 20 23 23 22 24 25 21 17 16 16 15 13 10 7 5 4 6 9 10 10 10 11
38 33 30 31 27 31 37 41 43 45 39 32 37 31 27 28 18 16 12 12 16 23 21 22 22 22 24 28 28 23 18 17 16 15 13 11 11 10 8 11 13 12 12 12
47 42 40 33 26 27 29 32 34 38 41 47 42 32 36 32 26 23 16 16 18 20 19 20 22 21 22 23 24 21 19 17 17 16 15 14 14 14 13 14 18 18 14 14
44 39 38 36 35 34 22 12 18 32 42 49 39 37 43 37 31 26 24 20 19 20 18 22 24 25 25 24 23 21 19 17 15 16 17 17 17 16 16 17 19 21 19 16
47 41 43 39 40 37 26 20 17 18 23 36 41 50 43 41 35 32 30 27 28 28 25 23 25 28 28 26 23 20 17 15 14 14 16 19 20 20 17 17 20 23 24 20
49 44 42 40 37 29 25 29 19 14 15 21 40 50 52 48 44 42 36 33 32 33 28 29 29 30 30 26 24 22 21 21 21 21 21 22 25 26 22 21 22 25 25 24
54 50 50 46 35 35 32 30 25 22 20 20 28 32 46 52 51 47 43 40 38 35 34 32 32 32 33 30 31 29 31 31 30 29 28 30 30 30 29 25 26 29 29 27
64 58 55 53 49 46 40 35 24 19 21 23 25 28 26 38 52 51 49 45 43 41 39 37 35 34 34 36 38 38 38 40 38 39 39 37 35 34 33 30 28 32 33 33
70 65 61 61 55 49 43 40 35 30 22 18 20 31 25 15 28 51 52 49 48 45 45 42 40 39 39 39 42 42 42 44 44 44 42 38 38 36 33 33 31 35 36 37
76 72 69 64 61 55 48 48 43 38 27 24 21 34 30 25 23 22 45 54 55 53 50 47 46 47 46 45 46 45 45 43 39 42 45 44 42 40 38 39 40 40 40 40
85 82 77 72 67 61 56 49 50 45 40 30 34 36 39 35 27 21 17 24 43 56 55 54 53 53 53 52 52 53 51 49 47 45 43 46 47 45 43 44 46 45 45 44
93 89 86 80 76 69 63 59 54 53 49 43 37 34 44 40 29 23 22 20 25 29 41 56 60 60 58 59 59 60 58 56 53 52 51 51 53 51 51 50 50 50 51 50
98 94 93 86 84 79 70 65 61 55 54 48 43 42 47 48 37 29 28 26 25 25 25 28 37 49 61 67 68 66 65 64 60 58 58 59 61 60 59 56 54 56 57 55
103 99 95 93 88 84 73 72 70 62 56 54 50 49 48 51 49 41 36 31 30 29 29 30 33 36 40 45 56 68 71 69 68 65 63 66 67 66 64 63 60 59 60 61
107 107 100 97 95 84 80 80 76 65 57 57 59 58 55 53 52 46 45 40 37 37 36 35 36 40 43 45 50 50 51 61 69 74 74 74 74 74 70 69 68 65 64 66
112 110 108 101 96 90 86 84 81 72 62 61 61 61 58 55 50 52 55 49 46 43 41 41 41 41 44 45 43 48 51 53 55 67 77 80 81 79 76 77 78 76 71 71
111 109 105 104 101 93 86 85 82 78 64 68 66 67 65 58 55 57 58 54 52 50 48 47 48 46 45 46 48 50 54 53 61 62 64 67 72 77 78 82 85 84 81 77
108 108 103 103 101 94 91 91 88 76 75 76 74 74 69 63 61 60 60 59 58 57 57 57 56 53 53 48 47 49 51 55 60 64 63 66 64 68 70 71 71 74 75 78
100 99 102 99 90 93 97 96 91 85 82 80 78 78 76 72 69 68 68 67 66 65 65 65 65 61 59 55 52 53 49 49 56 63 66 64 61 65 64 66 63 62 62 63
101 102 100 98 89 88 93 92 91 90 85 84 84 81 79 75 73 72 73 72 70 69 70 71 71 67 65 63 60 55 55 55 54 58 65 60 59 59 60 60 54 54 54 52
107 109 104 98 95 90 87 87 86 87 89 88 86 86 83 83 78 77 75 75 74 73 74 76 75 73 72 68 64 60 60 56 57 59 56 58 65 64 57 51 51 51 42 37
93 100 101 100 101 96 91 90 89 85 86 83 81 86 82 84 83 83 82 80 78 77 76 78 81 78 76 71 65 65 65 61 62 60 61 61 63 59 51 52 54 38 36 32

GFSCGP_250_spd_021.txt.gz
Wind_Speed
41 48 50 48 48 43 41 37 34 33 27 21 17 11 7 10 4 8 3 4 8 10 14 18 13 14 23 25 26 23 21 17 15 13 11 9 8 9 11 12 12 13 13 13
44 42 42 43 48 49 44 42 41 37 33 23 20 16 10 11 8 7 5 7 9 11 13 18 17 19 26 27 26 21 20 17 14 13 11 8 7 7 8 10 10 11 11 12
43 39 40 41 42 46 51 50 46 41 37 31 22 20 16 12 11 8 4 10 11 7 13 19 21 28 26 26 22 20 17 16 13 11 10 8 4 5 6 8 9 8 9 9
40 40 38 38 40 40 45 52 48 41 40 37 29 25 20 17 15 7 7 11 14 13 14 20 25 27 29 26 22 19 17 15 13 11 8 7 4 2 3 4 7 8 8 8
43 40 33 34 35 37 44 42 44 46 40 37 34 32 27 22 20 11 10 10 19 17 17 24 29 31 28 26 24 21 18 16 13 12 10 9 7 4 1 1 4 5 8 9
44 41 33 38 32 30 30 38 39 42 45 37 46 41 32 29 22 18 11 11 21 22 22 27 28 29 28 26 26 23 19 18 16 15 14 14 12 9 7 5 5 7 8 9
50 47 44 41 39 33 29 27 29 37 43 55 51 42 43 35 26 24 15 14 18 27 28 25 26 26 24 22 25 24 20 17 16 16 16 15 15 13 11 9 10 9 9 9
53 51 48 46 43 36 27 16 22 28 39 46 47 49 47 42 30 26 23 18 19 26 26 25 25 27 25 26 26 27 24 20 18 17 16 16 15 14 14 12 13 14 12 11
59 54 52 47 49 38 34 25 25 24 27 37 47 55 47 43 36 30 28 24 26 27 26 25 26 26 25 24 25 25 25 24 22 19 19 17 15 13 13 15 15 16 19 15
60 56 55 54 50 40 35 33 22 15 18 26 39 50 55 48 46 39 33 31 31 31 27 25 26 29 30 28 28 28 26 24 22 19 18 17 17 16 15 17 19 22 22 22
63 58 60 59 47 41 39 35 35 30 22 23 25 34 46 51 48 44 40 38 35 33 34 30 28 27 29 29 31 32 30 28 27 25 23 23 24 24 23 24 25 25 29 28
70 63 62 61 56 52 47 41 37 33 34 31 28 24 24 34 50 49 46 41 38 35 34 35 35 31 32 32 35 36 35 35 35 33 32 31 30 31 31 32 31 32 32 32
78 70 67 68 61 55 47 41 37 36 36 33 31 31 26 23 20 46 51 50 45 42 40 38 36 36 34 37 38 40 39 39 38 38 39 37 37 38 37 34 35 34 34 33
82 78 72 70 67 64 55 49 45 37 31 34 32 35 34 26 25 30 49 56 55 52 49 47 43 40 38 39 41 42 42 43 43 43 45 44 42 40 39 39 40 37 38 38
89 84 78 75 74 67 61 55 51 43 37 31 41 39 37 32 27 27 26 40 57 57 55 51 48 47 47 47 47 46 45 45 43 42 44 44 45 44 43 43 43 42 42 43
95 90 86 80 80 75 67 60 55 51 44 40 38 37 39 35 30 29 28 25 26 42 56 58 56 54 52 53 53 53 52 51 49 48 51 51 50 50 49 48 48 49 49 49
98 95 91 86 83 81 73 65 60 59 55 50 43 41 47 40 34 35 31 30 26 25 28 35 50 57 58 57 57 56 55 53 53 54 56 57 57 57 57 54 55 56 56 55
98 99 96 91 87 85 75 74 69 63 57 55 49 46 49 49 44 37 33 33 31 29 26 27 29 32 39 44 46 52 55 58 60 61 62 62 62 62 60 60 61 62 61 62
103 101 101 97 91 84 82 79 75 70 61 58 54 52 53 53 54 46 42 40 40 38 36 34 33 34 33 35 38 38 38 41 46 50 56 60 66 68 66 67 68 67 67 68
104 104 103 100 95 89 85 85 80 75 67 62 61 57 59 58 52 51 51 48 47 44 44 44 43 41 39 39 39 40 42 42 45 48 48 48 49 50 49 51 53 55 58 63
100 103 100 102 101 95 90 88 84 81 75 73 66 64 61 59 59 63 60 55 52 49 48 46 46 44 44 44 42 40 39 42 42 40 42 46 49 51 52 54 54 55 55 56
96 98 100 103 101 99 93 93 88 86 85 80 75 69 66 64 64 64 64 64 59 56 56 54 53 51 50 49 48 47 45 44 43 43 44 43 44 47 50 52 56 57 60 58
92 90 99 99 96 98 101 97 94 92 89 83 82 77 72 70 67 66 65 66 66 61 57 56 59 58 57 56 53 52 51 52 51 49 50 48 48 49 50 52 56 55 59 57
94 96 88 94 94 96 99 101 98 94 90 87 84 83 77 76 74 71 70 68 67 68 65 61 59 57 58 59 59 59 59 58 58 59 57 56 54 55 53 58 60 60 55 57
101 93 92 88 91 98 103 101 97 96 93 91 86 81 81 78 77 74 74 74 74 74 71 69 67 65 64 64 65 65 65 64 63 63 62 59 59 60 59 61 60 61 61 63
98 99 92 87 90 90 100 99 97 95 95 94 90 84 85 83 80 77 76 76 78 78 78 77 74 73 73 72 71 71 70 68 67 68 65 62 61 60 61 62 58 59 62 59

GFSCGP_250_spd_024.txt.gz
Wind_Speed
43 44 45 42 45 43 38 37 36 36 34 27 21 19 18 13 10 6 5 11 17 20 19 15 13 15 17 22 23 24 21 21 19 18 17 15 14 15 16 16 14 15 15 15
43 46 41 41 44 45 43 45 43 40 36 32 26 20 20 17 11 11 5 9 15 20 18 17 16 18 18 24 23 25 22 21 20 18 16 14 12 12 13 14 13 13 12 12
46 35 38 41 43 43 44 47 50 47 39 36 29 24 23 20 14 13 10 12 15 17 19 16 18 22 25 27 24 23 22 20 17 15 14 13 11 11 11 11 10 9 9 9
45 39 42 42 42 41 40 43 42 46 43 38 34 32 27 22 21 16 11 14 17 18 21 20 21 24 28 27 27 23 21 18 17 14 12 11 9 7 8 8 8 8 7 8
50 45 42 42 39 36 38 32 34 40 46 44 36 36 37 29 25 20 14 13 15 19 23 21 26 29 30 31 31 26 23 21 19 17 14 10 9 6 5 5 5 5 6 6
50 47 41 40 38 38 33 31 31 36 44 42 48 44 37 36 29 22 19 13 16 20 23 24 32 36 34 33 31 29 26 23 20 17 14 12 9 9 8 6 3 1 1 1
54 50 47 45 41 40 33 29 31 35 40 48 58 49 47 43 34 28 23 15 15 18 24 29 35 35 36 34 30 26 24 22 19 16 14 14 14 14 13 11 9 7 5 4
60 56 53 51 47 46 36 31 26 31 35 46 44 51 53 45 37 30 24 18 15 21 24 32 34 34 36 31 29 26 22 19 17 15 15 16 17 16 15 13 13 12 10 8
64 58 58 54 52 47 40 32 37 27 28 32 43 51 54 44 41 36 31 26 22 23 31 32 34 35 38 35 31 29 27 24 23 20 20 19 18 18 17 16 14 12 13 14
65 66 62 61 59 48 39 41 28 20 24 26 37 47 52 51 47 42 39 33 30 27 32 34 35 36 37 35 34 33 31 30 26 24 21 22 21 17 15 14 12 15 16 19
70 70 66 66 56 50 47 40 36 35 28 30 33 39 46 51 52 47 46 42 37 32 34 37 35 35 35 32 32 33 34 34 33 28 26 25 23 20 19 19 19 19 21 23
78 76 70 66 65 58 55 52 49 39 36 37 33 27 37 45 54 52 48 46 41 37 35 37 34 30 29 35 37 37 36 36 35 32 31 30 30 28 26 26 27 28 28 28
79 76 77 73 70 63 55 53 47 46 42 34 32 29 26 26 40 54 53 51 47 44 40 38 38 37 35 33 33 36 37 38 35 34 34 35 35 34 31 32 34 32 32 32
83 85 79 73 72 68 61 56 50 49 49 42 38 39 36 30 30 43 56 56 54 50 47 45 42 42 43 41 40 40 39 39 38 39 39 40 40 38 37 37 40 38 37 37
89 86 83 83 76 69 62 60 55 52 53 51 46 46 45 38 35 34 43 55 57 56 55 51 49 47 43 43 43 42 42 42 41 42 43 45 43 44 43 42 41 41 40 39
93 90 86 82 79 76 69 63 59 58 55 54 53 52 51 44 39 40 39 45 56 60 58 57 54 52 50 48 46 45 44 44 44 44 45 44 44 45 44 44 43 45 44 44
98 93 88 87 87 82 75 65 64 63 60 56 52 54 55 48 40 40 41 39 42 50 58 60 59 57 55 54 53 52 49 46 46 45 46 47 47 49 48 48 50 51 51 51
101 97 95 93 88 86 76 76 71 70 68 63 55 52 54 49 39 34 37 40 40 40 41 49 56 53 56 57 54 53 51 50 50 49 50 52 54 53 52 53 55 56 56 57
101 102 99 95 87 88 85 81 76 76 72 66 59 53 52 51 46 39 38 42 43 41 38 36 37 38 42 47 53 58 59 59 58 57 57 56 57 58 56 53 55 56 57 54
99 104 101 98 91 90 89 86 81 78 77 74 65 62 58 56 53 53 51 42 37 39 39 37 38 38 38 37 37 38 42 44 45 46 46 43 42 40 42 41 40 38 39 41
96 100 102 101 97 93 92 88 84 85 87 81 72 66 62 59 56 56 53 51 45 41 43 43 41 41 41 40 41 41 39 41 39 37 36 37 38 38 37 38 38 39 40 44
91 96 99 103 100 96 92 89 89 91 86 83 77 70 66 64 59 61 60 58 53 49 49 47 46 46 47 45 43 42 42 42 40 39 40 40 41 41 40 38 39 43 40 44
92 92 96 98 98 96 94 94 92 91 89 88 84 77 72 68 66 64 64 64 60 56 53 52 52 52 52 51 48 48 48 48 48 48 48 47 48 47 46 46 47 45 48 52
96 89 89 91 93 94 93 92 95 95 92 91 91 85 80 74 69 67 67 67 66 61 60 60 57 56 56 56 57 57 57 57 57 56 54 55 54 53 52 52 51 50 51 56
98 91 86 85 89 94 99 99 100 100 97 93 91 90 85 81 75 73 70 70 70 69 66 63 62 63 62 61 61 60 61 62 63 64 64 63 61 59 58 57 55 53 54 58
93 97 88 82 88 90 95 104 99 96 97 96 93 93 91 88 84 81 77 75 75 74 73 71 68 66 66 67 68 68 67 67 68 68 68 66 65 67 66 63 61 58 59 60

GFSCGP_250_spd_027.txt.gz
Wind_Speed
46 43 42 44 42 41 39 37 34 30 29 27 24 21 19 19 17 18 14 14 15 20 20 19 17 14 18 22 25 21 22 20 19 18 16 16 16 15 15 16 16 16 15 16
46 48 47 44 44 45 44 42 41 38 36 33 29 26 21 20 19 18 14 14 14 19 22 21 18 16 19 24 24 22 23 22 20 18 18 15 14 14 14 14 13 13 11 12
53 54 45 44 46 47 48 47 48 46 45 41 33 29 27 22 20 18 17 16 13 17 24 25 24 19 20 26 26 25 23 22 20 19 18 17 16 14 13 11 11 10 10 8
56 50 44 45 46 48 46 49 48 45 43 43 40 35 31 26 23 20 20 18 14 17 23 24 28 23 22 28 26 26 24 23 21 19 18 16 14 11 10 9 8 7 7 6
51 52 50 46 48 42 43 40 41 39 39 42 40 37 36 34 29 24 23 22 16 20 19 22 26 25 27 31 29 29 26 26 23 20 18 15 13 12 9 7 6 5 5 4
56 54 48 49 44 44 42 38 37 37 36 35 37 43 45 39 38 29 25 25 19 19 20 20 27 30 32 35 33 32 30 28 26 22 19 14 10 7 6 5 4 3 1 1
59 57 56 51 49 46 41 40 37 33 35 37 48 53 53 49 42 35 31 26 21 18 18 20 29 34 33 38 36 34 32 29 26 21 18 14 12 9 8 8 6 5 5 5
64 59 52 48 48 48 45 43 38 36 38 42 44 39 53 54 48 40 34 29 23 21 20 25 28 34 37 37 35 31 30 28 26 22 20 18 15 14 13 12 12 12 10 9
67 63 62 56 54 50 46 37 42 37 37 36 30 43 52 50 49 42 38 32 28 25 22 26 26 34 40 38 37 33 30 27 25 22 22 22 20 18 16 15 15 14 13 13
76 72 67 63 57 50 44 48 34 31 29 32 34 39 45 44 49 44 42 36 33 30 26 26 30 36 41 40 39 36 33 31 28 29 28 23 20 19 18 18 16 13 12 13
81 76 72 68 53 53 53 42 35 35 35 35 37 41 40 45 46 50 47 45 41 34 30 27 33 39 40 39 40 40 39 37 35 33 30 27 23 23 21 18 17 15 15 16
84 77 75 62 66 64 60 53 48 43 42 38 41 39 32 38 43 52 52 48 45 39 34 29 32 37 38 39 40 40 39 38 38 36 34 31 27 25 23 23 22 20 19 21
90 80 77 76 74 66 57 55 52 52 52 45 45 35 32 34 41 49 56 52 49 44 39 33 33 36 39 39 39 40 40 41 40 37 36 33 30 29 27 27 26 25 25 29
87 84 80 76 67 71 65 59 57 55 51 48 46 43 35 33 37 45 54 56 55 50 47 43 35 38 41 42 43 40 38 37 35 36 35 35 34 32 31 32 33 32 34 34
96 90 85 85 83 79 69 67 62 57 56 52 50 49 45 37 36 44 55 57 60 55 52 48 45 41 43 43 43 44 43 42 40 38 36 38 35 34 36 37 37 40 39 38
98 93 92 91 86 75 67 64 63 62 61 61 55 51 54 45 40 39 47 59 62 62 58 54 51 49 44 45 49 47 44 42 40 40 40 39 39 39 41 41 41 44 42 40
96 99 98 89 85 77 73 69 68 66 64 63 58 58 59 55 49 44 41 44 55 64 62 58 55 53 51 49 48 47 46 44 43 42 41 38 41 43 43 42 42 42 42 44
98 101 97 90 91 81 75 80 78 73 70 70 65 62 60 61 58 45 41 40 42 50 62 64 61 59 56 56 54 52 50 49 47 45 44 44 45 45 44 44 45 46 47 49
99 98 98 95 92 84 83 86 84 77 73 74 71 67 65 64 60 52 48 47 48 42 43 54 63 63 61 60 59 58 56 54 52 52 51 49 48 48 48 49 48 50 51 53
100 97 96 98 96 92 93 93 86 80 76 75 73 69 65 63 59 62 48 46 43 38 37 38 42 54 65 66 64 63 63 60 59 59 57 53 51 53 53 52 52 52 46 43
102 102 97 98 98 95 98 93 89 86 90 81 77 71 64 61 62 58 52 48 49 48 46 42 39 40 43 47 54 63 67 67 67 62 59 54 51 53 52 46 42 38 36 32
100 99 101 100 100 98 97 94 94 93 88 79 75 70 65 58 57 61 58 51 48 48 47 43 40 40 39 39 41 43 44 47 49 49 46 47 46 44 42 39 36 35 35 34
102 97 98 103 99 99 98 92 91 89 87 81 75 75 71 67 63 61 60 60 58 53 47 44 43 41 40 42 43 43 44 45 46 44 43 43 42 42 42 41 41 40 40 40
105 99 95 92 93 97 94 88 85 88 88 85 83 82 77 73 69 66 65 63 62 60 59 54 50 47 47 46 47 49 49 50 49 48 47 47 47 47 47 47 46 46 48 49
103 103 98 92 91 91 94 83 82 89 90 93 89 86 82 78 75 73 69 67 68 67 65 60 56 53 53 52 51 52 53 53 52 54 55 54 54 54 54 54 53 55 55 54
99 101 102 97 94 87 89 96 95 94 94 96 94 92 89 85 81 77 73 72 71 70 70 67 65 62 58 58 59 59 57 58 58 59 60 60 61 61 60 60 60 60 60 58

GFSCGP_250_spd_030.txt.gz
Wind_Speed
52 48 45 47 44 44 41 41 35 31 28 28 27 22 22 12 12 38 19 19 18 15 16 21 17 14 15 20 23 19 19 15 14 15 14 16 15 16 19 19 20 19 18 16
51 46 52 49 44 42 43 42 41 37 33 31 31 30 24 16 39 33 19 14 18 15 14 22 18 17 16 20 24 20 20 18 17 15 15 14 14 15 16 16 15 15 16 12
54 56 53 47 46 45 44 45 48 46 44 42 41 36 29 25 26 24 19 13 14 13 15 21 20 20 19 21 26 23 22 20 19 16 16 16 14 14 14 13 11 10 12 11
59 60 57 52 50 51 49 51 52 48 49 47 47 41 35 31 28 25 20 11 22 20 16 22 24 20 20 25 28 25 26 23 21 18 16 15 14 13 12 9 9 7 8 8
58 60 58 55 58 57 55 53 51 48 47 49 47 44 40 37 32 31 26 21 33 19 18 20 26 24 24 28 35 29 28 26 24 22 19 15 13 11 11 10 8 7 6 5
66 62 58 56 60 58 57 50 44 42 44 41 41 43 43 43 41 39 31 27 22 19 16 20 23 27 28 27 37 34 32 28 27 26 22 18 16 12 11 11 8 5 4 3
63 57 54 54 52 55 52 47 43 42 40 40 48 47 49 51 48 44 35 30 26 20 17 19 25 28 30 29 39 38 34 32 30 27 24 20 17 15 12 10 9 8 5 3
69 65 57 55 52 53 47 47 45 46 48 47 47 42 50 54 52 47 39 34 29 23 22 21 24 30 29 31 40 39 34 32 30 27 25 21 18 16 12 12 13 10 7 7
73 64 68 62 61 58 52 45 51 51 48 45 45 45 47 48 51 50 42 37 32 30 26 23 22 27 33 36 41 41 37 35 32 30 27 24 21 20 17 16 14 12 12 12
78 80 72 70 68 61 53 56 55 47 44 41 44 42 45 47 46 47 47 42 38 36 31 26 22 28 29 37 42 42 38 36 31 32 31 30 26 23 21 20 18 17 15 12
88 84 79 77 65 57 53 51 45 49 45 43 45 44 44 45 48 41 47 47 44 42 36 30 24 27 30 35 43 45 42 39 39 37 34 31 30 27 23 20 19 18 15 13
88 85 84 77 68 66 59 56 52 45 42 41 45 45 35 35 42 44 46 50 50 48 40 34 28 25 27 34 42 46 44 42 40 37 36 34 31 26 20 20 19 19 17 14
95 85 81 82 76 67 59 58 55 55 55 46 46 46 42 38 38 42 49 55 55 52 46 40 32 27 29 35 43 46 44 43 41 39 37 34 31 28 24 22 23 23 21 21
91 88 83 76 66 66 68 65 62 59 53 51 50 51 44 39 36 36 47 55 57 55 50 47 37 33 32 36 43 48 47 44 41 40 39 37 34 32 29 28 26 26 27 25
95 95 88 82 79 77 75 72 68 60 59 54 56 54 47 43 37 38 40 51 57 57 52 51 45 40 35 38 44 46 47 45 43 42 40 38 36 33 33 33 31 30 31 30
94 93 91 86 86 87 81 76 70 68 65 63 60 59 54 49 44 38 38 46 57 59 59 54 51 44 43 42 46 47 46 46 46 45 44 39 37 35 36 37 35 34 34 34
94 100 94 86 90 87 83 75 71 70 69 66 62 61 60 54 52 42 40 40 47 56 59 56 54 51 49 46 47 47 50 49 49 50 48 43 39 36 37 37 35 36 37 39
94 92 91 93 97 97 82 79 76 70 70 69 70 69 64 59 54 43 42 40 36 49 54 58 55 53 50 48 46 50 48 47 48 47 44 42 39 38 38 35 36 37 38 41
93 91 93 100 99 92 86 79 78 75 74 77 75 75 72 57 56 51 51 46 39 36 43 52 57 57 54 52 50 47 47 51 51 51 50 47 44 43 42 42 40 39 40 43
94 94 95 103 103 94 89 87 89 86 87 89 85 77 69 60 57 58 55 43 37 37 33 33 41 53 60 57 54 52 51 53 51 52 51 48 45 46 48 45 45 45 46 47
97 94 99 100 100 99 99 97 99 96 96 87 83 82 73 70 64 58 50 50 50 45 39 38 38 39 46 57 60 57 56 56 58 54 52 53 53 53 53 50 50 52 52 48
102 100 99 100 102 106 105 105 101 100 94 87 85 77 72 69 61 57 52 55 57 55 49 46 44 41 39 38 40 48 56 62 62 59 60 60 58 57 58 58 56 56 54 45
107 103 104 106 103 106 105 110 104 98 92 88 83 77 72 65 60 55 60 67 61 55 51 50 51 48 45 39 39 35 32 34 39 43 47 48 49 48 48 47 46 40 39 38
109 106 102 100 106 112 109 105 102 95 90 84 80 77 74 67 62 68 68 63 62 56 54 56 58 55 50 49 44 42 42 43 42 42 41 40 39 39 39 41 43 42 41 40
105 99 97 94 99 102 99 91 86 88 89 82 78 78 74 75 75 70 70 65 61 63 60 57 59 58 55 54 51 50 50 49 47 47 48 48 47 47 46 47 46 45 46 46
108 109 105 100 99 95 89 81 76 79 87 85 84 81 84 82 81 77 73 69 64 65 65 62 60 56 55 55 53 50 50 49 49 51 52 52 53 53 53 51 50 51 53 52

GFSCGP_250_spd_033.txt.gz
Wind_Speed
54 52 47 50 47 45 40 35 31 32 31 32 29 27 24 19 14 9 24 15 15 17 14 8 16 12 9 12 19 17 16 15 14 16 20 17 16 17 17 16 17 17 17 16
55 49 58 54 50 47 42 39 36 36 33 32 31 31 26 21 23 19 27 11 14 13 17 6 16 15 10 12 21 20 19 16 16 16 18 17 16 18 17 15 15 14 13 14
58 64 60 56 53 49 45 42 43 43 42 37 37 36 32 26 26 19 14 21 12 14 14 6 16 17 13 13 22 22 21 19 17 16 16 17 15 15 17 15 13 12 10 11
66 66 61 59 54 49 46 48 48 47 45 42 41 37 36 34 28 33 36 27 22 24 21 9 15 19 17 14 26 26 25 23 20 19 19 17 15 16 15 13 11 12 12 9
63 68 63 59 56 55 53 54 52 49 44 46 44 40 40 40 40 39 42 33 23 28 27 20 13 19 23 20 26 29 29 27 24 22 20 18 17 17 15 11 10 10 10 8
74 76 71 64 63 55 61 56 54 49 45 42 46 45 45 46 46 46 43 36 37 31 24 14 13 22 24 26 22 34 33 30 28 25 23 21 20 18 17 15 12 11 9 8
77 74 69 67 63 60 58 55 54 51 46 42 50 51 46 49 53 51 45 35 32 31 24 19 17 21 25 29 25 36 36 34 32 28 26 24 23 20 18 17 15 13 10 8
81 78 70 70 65 63 62 61 55 54 52 54 60 49 53 56 56 53 47 39 35 32 29 26 24 22 24 28 29 32 40 37 34 30 27 26 24 22 20 18 17 13 11 9
80 75 82 79 74 70 64 54 57 59 60 59 55 52 49 43 37 43 42 42 37 36 38 39 28 20 28 27 34 29 42 40 37 33 32 29 27 25 23 21 18 17 15 12
90 94 86 82 83 74 61 63 60 55 56 54 54 50 44 39 38 42 42 40 43 43 41 38 27 25 28 31 35 32 42 44 40 37 34 33 30 27 25 21 19 18 16 13
96 90 86 88 78 65 66 62 59 59 58 54 53 49 45 42 42 41 44 42 47 47 44 40 34 29 24 29 36 36 43 47 45 43 39 35 34 31 26 22 20 19 16 13
98 89 95 81 68 71 70 63 63 56 55 53 54 50 44 42 41 41 45 48 46 54 49 42 37 30 26 29 32 41 45 49 47 43 38 39 37 33 27 23 19 18 17 16
102 91 90 86 85 76 66 62 60 59 63 57 55 52 45 43 41 41 45 47 49 56 54 50 42 35 32 31 33 40 46 48 47 45 43 42 40 33 28 23 20 19 19 21
97 95 87 84 75 71 66 62 63 61 58 59 54 52 46 44 41 43 45 46 48 50 55 51 47 42 37 31 35 39 45 48 50 47 45 42 39 34 30 28 27 25 22 25
89 88 86 82 78 77 75 72 68 58 60 56 60 52 49 45 43 42 41 42 47 49 51 53 50 44 39 35 34 39 45 48 50 48 46 43 39 35 32 30 31 31 28 26
86 90 88 86 85 83 82 77 70 67 66 64 64 55 53 51 45 42 42 40 43 47 47 54 53 50 45 41 37 40 46 49 51 51 48 43 41 37 34 34 34 34 31 30
89 89 85 89 90 91 84 74 71 69 69 66 64 59 56 55 51 49 44 46 46 43 46 50 55 52 48 46 40 37 44 48 49 52 48 46 42 37 35 35 36 34 35 35
91 90 85 96 94 88 78 76 71 70 71 70 72 72 62 64 63 50 47 44 46 42 42 44 49 53 50 48 44 38 38 45 49 50 50 47 43 39 37 38 36 36 36 39
89 86 89 99 95 81 84 87 81 79 82 80 82 80 77 74 60 47 46 43 43 39 31 35 43 52 53 49 44 40 37 37 42 48 49 47 45 42 39 40 40 39 39 39
93 90 94 93 91 91 96 89 84 84 85 81 86 87 83 70 60 50 47 44 42 40 32 29 37 45 55 53 50 47 43 43 44 49 51 48 43 42 42 43 44 42 41 41
97 94 95 93 95 95 95 92 89 92 92 86 90 93 83 62 49 47 48 49 45 42 39 34 31 40 48 56 55 50 49 49 50 47 42 41 41 43 45 45 45 46 44 44
100 99 96 94 94 99 102 99 97 93 92 91 93 95 81 58 47 50 51 54 50 46 44 38 33 31 32 41 53 56 54 54 53 50 47 46 47 48 48 49 50 49 48 48
100 105 100 100 105 103 104 103 101 98 98 95 94 93 76 57 51 53 51 55 51 49 50 47 43 37 34 34 36 44 54 60 58 55 53 54 54 54 53 52 52 50 51 51
102 104 106 103 105 105 104 105 102 101 100 98 93 86 74 60 58 61 58 59 55 54 56 60 51 45 40 41 42 40 38 41 50 56 60 60 58 57 55 55 54 53 52 47
101 107 111 108 106 101 104 102 100 103 105 102 94 84 75 67 65 66 65 62 63 63 62 61 59 54 51 51 50 47 46 43 40 38 41 44 44 45 48 50 50 47 44 42
97 107 109 107 102 100 101 100 98 98 103 100 90 82 76 73 71 71 69 71 74 67 63 60 58 57 58 55 54 55 55 51 47 45 45 45 45 44 45 44 42 43 42 42

GFSCGP_250_spd_036.txt.gz
Wind_Speed
58 56 49 56 52 52 47 40 35 31 28 28 28 23 19 23 20 16 15 15 14 17 13 1 7 6 10 7 16 19 17 16 19 24 22 19 19 19 19 19 18 18 16 14
59 51 61 61 56 53 48 44 40 35 31 32 29 28 22 26 22 21 15 27 9 16 10 7 8 9 10 8 17 19 19 17 21 24 23 17 20 21 18 18 17 16 15 13
64 66 68 65 62 55 50 46 47 45 42 38 36 30 27 28 25 22 15 21 15 14 6 4 9 9 13 12 18 18 20 20 22 25 23 21 21 20 19 19 17 13 13 13
69 72 69 66 62 56 51 53 52 52 48 43 42 35 30 30 27 23 17 22 19 15 8 14 6 9 15 15 19 20 22 21 23 25 24 22 22 20 19 17 15 14 11 11
65 73 72 67 62 62 60 58 55 58 53 54 45 36 33 31 28 30 27 32 29 26 20 13 10 15 18 17 19 24 26 25 24 24 24 22 22 23 21 16 14 15 13 9
79 83 78 71 75 68 70 65 63 63 57 52 45 38 38 34 35 42 36 33 30 31 24 29 17 16 21 23 20 27 27 28 26 24 23 23 23 22 21 17 14 14 13 10
83 82 77 77 77 72 72 68 65 63 55 44 47 40 40 43 44 43 41 37 32 32 31 27 21 22 18 25 25 26 27 29 29 27 25 24 23 21 20 17 15 13 12 11
92 90 81 81 79 76 73 69 62 58 55 51 51 41 51 52 48 45 43 42 39 35 35 32 26 24 22 25 29 25 28 32 33 30 26 25 23 22 21 19 17 15 14 11
97 91 92 87 83 81 77 66 68 65 61 56 49 53 57 56 50 44 39 39 41 39 38 36 33 26 27 25 29 32 26 32 37 34 32 28 26 23 23 22 20 18 15 12
99 95 93 91 91 87 73 74 70 63 62 55 52 56 56 57 50 45 39 33 41 43 43 41 38 33 34 25 26 34 31 31 39 39 36 33 28 26 26 25 23 19 17 16
103 95 90 99 95 82 80 75 72 73 67 58 59 58 64 54 49 43 38 35 37 53 53 47 43 38 31 27 29 32 35 33 44 45 40 35 33 30 30 27 24 22 19 18
107 97 102 92 80 86 88 83 80 71 61 58 62 64 58 49 46 43 39 35 38 51 54 49 48 41 34 30 30 36 38 38 44 45 41 38 36 35 33 30 26 23 19 20
108 103 102 91 92 94 90 79 74 71 71 65 65 62 55 52 50 48 44 39 42 47 52 52 52 46 38 36 31 35 39 42 44 46 45 43 41 38 37 33 27 25 22 22
104 100 101 95 90 85 78 76 71 70 69 67 62 66 55 53 52 50 48 45 42 48 53 51 53 51 43 42 36 34 38 43 44 46 47 46 44 41 39 35 32 28 24 23
97 98 103 96 90 85 78 74 73 68 65 64 69 65 58 58 54 50 52 48 42 45 48 49 52 58 51 45 39 33 36 39 47 48 49 47 46 44 41 39 36 30 28 28
95 98 95 92 92 87 80 76 70 67 67 71 73 66 61 59 56 53 55 50 46 44 45 48 49 53 52 45 42 38 37 39 46 51 51 50 48 47 42 42 38 34 33 31
98 93 90 95 95 90 85 82 75 71 75 76 76 69 63 63 58 55 55 49 43 42 42 47 51 50 56 52 48 42 38 39 44 50 53 53 51 48 44 42 40 38 35 34
98 93 90 94 97 94 89 85 81 82 85 84 78 77 73 67 63 55 51 42 40 38 38 38 47 53 57 57 50 45 40 36 40 44 53 53 53 50 45 44 43 41 36 34
99 96 94 95 95 94 91 87 86 84 85 84 81 81 71 66 58 53 49 43 43 40 41 38 39 46 55 58 54 49 45 42 37 38 51 56 53 52 48 48 46 43 38 39
97 95 94 93 96 95 95 93 92 86 85 86 87 84 73 65 58 54 50 46 46 43 38 37 36 40 48 53 57 53 48 45 43 40 44 52 51 51 51 48 46 44 43 42
96 97 100 95 96 94 95 97 92 92 89 86 88 86 72 61 55 52 50 48 47 44 40 38 36 34 40 47 54 56 52 50 51 47 43 44 50 52 52 50 47 50 49 48
94 94 95 93 95 93 94 97 96 95 91 88 88 85 67 57 55 53 51 47 49 48 46 44 41 34 34 42 51 56 56 53 51 48 45 43 41 44 48 51 52 52 50 49
95 96 96 97 95 92 94 96 96 90 88 87 89 83 69 60 58 56 54 54 51 49 48 45 43 40 34 33 43 52 58 59 56 53 51 49 47 45 46 47 48 49 48 47
94 96 98 97 93 91 91 93 92 94 91 89 87 82 73 66 62 59 56 54 55 55 52 48 45 45 44 41 39 41 47 54 57 56 54 51 50 50 50 51 51 50 49 49
93 95 98 98 95 91 90 92 91 94 94 92 87 82 75 67 65 63 60 57 58 60 55 52 51 52 50 48 44 42 40 39 40 45 53 59 59 57 56 56 55 55 55 56
90 96 98 100 98 96 92 91 94 92 92 94 90 85 81 73 68 66 66 64 62 63 61 59 61 58 57 55 52 49 46 43 39 38 39 40 44 52 58 60 61 62 63 64

GFSCGP_250_spd_039.txt.gz
Wind_Speed
61 57 52 57 59 56 53 48 43 38 28 27 24 19 19 20 24 24 23 17 18 15 12 7 3 10 11 10 10 17 13 14 19 22 20 19 21 22 22 22 23 19 16 13
65 53 61 64 60 59 55 53 49 45 34 32 27 27 25 21 20 22 20 17 14 15 8 5 1 8 9 12 14 15 15 15 22 23 22 19 19 23 21 19 18 16 13 11
67 66 66 67 64 63 58 56 56 55 46 41 31 29 29 26 23 25 22 18 19 20 7 3 3 8 11 12 16 13 16 17 21 25 23 20 20 20 18 17 15 14 11 10
73 72 70 70 64 64 61 63 64 62 51 47 40 32 30 26 25 28 26 19 16 16 11 10 6 5 9 12 19 17 18 17 23 25 22 21 22 19 16 17 15 13 12 11
73 76 72 70 67 68 67 66 66 68 58 56 45 39 34 31 30 31 29 20 21 21 19 14 10 6 8 11 18 20 19 20 23 25 22 22 22 19 18 19 14 14 13 11
84 87 78 73 78 73 77 73 70 70 67 55 48 40 34 32 39 35 30 25 21 22 22 18 19 11 9 17 18 21 21 23 22 24 23 23 23 22 21 19 16 16 14 12
96 90 85 83 81 78 78 76 72 70 61 45 49 42 36 39 38 42 34 30 28 26 30 23 22 18 15 16 23 24 23 24 24 22 24 24 23 22 21 18 15 15 15 14
102 101 88 84 81 77 76 76 69 65 60 49 53 42 42 46 48 43 38 35 33 28 30 28 23 24 20 19 26 26 27 25 26 26 25 26 24 22 22 19 16 16 17 16
105 99 99 97 87 83 78 72 73 71 66 61 55 52 57 52 47 45 42 38 35 33 32 33 29 25 22 21 25 30 30 28 28 29 30 29 26 24 22 21 19 19 17 15
109 100 101 96 98 97 83 81 77 68 65 60 57 51 56 52 49 49 44 40 38 39 37 35 35 31 34 29 26 30 33 33 31 31 33 33 29 27 25 23 23 21 18 16
112 104 104 104 106 93 87 78 76 78 72 63 56 51 61 57 55 50 46 45 43 40 41 39 40 38 36 31 29 32 35 38 35 37 34 36 34 31 28 27 27 23 21 21
111 108 111 109 99 95 94 88 84 74 64 62 61 61 67 64 58 52 46 45 45 42 43 42 43 43 40 36 34 33 36 40 42 39 36 36 37 35 33 31 28 27 25 23
111 109 114 111 105 99 98 90 80 74 74 66 64 73 63 61 56 50 45 45 46 46 44 40 40 45 44 40 38 35 35 38 43 41 38 36 39 39 37 33 30 30 27 25
110 110 113 110 105 101 96 91 84 77 76 69 65 74 69 66 63 58 51 49 52 50 48 43 41 47 48 45 43 38 34 37 41 43 41 40 42 43 40 36 33 34 31 28
108 108 109 108 106 97 91 90 86 79 71 67 77 72 71 70 66 57 51 51 52 52 49 45 43 47 51 51 46 42 37 34 41 42 43 43 41 44 43 40 37 37 35 32
104 108 105 102 104 97 95 95 88 83 77 75 81 76 77 69 63 56 54 52 53 54 51 45 45 44 47 50 51 50 43 39 37 42 45 43 43 45 47 43 40 39 39 36
104 105 102 100 105 104 103 95 89 85 80 78 79 81 74 70 66 57 55 53 53 53 49 43 43 43 44 49 55 56 47 42 39 38 41 45 47 47 45 43 44 42 40 38
100 103 103 104 103 107 104 97 93 86 80 78 80 79 74 70 63 56 57 54 52 49 48 45 44 44 45 47 51 56 52 47 42 36 39 41 48 51 48 47 45 44 41 40
102 104 108 108 105 106 106 101 95 87 83 79 82 78 73 70 62 57 56 52 51 48 46 46 47 47 45 48 50 55 56 49 44 40 38 40 43 47 51 50 47 43 42 41
101 103 106 107 105 104 105 100 94 91 87 81 84 77 71 67 61 55 54 51 50 47 47 48 46 44 42 46 48 49 55 53 49 47 45 40 39 41 48 52 50 46 43 44
101 101 107 107 103 100 101 100 96 96 88 85 83 79 70 65 60 56 55 51 51 49 49 50 47 44 42 42 47 51 55 59 58 52 48 45 40 38 41 48 52 50 48 47
99 101 106 105 100 96 97 98 96 92 88 85 84 81 71 63 60 57 56 53 51 50 50 51 48 45 43 43 45 48 52 57 60 56 53 50 47 41 40 42 51 51 50 52
94 98 105 104 101 96 92 93 93 92 89 86 85 82 72 64 61 59 58 55 53 54 54 54 51 49 45 43 42 44 48 53 57 59 57 54 50 46 41 36 39 49 53 54
93 97 101 99 100 97 89 90 92 91 88 87 86 81 74 69 67 61 60 59 59 59 60 58 55 53 51 48 44 44 46 50 55 57 56 55 53 50 48 46 44 44 47 50
88 93 98 99 98 94 89 88 89 91 89 89 87 83 78 73 72 67 63 62 63 63 63 62 59 57 53 49 48 46 44 45 50 55 57 56 55 52 50 49 50 49 49 47
87 91 96 98 99 97 92 89 87 88 89 90 86 85 80 77 75 73 69 66 65 67 65 63 62 60 57 55 50 50 46 42 40 43 50 56 58 58 56 56 55 54 54 54

GFSCGP_250_spd_042.txt.gz
Wind_Speed
61 58 52 55 56 56 48 47 45 39 35 37 34 28 20 12 17 18 21 15 16 14 9 11 6 5 8 10 8 13 12 11 13 14 18 18 19 20 21 19 16 15 13 12
63 58 68 61 58 57 54 52 51 46 38 37 34 30 22 19 15 15 19 19 15 11 7 3 5 7 8 10 12 14 13 14 17 17 18 20 19 18 16 18 14 12 11 10
68 70 70 68 64 61 58 56 58 57 46 43 37 32 27 22 20 24 22 20 11 11 8 6 3 7 8 11 10 13 12 13 15 19 19 20 19 18 18 17 15 11 9 7
74 76 72 72 67 64 61 60 66 66 54 48 43 38 32 24 26 24 21 20 16 11 11 13 7 1 4 8 12 14 15 14 17 19 20 21 20 21 19 16 14 10 8 8
81 80 76 74 72 70 68 67 68 71 60 53 48 40 39 28 28 30 27 23 16 13 9 18 8 7 4 8 14 12 15 16 18 22 22 20 19 20 18 15 12 10 9 8
91 87 81 76 79 77 83 72 71 74 66 52 47 42 44 36 37 35 28 25 20 20 16 18 12 12 6 14 13 15 15 16 16 22 23 19 21 20 17 15 13 11 9 8
100 94 89 84 86 84 83 78 76 75 63 44 48 43 45 46 41 38 35 30 20 21 19 19 22 12 9 10 17 15 16 18 17 19 23 23 23 21 19 17 15 13 13 11
108 103 100 92 88 87 84 82 76 70 61 48 51 42 42 50 48 43 40 33 23 23 22 23 24 19 15 16 18 20 20 19 21 20 21 23 21 21 21 18 16 13 13 13
114 107 110 102 97 98 89 84 78 76 66 57 50 48 51 55 50 53 45 38 32 30 31 30 31 21 16 18 21 24 22 24 23 25 23 24 22 22 21 19 19 17 16 15
119 114 114 108 105 102 96 86 86 75 69 59 54 51 56 56 57 57 49 42 39 35 35 31 29 24 21 19 24 26 23 24 25 26 29 28 24 23 23 23 23 21 19 18
118 119 118 114 111 106 102 91 82 77 75 62 56 51 61 61 62 58 52 47 41 36 35 33 31 30 25 21 25 26 24 23 29 29 29 28 28 27 28 25 26 25 22 20
110 113 119 115 112 110 106 97 90 81 68 65 62 59 66 68 66 62 56 49 43 38 36 36 35 32 29 27 26 31 30 31 32 32 31 32 31 31 30 29 28 27 24 25
105 108 116 117 118 114 109 104 93 82 79 72 66 63 72 73 66 63 55 49 44 41 39 39 36 30 32 31 30 33 33 32 35 33 33 35 35 34 34 34 32 29 29 28
104 105 112 119 119 116 109 106 99 90 82 74 67 72 74 73 65 64 56 51 47 44 42 40 38 34 36 35 34 34 36 35 32 36 39 38 40 39 37 36 36 33 33 33
100 105 112 122 118 116 111 106 99 92 81 76 72 75 74 71 67 65 59 56 53 49 46 43 41 42 41 40 38 37 38 36 34 33 38 41 42 42 40 40 39 37 36 35
87 104 110 121 117 115 112 107 100 93 87 81 79 79 75 74 68 64 60 54 51 49 45 42 41 44 42 43 43 40 41 40 38 37 35 37 39 41 44 44 42 42 40 38
80 100 110 119 119 118 114 106 100 94 90 86 85 81 77 74 68 63 57 54 56 51 47 44 44 45 44 43 45 43 44 44 44 40 38 36 36 43 42 43 44 43 42 41
80 96 114 122 117 116 109 107 101 96 92 88 88 83 82 75 67 63 59 60 60 53 49 47 46 46 45 44 44 44 44 46 47 45 42 41 37 37 41 44 46 45 44 42
70 90 116 120 114 112 111 109 104 98 93 91 93 87 83 75 67 63 62 60 59 56 51 49 48 47 45 44 43 44 45 46 47 47 45 44 43 36 37 42 42 47 45 44
72 96 116 116 114 113 109 105 103 95 93 93 96 90 84 77 70 65 62 59 58 55 53 51 49 47 47 48 45 44 47 47 48 50 49 47 44 41 38 38 38 37 46 46
75 103 115 115 110 108 104 102 100 100 96 93 93 91 86 78 72 66 63 60 57 56 55 54 51 49 48 47 46 45 46 50 52 51 53 53 48 45 42 36 34 37 41 47
81 100 109 112 108 106 103 99 101 99 95 94 92 90 86 81 75 68 64 61 58 57 56 54 51 51 48 47 48 46 45 49 49 50 50 53 51 49 46 41 38 35 39 45
81 95 108 110 108 103 102 98 96 97 94 94 91 89 83 79 74 69 64 62 59 57 55 54 54 52 49 48 48 45 44 42 45 49 51 52 54 53 51 48 45 42 37 41
84 95 104 103 99 98 99 96 93 95 95 94 90 88 82 77 73 67 64 62 62 57 57 56 56 55 51 49 48 47 46 44 46 46 47 48 51 54 56 54 51 48 46 42
79 90 97 98 94 95 95 92 91 92 94 93 90 89 84 79 75 69 65 63 63 62 60 59 58 56 52 52 51 50 47 45 45 47 48 50 53 54 54 56 55 54 54 53
75 82 81 86 91 94 94 93 90 90 92 91 91 91 88 83 77 73 69 65 61 60 59 61 59 57 54 54 55 53 50 49 48 47 47 47 49 53 54 55 58 58 57 56

GFSCGP_250_spd_045.txt.gz
Wind_Speed
61 58 56 61 56 55 49 48 43 37 33 29 28 28 25 24 22 21 20 18 14 12 6 7 8 5 6 6 7 8 11 12 16 19 16 18 19 19 17 14 13 10 10 11
64 61 68 64 59 58 55 50 51 43 38 33 29 28 23 23 18 19 22 22 15 11 8 4 0 4 6 5 8 10 11 14 17 19 19 19 20 19 16 15 15 9 7 9
72 71 71 70 64 61 59 58 58 54 46 41 35 30 29 25 25 21 21 23 18 12 12 8 6 1 5 5 6 8 9 11 17 18 20 18 19 18 16 15 12 7 4 5
79 79 75 73 69 67 62 65 67 63 54 48 41 35 30 26 28 23 23 18 19 17 11 11 11 9 3 5 6 9 11 10 15 18 19 20 21 20 17 16 11 6 3 4
89 87 82 77 76 74 72 69 70 68 61 54 45 41 35 26 29 25 24 22 22 18 14 14 16 10 8 1 5 7 11 11 14 19 21 21 20 18 17 14 11 9 4 3
99 95 88 81 85 79 81 76 77 74 67 52 50 44 38 32 37 30 27 26 24 23 17 16 19 11 6 5 5 8 13 13 13 20 21 20 20 21 18 14 12 9 6 4
105 102 97 92 89 86 85 82 81 78 68 51 55 46 45 43 40 38 32 28 26 21 17 18 18 16 10 8 9 6 11 16 16 16 19 23 21 21 20 16 15 10 9 7
111 109 104 101 95 94 91 89 84 78 69 58 61 46 47 50 47 44 38 33 24 24 21 24 22 23 13 10 11 8 11 16 18 16 17 22 22 22 19 18 16 13 11 11
111 113 112 109 104 101 97 87 82 84 77 66 59 54 55 56 51 48 44 36 33 31 27 26 26 28 22 15 15 14 15 17 20 20 18 20 20 23 22 19 18 16 13 13
111 113 118 113 112 108 104 93 93 87 80 68 62 59 57 61 57 55 50 45 41 35 31 29 30 27 30 23 17 14 17 21 19 22 24 23 22 22 22 23 22 20 19 16
105 114 118 120 118 116 110 109 96 88 81 72 66 61 63 66 67 62 57 53 47 42 37 35 36 31 32 29 21 17 19 21 23 25 29 28 26 25 26 24 22 22 21 18
104 112 117 122 123 121 119 112 100 95 81 76 71 68 72 68 70 66 61 55 51 45 42 37 34 33 32 28 23 21 21 21 23 24 28 31 29 28 28 26 24 24 23 20
103 107 114 123 125 125 123 116 109 96 88 82 77 69 73 73 72 72 64 57 52 46 43 37 33 34 32 30 27 24 25 27 28 25 27 30 32 32 31 28 26 26 25 23
96 103 110 123 127 129 125 121 115 103 95 83 78 75 78 78 71 67 65 61 55 47 44 39 35 35 33 31 29 28 28 29 29 29 30 33 35 36 34 32 31 28 27 27
87 94 104 117 126 129 123 120 116 103 94 86 80 76 82 84 78 74 68 62 54 47 43 40 37 37 37 35 33 32 31 31 33 32 32 33 36 34 35 36 35 33 32 31
79 85 98 110 123 123 119 121 115 104 96 88 83 81 86 86 81 74 65 58 53 48 45 44 46 44 41 40 39 38 35 35 35 36 37 35 33 34 37 36 39 37 36 35
69 80 90 102 119 119 117 117 113 105 101 93 86 85 87 87 81 76 70 61 56 52 50 50 49 47 46 43 41 40 38 35 36 38 38 36 35 31 34 36 38 40 40 39
65 75 81 95 112 108 106 116 115 108 100 97 90 90 90 83 79 77 71 64 58 57 55 55 51 48 46 44 40 37 36 35 36 37 40 40 38 36 31 32 40 38 39 43
60 68 76 87 101 104 107 116 112 109 103 100 96 96 89 80 81 80 72 65 61 62 60 56 52 49 47 45 40 39 40 39 38 39 41 42 41 39 38 37 34 35 40 40
50 60 69 80 91 100 95 107 109 109 106 102 101 99 91 83 84 79 73 66 66 65 63 55 55 53 49 44 42 41 40 41 41 41 43 43 44 43 42 40 36 33 35 40
46 54 66 75 88 95 95 105 109 113 106 103 104 101 94 84 84 80 74 69 67 68 59 56 56 53 50 48 45 43 41 43 44 43 45 44 44 45 44 42 38 38 36 36
47 55 63 75 89 96 96 105 110 107 108 104 103 100 95 89 85 81 77 73 70 65 60 58 56 54 51 49 46 45 43 46 47 45 44 44 46 46 46 45 42 41 41 40
45 55 64 76 93 95 95 102 106 107 108 106 104 99 96 92 87 83 80 76 72 67 63 61 58 56 53 51 49 47 45 46 48 48 48 46 47 47 47 49 49 47 47 45
53 61 66 76 92 89 97 100 104 106 107 106 103 98 97 92 88 85 82 79 73 68 67 64 61 58 54 53 50 47 46 51 50 47 46 47 48 48 49 50 51 53 53 51
51 61 74 80 89 88 95 100 102 104 104 104 101 100 97 92 88 85 82 77 74 71 71 67 64 60 57 54 52 51 50 51 51 44 46 45 44 46 47 50 53 56 56 54
55 62 68 81 85 95 98 103 102 103 102 101 100 101 98 91 89 84 84 77 76 73 70 68 66 64 63 60 56 52 51 51 49 45 45 42 40 42 45 47 49 52 55 56

GFSCGP_250_spd_048.txt.gz
Wind_Speed
60 58 60 63 58 53 48 46 46 41 37 38 42 42 40 40 39 35 30 29 25 20 14 10 8 4 7 7 6 10 12 15 16 17 18 19 20 18 17 18 16 15 15 15
64 62 66 66 63 59 54 50 51 48 40 34 31 28 25 27 26 25 27 25 22 18 16 11 7 7 10 8 7 9 13 15 19 20 19 20 19 18 16 16 14 13 12 12
71 70 69 68 68 66 62 56 58 56 47 40 33 29 25 24 25 25 22 22 26 20 16 15 8 9 10 11 9 10 12 12 18 21 17 18 20 18 15 15 12 12 9 10
79 76 76 73 70 70 68 65 63 61 55 48 39 32 29 26 27 23 24 23 26 19 16 17 14 14 10 11 11 12 13 12 15 19 20 18 20 20 17 15 12 10 8 8
89 86 82 79 77 75 74 74 71 67 61 54 41 37 34 29 29 26 27 25 27 22 17 16 19 18 15 9 10 11 12 12 14 17 22 22 21 19 17 15 12 9 8 6
94 92 90 87 84 82 80 79 77 75 68 57 49 42 37 30 35 33 28 26 29 25 21 18 22 19 13 12 11 14 10 12 14 19 20 21 19 19 18 17 13 10 9 8
94 94 97 96 92 89 87 83 81 81 74 56 57 50 45 39 42 37 32 30 24 24 24 21 20 20 15 18 13 11 15 15 14 18 20 21 23 21 20 18 14 11 9 7
96 95 99 98 99 97 93 89 86 83 78 62 66 53 52 50 48 42 35 33 24 27 27 25 26 25 19 18 16 12 10 14 17 14 18 20 21 22 22 18 16 14 10 8
101 104 98 99 101 104 100 96 84 87 86 74 70 62 63 58 55 48 42 36 33 32 29 30 29 26 25 21 18 16 13 14 16 17 14 20 21 22 21 19 19 17 13 12
105 111 107 100 104 104 109 99 100 95 89 80 76 70 63 64 62 56 51 45 42 39 35 33 36 31 27 24 20 17 15 16 17 14 18 19 22 21 19 22 22 19 18 15
98 104 105 106 108 106 111 117 110 98 91 84 79 72 67 71 68 63 59 54 50 45 42 40 36 33 26 23 24 21 21 19 19 21 23 25 24 25 24 26 24 23 22 20
95 100 108 110 108 115 110 118 113 106 95 87 85 81 76 73 71 69 65 62 57 51 48 43 39 32 30 29 28 26 23 24 24 24 25 26 28 25 28 27 27 26 25 24
87 93 100 106 113 120 120 120 122 114 103 93 88 81 77 73 76 76 70 68 65 59 53 47 43 39 37 32 32 30 25 23 24 25 25 24 25 30 30 30 29 29 27 26
78 85 94 103 112 122 120 123 125 119 108 100 90 87 82 80 83 80 75 74 69 61 55 50 46 41 37 37 34 33 30 25 26 28 26 24 25 29 32 32 31 30 30 29
73 78 90 102 110 108 115 124 125 119 110 101 94 89 85 83 86 85 80 76 70 65 58 51 49 45 42 41 40 38 34 29 29 31 32 31 31 29 28 31 34 34 33 31
66 73 83 94 107 105 110 120 126 121 113 107 98 89 85 92 89 88 83 75 70 66 58 56 52 48 44 43 44 41 38 34 33 33 34 33 32 30 29 32 35 36 37 35
57 67 73 84 98 106 109 112 121 120 115 110 100 94 95 96 89 87 80 77 73 67 59 55 52 50 49 47 47 43 42 37 36 34 34 34 35 33 32 32 34 37 37 34
51 61 65 73 92 97 95 105 116 119 117 113 109 100 96 99 94 87 84 79 71 68 62 60 55 54 56 53 49 46 41 38 37 34 33 34 36 38 37 34 33 36 38 38
45 55 60 69 88 85 97 100 111 118 114 114 110 103 97 100 99 94 86 83 71 71 66 62 59 60 60 54 51 48 44 40 38 35 35 34 35 37 39 38 40 38 34 35
38 46 55 68 70 71 88 93 100 114 115 115 111 108 101 102 98 95 86 82 76 73 71 66 65 66 61 57 54 50 46 42 41 39 39 38 36 36 41 42 41 40 38 35
30 40 49 53 57 66 77 89 94 104 110 113 113 109 107 105 101 93 86 81 75 73 72 70 71 68 66 61 56 52 49 47 46 39 38 38 37 38 39 40 41 42 40 40
26 33 42 50 59 66 75 82 90 98 106 115 116 113 113 106 98 92 90 79 75 74 78 78 76 71 65 59 58 57 54 51 46 41 40 39 40 39 38 40 41 42 42 42
28 33 38 44 52 61 69 71 86 98 108 116 115 117 114 107 92 90 87 82 77 75 76 80 79 70 64 64 61 61 54 50 46 44 43 39 41 42 40 41 41 43 44 45
28 33 36 43 49 54 61 73 87 98 107 116 117 118 112 104 97 89 89 88 84 77 78 81 73 68 69 67 63 59 55 53 49 46 45 43 42 44 45 43 43 43 44 46
31 35 39 45 48 54 64 75 84 95 105 115 118 116 111 105 100 93 91 86 83 80 74 75 71 71 69 67 63 60 58 55 53 49 46 44 44 42 43 43 43 45 46 47
40 41 42 48 50 54 63 72 77 92 101 114 116 115 109 107 102 97 94 88 84 81 75 71 72 73 70 67 64 62 60 59 54 50 47 46 42 42 43 42 42 45 48 50

GFSCGP_250_spd_051.txt.gz
Wind_Speed
61 61 60 63 59 56 50 50 51 48 47 45 47 44 20 37 45 48 45 41 38 32 29 19 14 11 10 9 8 9 13 18 17 18 16 18 15 16 17 20 19 19 18 17
62 62 66 67 64 61 56 54 52 49 44 40 39 41 50 53 49 47 44 40 36 30 23 17 15 9 13 10 10 11 15 18 20 20 22 19 14 12 14 15 16 16 15 16
68 71 69 68 67 66 62 60 58 54 48 43 38 34 33 31 31 34 33 33 28 23 21 19 16 12 16 15 13 11 15 16 20 20 22 21 18 15 13 13 13 12 14 13
74 75 72 71 69 71 69 67 62 59 54 49 42 37 30 27 27 28 27 25 23 21 24 19 15 13 16 17 14 13 16 16 19 21 18 21 22 17 15 12 10 10 12 12
83 82 78 75 75 74 72 73 68 64 61 56 46 40 32 28 25 27 27 25 19 26 23 23 19 17 19 20 18 14 16 16 19 22 21 21 23 20 16 13 9 6 9 10
90 88 85 83 80 79 78 75 77 70 68 57 53 45 40 33 31 32 29 25 22 27 27 24 23 22 13 17 22 20 18 15 19 22 26 22 21 20 17 15 13 9 7 7
90 91 92 90 89 85 83 80 77 80 75 61 62 52 46 42 37 35 32 29 25 29 28 26 26 27 18 14 15 20 22 18 18 23 23 24 21 21 19 17 14 10 8 7
92 92 91 93 91 91 88 86 83 79 78 65 69 56 50 50 45 37 32 34 31 33 33 29 28 29 23 19 17 17 18 21 19 19 22 22 22 22 21 19 16 12 9 9
98 99 93 90 90 94 92 96 84 84 83 75 75 70 63 58 53 51 52 41 34 38 39 32 29 30 27 24 23 18 16 18 18 16 17 22 22 23 22 19 18 16 13 12
103 99 98 96 95 94 98 92 96 92 88 82 85 75 66 64 60 58 52 44 42 43 43 37 35 31 31 27 27 22 19 18 19 16 14 19 21 22 21 20 20 18 18 14
105 103 103 102 96 100 96 96 101 101 95 88 87 80 74 70 67 65 58 53 49 50 44 44 41 35 32 29 26 27 24 20 21 23 22 19 22 23 21 23 23 22 21 19
104 103 107 97 104 108 104 103 104 106 98 91 88 87 81 80 74 72 68 61 55 54 51 46 43 38 34 35 31 29 23 22 22 24 26 26 24 23 27 26 25 27 25 24
97 96 101 102 108 108 111 104 105 103 104 102 96 89 87 88 82 76 74 67 64 60 53 49 43 39 41 37 35 33 29 24 19 23 27 27 27 27 29 30 29 29 27 27
85 92 99 100 108 115 116 113 115 113 112 109 101 98 97 91 81 79 78 74 71 66 60 56 49 46 44 41 40 40 35 31 25 23 26 29 28 29 30 28 29 30 28 26
82 85 90 95 104 106 111 111 113 111 105 108 106 108 98 97 93 91 91 83 77 74 68 62 53 50 49 45 40 38 38 38 31 29 28 30 32 29 27 27 29 31 30 29
77 77 85 88 96 102 105 110 117 120 114 108 111 108 103 100 92 90 92 85 79 77 71 66 58 55 52 49 44 38 38 40 36 35 33 30 32 31 30 28 28 29 31 31
70 73 78 78 90 96 102 108 114 118 119 116 112 108 110 97 95 92 96 89 86 80 75 70 66 59 55 53 49 45 44 43 40 39 35 32 31 34 36 36 32 30 33 31
62 70 76 75 85 92 87 101 113 116 119 120 115 115 114 107 105 101 103 96 88 79 75 74 67 64 61 57 53 51 46 45 43 41 39 35 31 34 34 35 37 35 34 33
52 58 63 70 78 75 82 93 100 112 111 115 111 112 114 112 109 107 104 95 89 85 84 79 73 70 65 60 57 56 52 48 45 46 43 40 37 33 33 34 37 39 38 34
42 48 52 64 67 68 70 88 93 99 104 110 114 116 116 118 115 104 107 99 94 89 84 77 75 72 68 65 63 60 57 53 49 49 48 42 36 33 34 35 36 37 38 38
30 37 45 53 56 62 75 84 78 85 88 110 120 123 121 125 106 115 108 105 96 90 86 81 77 74 71 71 69 66 62 56 56 53 47 43 40 38 39 36 36 37 39 40
20 25 34 40 49 60 65 68 69 78 94 103 121 127 122 121 116 111 108 102 94 91 87 83 78 76 76 74 72 69 63 63 57 54 50 45 44 41 39 40 39 40 40 42
12 19 24 32 43 49 55 59 65 70 88 96 114 124 132 125 115 112 107 100 98 94 90 84 79 77 76 74 74 71 68 63 57 53 51 50 47 42 42 42 41 42 42 42
12 12 19 26 34 39 48 53 57 66 83 95 102 122 122 120 116 114 110 108 102 97 94 89 82 80 77 77 77 72 66 63 59 59 55 52 48 47 45 43 42 41 43 42
16 18 19 28 30 35 41 49 53 70 87 90 98 115 119 119 118 114 108 106 100 96 95 91 83 80 77 78 75 68 65 65 64 61 57 56 53 52 48 44 43 42 40 42
17 22 21 27 29 32 38 45 54 67 83 85 96 110 119 121 120 115 106 102 96 97 97 92 85 79 80 79 75 69 67 70 67 62 61 59 58 55 49 47 46 44 44 44

GFSCGP_250_spd_054.txt.gz
Wind_Speed
65 61 58 59 60 57 52 52 54 57 56 53 49 45 40 40 42 39 31 42 35 36 37 34 29 23 12 12 12 9 12 17 19 17 19 16 16 14 15 15 17 16 15 15
66 64 67 65 62 61 57 54 54 54 54 54 52 49 45 37 36 35 37 31 36 36 42 36 29 19 14 13 15 12 14 19 20 19 20 17 16 16 15 15 15 14 14 14
69 70 70 68 67 64 63 61 60 57 53 51 50 46 45 31 37 43 47 53 44 40 39 30 23 18 15 17 17 15 16 18 20 22 20 21 18 18 14 12 13 13 11 10
72 75 73 70 68 67 66 67 65 61 55 51 47 43 43 45 32 36 41 31 28 28 27 22 18 18 15 18 20 18 18 18 21 20 23 22 20 17 16 12 11 12 10 9
78 77 75 73 73 71 69 72 70 67 62 54 46 41 38 36 40 38 36 25 23 23 20 18 21 17 16 20 22 19 19 18 22 23 24 23 21 19 17 14 9 10 8 8
84 83 80 77 77 74 75 73 72 70 68 56 50 45 39 34 44 42 35 26 24 22 21 25 24 18 16 22 23 23 22 20 22 26 25 24 23 20 17 14 10 7 7 6
85 87 86 85 81 79 77 77 74 73 73 59 61 52 47 44 42 36 36 41 30 23 25 27 31 21 19 21 17 21 24 24 24 28 28 23 22 22 19 15 12 8 7 6
87 86 87 88 86 88 84 82 79 74 71 65 69 57 53 52 49 51 34 29 28 28 26 28 31 27 23 20 17 16 20 23 25 30 30 28 24 22 20 17 15 11 8 8
89 92 88 86 90 90 89 91 81 80 76 72 73 67 62 59 55 50 51 43 41 30 28 32 30 30 29 24 20 16 17 21 21 23 27 28 28 25 23 19 17 14 11 10
93 91 94 92 89 87 92 85 89 86 82 75 76 71 70 63 60 55 50 41 47 50 22 32 32 31 34 28 25 21 18 21 20 18 22 26 28 26 24 22 20 18 15 14
98 94 95 97 92 91 88 88 95 94 89 81 78 76 76 73 67 62 52 54 57 54 64 46 29 38 32 31 31 27 23 21 21 25 24 26 28 28 26 25 24 22 20 19
97 96 97 94 91 94 95 96 97 99 97 89 84 81 81 84 77 69 59 57 57 51 49 54 50 43 35 34 34 35 28 28 24 22 25 26 26 24 26 27 26 25 24 23
99 94 94 98 96 97 97 100 102 100 96 95 90 85 86 87 84 77 73 72 58 57 53 69 50 47 41 40 38 35 36 31 26 22 23 24 28 29 29 29 28 26 25 25
100 100 96 98 101 110 109 109 110 105 99 98 94 94 95 98 95 88 81 82 76 69 59 63 37 32 47 46 43 39 38 35 29 24 21 24 28 29 30 30 29 28 26 24
91 99 97 98 104 104 100 104 105 104 100 101 99 103 101 105 97 89 87 84 83 77 75 76 53 41 39 55 48 42 39 38 36 30 25 25 26 26 26 27 28 29 27 26
82 85 92 99 104 101 101 104 110 110 105 106 105 105 106 115 97 93 90 91 88 84 82 83 71 64 55 53 49 44 42 41 40 37 34 29 26 25 28 29 29 29 29 28
76 81 87 85 95 105 104 103 106 106 107 111 106 99 111 113 101 99 96 96 92 87 82 76 72 63 48 50 50 50 49 47 41 40 39 34 31 29 28 29 29 29 30 30
63 71 80 82 90 97 91 99 106 108 107 110 110 111 118 115 106 106 100 95 94 89 84 80 73 68 46 50 40 61 55 49 47 42 42 39 35 34 32 31 33 34 34 34
51 63 74 74 83 84 87 93 103 112 110 115 120 119 119 117 112 113 108 100 99 99 92 86 80 74 72 71 58 48 55 55 51 46 45 43 40 38 36 35 34 33 33 35
39 48 56 63 72 74 76 85 97 102 104 109 115 119 120 123 119 116 115 107 104 108 100 91 87 83 82 80 80 68 64 62 58 52 51 45 42 41 38 36 33 31 31 34
27 37 43 52 59 61 74 85 90 94 92 108 109 112 117 123 113 114 122 118 110 109 104 94 94 91 88 84 80 71 68 61 62 59 51 47 46 44 42 37 35 35 34 34
22 25 35 44 52 61 67 74 76 80 79 100 107 111 123 128 124 124 127 128 111 108 105 96 98 94 92 87 81 73 69 68 67 62 56 51 50 47 44 41 38 37 37 36
15 20 26 35 46 51 57 64 66 69 76 95 105 109 119 128 130 129 141 122 111 114 107 96 98 96 90 85 79 74 73 74 69 65 60 56 53 50 46 45 43 41 40 39
12 13 16 26 33 41 48 55 58 58 66 86 98 106 113 127 134 135 134 113 112 111 109 104 100 95 92 87 82 80 79 77 71 68 64 60 56 53 48 49 47 46 43 43
5 10 14 17 22 32 39 42 45 48 58 76 90 94 104 119 126 126 118 115 112 115 117 111 100 97 94 88 83 82 80 80 74 70 67 63 58 56 52 55 52 50 48 45
7 7 7 10 18 25 29 34 38 44 55 64 73 80 97 112 124 129 120 115 117 119 118 110 99 98 96 90 87 84 83 79 75 74 69 66 60 60 59 59 57 53 51 50

GFSCGP_250_spd_057.txt.gz
Wind_Speed
63 61 59 60 58 57 55 59 57 57 54 50 44 42 38 34 31 20 26 36 33 33 28 21 23 27 21 12 7 8 14 16 16 20 18 15 13 14 13 14 14 13 11 14
64 62 66 65 62 58 56 55 56 59 58 56 49 46 41 38 34 22 32 38 43 42 34 28 33 24 19 10 10 11 15 17 16 19 19 18 11 12 13 13 12 11 10 11
68 70 70 68 67 64 59 58 59 58 56 53 50 50 48 44 40 37 45 39 39 38 37 38 24 16 16 11 12 14 17 20 18 17 20 19 16 14 12 12 12 11 10 9
73 76 74 72 69 68 64 63 62 63 57 51 49 49 51 49 46 43 43 41 40 35 26 25 15 15 14 13 15 15 19 19 20 22 22 20 18 16 12 11 11 10 9 7
75 77 76 75 74 73 70 69 67 64 59 54 48 45 46 43 45 47 25 26 33 32 19 15 16 17 18 15 17 16 21 20 21 23 24 23 20 17 14 11 10 8 6 7
81 80 78 76 77 76 76 73 71 68 65 54 52 47 47 42 45 49 52 40 39 29 19 15 19 21 21 19 19 16 20 21 22 26 27 26 24 20 17 12 10 9 7 8
90 88 85 82 79 78 76 76 74 71 69 55 61 54 52 48 48 48 44 34 29 24 24 21 21 25 25 21 19 17 16 22 24 27 27 31 28 25 21 17 12 9 8 6
88 89 89 87 84 82 81 81 78 73 64 63 68 56 57 54 52 52 54 50 38 35 27 20 20 27 27 24 20 16 14 19 24 26 30 31 31 29 25 21 17 13 10 9
85 84 91 88 88 89 86 83 78 79 74 75 72 64 64 56 51 56 56 61 44 39 31 26 22 28 29 22 19 17 17 18 23 24 27 31 30 32 29 24 20 18 14 11
85 85 89 91 91 90 93 86 87 82 75 74 72 68 68 65 56 60 54 59 51 44 38 29 28 28 32 27 21 19 18 20 21 22 23 30 31 29 29 27 24 21 19 15
88 88 93 92 91 91 91 92 91 88 80 74 72 69 72 74 68 62 60 59 50 49 48 31 33 32 34 30 28 22 21 23 23 22 21 28 32 33 31 31 28 25 23 19
90 90 95 92 90 89 89 94 94 95 89 83 78 70 79 83 76 68 69 64 60 56 50 55 50 39 37 37 35 27 25 24 24 24 22 25 29 30 33 32 31 29 28 25
88 94 94 96 96 99 93 93 96 95 95 89 85 79 90 86 83 77 74 67 61 50 56 65 57 49 47 39 37 31 30 29 25 23 23 25 28 31 33 33 33 33 32 30
91 94 94 97 100 102 98 98 100 104 99 94 92 88 91 92 90 86 78 72 64 65 60 62 55 56 46 39 35 34 30 35 31 27 25 26 28 28 27 30 32 32 32 30
93 97 97 96 102 103 99 100 100 99 97 93 94 95 103 98 96 91 83 78 73 69 76 72 71 60 51 45 42 40 34 37 37 32 30 25 25 25 25 27 26 26 25 26
82 85 97 96 101 103 99 102 101 99 94 94 96 95 104 104 97 93 87 82 76 73 78 73 75 74 49 45 43 44 43 42 39 36 35 30 26 23 26 26 26 25 26 26
76 83 88 90 101 105 101 97 100 98 101 99 100 104 108 105 100 95 92 88 85 83 81 77 70 71 57 53 49 38 42 42 47 42 39 37 33 30 29 27 28 28 27 25
62 72 85 88 97 99 95 103 102 106 102 102 105 111 114 106 103 98 97 97 94 88 82 85 79 70 67 57 41 37 43 53 52 48 43 41 40 37 34 30 30 29 28 27
50 58 70 76 91 86 89 95 102 105 103 107 110 113 112 108 104 107 107 102 98 96 88 89 75 66 57 63 55 36 28 63 56 53 50 45 42 41 38 36 32 30 29 29
41 48 53 61 74 76 84 93 102 110 105 111 113 111 108 110 109 111 112 109 105 102 98 91 82 79 74 61 46 64 50 49 58 63 58 52 45 45 43 39 37 34 32 31
29 40 44 52 62 67 75 86 92 95 96 108 109 107 105 112 114 114 118 116 114 107 110 108 100 94 95 82 60 60 67 57 60 66 66 54 51 47 45 41 40 39 36 32
21 27 37 43 51 61 69 80 81 84 90 103 110 107 108 115 119 120 122 124 123 116 114 117 112 106 100 97 84 74 71 72 59 59 61 58 54 50 48 45 43 41 39 35
19 24 31 35 47 54 58 62 68 76 82 95 101 106 108 118 123 125 127 130 129 124 116 116 117 113 104 102 99 93 91 72 71 51 54 55 58 53 51 49 45 43 41 40
18 21 25 29 38 43 48 55 59 64 68 79 93 97 99 110 122 127 132 133 128 124 123 119 119 114 110 109 105 103 100 86 81 73 65 58 58 57 56 52 48 46 45 44
15 18 20 24 26 31 39 47 52 54 56 67 79 88 95 106 122 129 135 134 130 128 127 123 117 117 114 113 110 105 107 103 95 86 76 72 67 66 62 56 52 50 48 47
15 15 18 20 21 25 32 39 45 47 48 55 66 75 88 95 112 127 126 121 129 129 128 127 121 121 117 112 111 109 108 104 99 94 86 79 75 72 67 59 56 55 55 53

GFSCGP_250_spd_060.txt.gz
Wind_Speed
66 63 60 62 60 62 62 61 63 60 56 50 45 42 40 38 36 31 28 27 27 21 22 25 20 19 27 16 6 9 9 16 18 14 15 14 15 13 12 9 9 10 12 14
69 68 70 66 64 61 58 60 63 63 61 56 51 49 44 41 35 33 32 29 26 27 28 23 24 23 26 15 9 11 12 18 20 18 17 16 14 12 12 10 8 9 10 12
72 75 72 70 67 64 62 60 64 66 62 59 57 53 48 46 40 38 37 35 27 30 30 20 18 27 20 12 13 15 15 21 21 23 20 18 15 15 13 10 9 8 8 7
73 76 74 71 71 70 64 66 66 67 62 58 58 56 52 49 46 44 43 37 35 33 33 27 21 24 18 15 16 18 18 23 24 23 23 21 17 16 12 10 8 7 7 5
77 77 75 73 74 73 74 71 69 68 61 58 56 53 56 55 54 51 48 42 36 35 33 30 23 33 20 17 18 19 19 23 27 25 27 23 21 17 13 9 8 7 6 5
81 82 79 77 76 74 77 74 74 71 64 58 57 53 50 52 55 59 55 50 49 46 35 28 30 28 18 20 20 20 21 23 29 29 28 28 24 20 16 12 9 7 5 5
87 83 81 82 81 79 78 76 76 73 67 60 62 58 55 56 55 55 57 54 50 46 37 37 35 21 18 23 20 18 19 19 27 32 31 31 27 24 20 17 12 10 6 5
92 89 85 81 80 81 81 80 78 75 71 69 71 60 60 62 57 54 53 51 51 47 39 38 36 28 21 25 19 19 20 20 24 28 33 33 32 28 24 21 16 11 8 8
91 92 92 88 84 82 81 81 83 81 78 75 76 66 69 68 60 54 53 53 53 51 42 37 39 27 22 29 20 19 21 21 20 25 29 32 33 31 28 25 21 17 12 11
87 88 95 96 92 91 90 86 86 83 81 78 76 73 75 72 66 59 54 54 53 53 44 41 37 27 26 30 27 23 21 23 22 25 25 29 30 32 31 28 24 21 18 17
90 89 89 95 95 97 95 94 90 86 81 79 78 80 79 76 71 66 61 57 50 55 47 42 34 29 30 30 28 24 23 21 24 25 25 29 32 31 33 32 29 26 23 22
93 96 99 94 96 98 100 100 96 91 85 83 79 83 81 81 78 72 65 62 55 58 55 45 44 35 36 33 34 30 29 25 24 23 25 23 30 32 31 32 32 31 28 26
92 94 98 99 101 101 102 104 100 97 94 89 83 89 90 88 81 74 69 69 67 63 60 54 50 39 39 35 34 33 31 27 25 25 23 24 26 33 35 34 32 31 31 30
93 93 98 103 106 102 100 101 102 100 96 94 92 94 92 92 86 79 76 73 73 62 56 57 53 55 46 41 37 35 33 31 29 26 26 27 25 25 29 30 32 32 30 29
93 96 98 103 109 107 104 103 102 101 101 97 95 98 100 96 89 83 81 77 76 70 60 65 62 62 53 46 41 38 35 36 35 33 30 27 25 23 22 27 28 29 31 31
79 91 99 102 108 111 108 105 103 99 104 104 100 100 99 99 93 86 83 82 78 78 69 72 66 68 62 54 49 42 42 40 39 40 37 31 30 28 29 26 25 24 24 23
78 81 87 99 104 109 107 106 109 106 103 107 104 104 99 100 101 92 86 86 83 80 74 75 72 66 62 62 57 47 49 46 42 39 41 37 33 33 31 29 27 27 27 25
70 80 87 89 98 102 101 106 111 109 113 113 107 106 103 97 104 99 92 87 89 86 80 79 76 70 65 66 64 60 55 47 42 45 45 44 37 36 36 32 31 29 30 30
58 65 75 85 93 94 97 107 110 112 114 115 110 109 104 99 104 104 99 93 96 93 91 88 82 78 73 70 65 66 59 53 50 47 52 50 47 39 41 39 33 26 23 22
50 56 58 68 81 89 92 95 101 109 108 110 110 112 109 103 106 108 105 102 97 102 101 96 91 86 80 75 56 68 69 60 57 53 54 56 55 45 45 45 37 30 26 25
38 45 50 56 64 75 82 90 94 94 97 109 111 112 112 110 110 113 112 108 104 106 107 103 98 94 87 79 62 70 75 68 62 61 57 55 55 51 47 43 39 35 31 29
26 32 38 48 54 58 67 76 82 84 86 98 108 112 113 114 114 116 118 115 113 108 113 109 105 102 96 94 85 73 69 69 58 49 57 53 54 53 55 50 41 40 35 32
19 23 29 37 45 47 54 63 69 74 78 93 100 110 112 115 118 118 121 121 118 115 113 116 110 106 101 98 93 82 75 68 66 58 52 56 50 52 53 52 56 43 40 37
18 19 22 27 34 38 45 51 57 63 68 81 93 98 108 115 120 124 123 123 122 118 118 116 115 110 105 103 96 90 85 77 67 71 67 66 59 59 57 60 51 48 43 43
20 21 23 24 26 27 34 41 48 53 57 69 82 91 96 110 120 126 126 127 127 124 123 122 118 117 109 108 103 97 93 86 74 61 74 72 69 64 61 60 56 57 50 46
25 25 24 24 23 23 29 34 40 46 53 61 69 79 90 99 115 121 127 130 132 130 127 128 124 120 116 116 111 102 101 94 91 85 73 74 67 63 67 65 57 59 54 51

GFSCGP_250_spd_063.txt.gz
Wind_Speed
67 65 64 64 66 68 68 67 63 60 57 52 49 47 43 40 37 37 33 30 29 25 20 14 15 11 15 20 13 11 9 12 14 11 13 14 14 12 10 11 11 12 13 14
72 70 70 68 66 64 65 69 70 65 61 57 52 49 46 44 43 39 36 34 31 25 22 15 12 17 16 21 13 12 11 14 16 16 14 15 16 13 9 11 8 11 11 14
74 78 76 71 68 66 62 69 72 69 64 63 59 55 51 46 45 43 41 35 32 26 25 16 24 18 14 18 14 13 14 16 20 20 16 17 16 14 13 12 9 11 8 11
79 81 79 76 72 69 65 73 72 71 66 64 62 58 57 51 50 47 44 38 35 31 29 28 27 23 22 23 18 17 16 17 24 22 20 18 18 16 14 13 10 10 8 8
80 82 80 78 80 74 76 74 73 68 64 63 63 59 57 57 59 57 49 43 39 37 34 38 33 26 24 25 21 20 18 19 26 26 24 21 18 17 13 12 11 9 9 7
82 82 82 81 80 79 80 75 75 69 66 61 58 60 59 60 61 61 55 50 45 40 41 39 36 28 21 21 24 24 20 22 23 28 27 24 22 18 14 13 13 10 8 8
84 84 83 83 82 81 81 81 79 75 69 65 65 58 60 61 62 62 58 53 48 47 47 44 40 33 25 19 26 21 19 24 23 29 28 28 26 24 19 16 15 14 10 9
87 84 86 84 84 81 81 81 80 78 75 72 70 66 64 63 62 61 55 54 54 54 54 48 43 39 33 27 26 23 18 24 21 24 31 30 30 27 24 21 17 16 14 10
91 91 88 86 87 87 85 83 80 81 81 78 78 73 71 68 62 56 53 54 54 55 57 54 47 40 37 38 34 27 20 24 22 22 29 33 32 31 28 24 21 18 15 12
94 96 95 92 90 90 89 88 86 83 81 80 81 81 76 72 65 60 54 56 54 52 49 56 50 38 38 36 37 33 27 29 26 24 26 30 33 34 32 28 26 22 18 15
95 97 100 100 99 96 93 90 88 88 86 83 82 83 78 76 71 66 62 59 55 49 43 44 45 39 34 41 40 36 28 28 32 30 28 29 33 33 33 33 31 27 23 20
97 101 104 105 106 103 100 97 92 89 89 90 87 87 81 79 75 71 67 63 60 55 50 50 46 43 46 42 37 36 32 31 32 25 28 29 30 34 34 35 33 31 28 25
96 99 104 103 104 106 106 104 100 96 95 93 92 89 88 82 78 73 72 69 67 61 52 52 48 47 47 41 40 37 35 30 32 25 25 28 29 31 33 35 36 34 32 29
102 101 104 106 106 104 104 105 105 104 102 100 94 89 92 87 86 80 77 75 74 68 59 52 59 53 52 46 43 39 36 31 31 28 26 27 30 29 32 35 35 34 34 33
97 102 104 106 106 107 107 105 105 105 107 106 101 94 92 91 90 86 83 80 77 74 66 58 59 64 52 47 47 47 41 36 34 32 28 28 26 22 22 31 36 36 35 33
84 95 104 107 107 106 107 110 109 109 108 107 105 103 99 95 92 90 87 84 81 79 74 69 66 63 55 53 52 50 44 40 39 39 35 30 25 26 23 21 27 32 33 32
78 82 91 101 108 110 109 111 114 114 112 110 109 107 103 102 99 94 89 87 85 83 80 76 72 64 60 62 59 58 51 48 45 40 38 35 32 29 26 24 21 23 26 25
78 80 83 87 95 103 112 114 114 115 115 113 111 110 108 107 105 102 97 91 88 85 85 82 79 72 63 68 69 67 60 53 49 45 43 41 37 34 30 28 27 26 26 27
76 80 84 85 90 93 97 107 116 116 116 116 115 111 111 111 108 106 104 97 93 88 89 87 87 85 84 77 71 72 67 59 54 51 50 44 41 38 35 34 33 29 28 29
61 69 75 82 87 90 93 96 104 114 115 114 117 116 114 113 112 112 109 104 101 96 92 93 91 93 89 83 82 80 74 69 63 56 53 50 46 42 39 37 36 36 32 29
50 55 59 65 74 83 90 93 96 99 101 112 114 118 118 116 113 115 114 112 107 104 99 97 97 97 97 93 85 88 81 78 72 66 58 57 50 46 45 42 40 39 39 31
39 44 50 55 60 67 78 83 87 93 97 99 108 115 116 118 116 115 116 116 112 107 105 101 99 99 102 99 95 92 86 81 80 75 67 64 57 49 48 47 46 43 44 37
32 35 40 45 50 56 64 68 76 82 89 92 95 98 110 114 119 118 119 118 117 113 109 107 102 101 98 104 101 96 91 82 83 85 78 68 65 59 53 47 46 45 48 44
29 33 38 41 41 47 52 57 63 71 77 80 85 89 94 105 114 120 122 121 118 117 114 111 108 104 103 106 106 101 100 86 88 88 85 76 69 64 59 55 54 53 51 47
28 30 32 33 35 40 43 47 53 59 64 67 73 77 83 96 105 115 121 123 122 119 119 117 114 111 109 108 108 106 103 94 87 89 88 84 78 68 65 61 58 57 57 48
30 29 32 34 35 35 35 41 45 48 54 59 62 66 72 86 99 108 118 123 123 122 122 120 117 117 117 113 111 110 109 100 93 91 83 81 82 74 67 61 61 62 59 52

GFSCGP_250_spd_066.txt.gz
Wind_Speed
69 66 65 72 72 69 66 64 62 59 56 52 50 48 44 42 42 37 34 31 26 23 17 18 17 9 13 19 15 11 9 9 10 8 7 6 4 6 7 8 9 10 13 14
73 73 71 68 69 68 69 67 66 63 61 57 53 51 48 44 41 41 37 35 30 27 21 20 19 18 11 14 15 15 9 11 13 12 11 10 10 7 4 3 8 10 12 11
79 80 76 72 70 69 69 72 70 66 63 62 58 55 51 48 46 41 36 35 31 29 26 25 22 21 15 17 19 20 9 14 13 17 14 12 13 10 6 7 6 8 7 9
83 84 79 76 73 70 69 73 72 67 63 65 63 58 55 52 48 44 42 39 36 32 28 27 26 25 20 19 21 23 14 12 14 19 18 14 12 10 9 11 7 5 3 4
85 87 84 81 80 76 77 73 70 70 62 60 63 61 60 58 57 52 48 46 39 33 31 31 30 22 23 20 22 20 17 12 14 19 19 18 14 13 11 10 7 5 4 2
85 87 86 86 85 82 81 76 71 67 65 61 60 59 59 63 60 56 55 50 42 35 32 32 33 33 30 23 22 21 17 11 14 19 23 23 19 16 13 12 11 6 6 3
88 88 89 90 87 87 83 81 77 73 68 64 63 63 63 60 58 59 56 54 48 42 39 38 39 34 30 27 24 21 14 15 15 18 23 25 23 20 16 13 12 9 9 7
90 89 89 89 89 89 87 85 82 78 74 70 69 65 64 62 61 59 57 55 55 51 46 43 45 38 34 33 30 26 17 15 17 20 22 27 26 25 21 17 13 12 10 8
94 91 91 90 90 91 90 87 86 84 80 77 73 68 66 63 61 59 57 58 55 54 52 49 46 42 39 39 33 28 28 20 20 22 24 28 30 29 24 22 19 14 13 12
97 97 94 93 93 91 90 90 89 86 83 80 77 73 67 66 65 62 59 57 54 52 51 50 50 46 42 41 39 34 34 29 25 28 25 27 31 30 30 26 24 21 18 15
99 101 100 96 95 94 92 91 90 89 85 82 81 79 73 70 69 66 63 60 57 54 51 51 50 47 45 41 42 35 36 29 26 30 29 26 30 31 32 31 28 27 24 21
102 103 104 102 100 97 95 94 92 90 88 85 83 80 77 73 72 71 69 65 61 55 49 47 46 46 42 43 39 38 36 32 29 31 29 29 28 32 32 32 33 33 30 27
102 104 104 102 102 101 99 96 95 94 92 88 85 81 78 77 76 76 75 71 67 62 55 50 48 44 37 40 41 41 37 34 31 32 29 30 29 33 30 32 34 35 34 32
100 103 104 102 101 101 102 100 99 96 93 91 89 85 82 80 79 80 80 78 74 69 63 57 53 50 44 47 45 45 39 35 33 34 32 29 30 31 30 28 31 33 34 33
100 101 102 103 104 104 104 105 104 102 98 95 91 90 87 85 82 82 83 83 80 76 70 65 60 57 52 51 49 50 44 40 37 38 36 33 29 29 30 29 31 32 33 33
87 101 108 107 106 108 109 108 107 107 107 104 99 95 90 88 86 86 85 85 85 82 77 73 68 62 58 62 55 51 48 49 43 43 42 36 29 27 28 28 28 29 34 33
78 83 97 106 109 109 111 111 110 109 109 108 105 103 99 95 92 90 90 89 87 86 82 78 75 70 65 63 65 63 56 58 51 47 46 39 33 29 28 26 26 25 29 32
78 78 82 89 103 111 110 110 111 111 112 111 109 108 106 103 99 96 95 93 92 90 87 83 79 77 73 69 67 66 63 61 57 49 47 43 38 36 31 27 26 26 22 24
74 76 79 82 87 95 109 113 114 113 113 113 112 110 109 108 106 105 102 99 95 93 93 89 85 82 80 76 73 71 70 67 63 55 52 49 44 41 38 35 32 30 26 25
75 77 79 81 83 86 88 98 109 114 114 113 114 115 113 111 110 110 109 107 104 98 95 94 91 88 86 83 80 78 74 73 68 62 57 52 49 48 45 39 38 35 31 29
70 73 77 80 82 84 86 88 91 96 104 117 117 115 114 115 113 112 112 112 112 108 102 97 94 92 91 89 85 82 77 80 77 70 64 61 57 55 50 44 41 35 34 29
52 61 68 73 76 82 86 88 89 90 93 98 109 118 117 116 115 117 118 115 116 115 110 105 99 95 94 94 91 89 88 84 87 81 68 67 63 61 58 51 46 41 37 36
42 46 52 59 65 72 79 83 87 89 91 93 96 100 112 121 119 118 119 122 119 117 116 112 107 103 98 98 98 94 97 93 88 87 79 76 71 67 63 57 52 50 46 44
35 38 42 47 53 60 68 75 79 81 83 85 89 92 93 98 114 124 122 122 123 121 119 118 113 110 107 103 102 102 99 100 91 87 85 84 79 75 69 61 58 53 47 48
38 41 42 46 50 53 56 62 68 71 73 77 81 83 83 85 92 105 119 126 125 124 125 122 118 114 113 111 106 106 105 102 99 95 88 88 85 83 76 68 65 60 52 47
37 41 42 42 45 51 54 55 58 60 64 66 71 73 73 75 79 91 102 113 124 125 126 126 123 119 116 115 112 111 109 106 104 104 100 95 94 90 86 78 72 67 64 58

GFSCGP_250_spd_069.txt.gz
Wind_Speed
66 66 67 77 79 71 69 67 61 57 55 52 47 46 43 40 39 36 32 32 30 28 27 18 14 13 14 9 10 18 14 8 6 2 1 2 4 6 7 8 9 11 12 16
71 73 72 70 76 74 73 71 67 61 58 54 50 48 47 45 42 40 37 34 33 28 27 21 16 16 14 9 9 14 17 9 8 7 4 3 2 3 5 4 5 7 10 13
78 79 75 71 72 72 73 75 71 67 64 59 56 53 49 48 46 44 42 38 34 29 28 24 21 17 17 16 12 13 16 14 8 10 9 7 4 5 5 3 0 6 7 12
81 79 77 75 74 73 74 78 74 69 66 64 61 59 57 54 51 48 44 42 39 31 27 28 26 21 22 20 18 11 14 16 11 10 13 11 3 4 6 4 2 6 5 8
84 84 81 81 81 77 76 76 75 70 67 67 65 64 63 62 58 53 49 45 42 37 29 30 28 25 23 22 17 12 11 15 14 11 13 14 9 6 6 4 4 8 3 4
89 88 84 86 85 83 77 73 71 68 65 69 68 68 68 64 61 56 52 47 43 35 30 30 31 29 26 26 21 19 10 11 11 11 14 15 14 9 8 8 7 7 7 0
94 91 89 87 87 86 81 76 72 68 64 64 66 69 69 67 65 62 58 54 50 44 37 33 34 33 31 26 26 23 14 13 10 14 14 16 17 14 10 9 9 9 10 2
99 95 93 91 88 89 87 83 79 73 67 67 67 66 65 67 65 64 61 60 57 51 44 39 39 35 33 29 29 23 18 18 15 13 17 16 19 18 16 14 11 10 10 8
102 99 95 94 91 91 90 86 84 79 75 73 69 69 69 65 64 61 58 59 59 56 51 45 44 40 38 35 34 29 24 22 19 17 17 19 21 21 20 19 17 15 11 11
103 102 99 95 94 93 91 91 89 85 81 77 73 72 69 66 64 61 59 58 58 56 53 49 48 46 44 40 37 34 32 27 23 21 22 22 22 24 24 24 22 21 17 14
104 105 102 101 97 95 94 91 91 89 85 83 79 76 73 71 67 64 62 60 58 56 54 51 50 47 47 45 44 40 37 32 27 21 21 21 24 26 27 26 27 25 23 20
102 105 105 103 101 97 96 94 92 91 89 86 84 81 78 77 73 70 67 65 62 57 54 50 49 47 48 45 43 44 42 38 31 27 23 20 26 27 29 29 29 30 26 25
103 106 106 104 103 100 97 95 94 92 90 89 88 85 83 82 79 76 73 70 66 62 58 54 49 46 47 45 42 41 41 39 33 31 27 24 26 29 26 30 30 30 31 29
98 103 106 105 103 102 100 98 95 95 92 90 89 88 87 85 85 83 80 76 72 68 64 60 55 50 46 43 44 41 41 39 37 36 33 28 30 31 28 30 30 32 32 31
91 99 102 104 104 102 102 101 98 96 94 93 90 89 89 88 86 85 85 82 78 74 70 67 63 58 53 46 42 42 38 41 39 35 33 32 32 31 27 27 32 31 33 34
85 94 100 104 107 107 105 106 105 103 99 97 95 93 90 89 89 88 87 85 84 82 77 73 71 67 62 57 53 47 42 44 45 37 36 33 35 34 32 29 29 32 33 34
73 89 98 101 105 106 107 106 106 106 106 104 101 98 95 93 91 90 90 89 86 85 83 80 76 74 71 65 59 54 50 52 50 51 40 36 38 37 37 30 28 30 31 29
69 75 90 99 103 105 106 107 108 107 107 106 105 103 100 96 96 96 93 92 90 88 87 85 82 79 77 73 68 62 57 58 56 54 48 50 43 41 39 34 32 32 31 30
71 74 78 87 98 102 104 108 110 111 110 109 109 108 106 104 101 99 97 96 95 92 90 89 87 85 83 80 75 71 66 66 67 61 60 59 51 45 42 44 39 36 33 31
72 74 77 79 85 92 101 107 109 110 111 112 112 111 110 109 108 105 103 100 98 97 95 94 92 90 88 86 83 79 75 72 71 69 63 62 54 51 50 48 45 39 35 31
71 74 76 77 80 82 86 95 104 110 111 113 114 114 113 113 110 111 110 108 105 103 100 98 97 96 93 91 89 85 83 79 74 73 71 69 65 58 58 55 50 46 41 36
65 67 72 75 78 81 83 86 89 94 101 109 115 117 118 118 118 117 116 114 112 110 108 104 101 101 100 96 94 91 89 86 82 77 77 73 73 64 62 59 56 50 47 42
60 63 66 69 73 78 82 84 85 85 89 94 100 108 116 119 120 120 121 120 117 116 115 114 109 105 104 104 100 98 95 90 87 84 79 80 76 72 67 64 62 55 53 48
49 56 61 63 68 72 75 79 81 84 88 92 95 97 101 109 118 122 122 123 124 121 120 119 117 114 111 108 106 104 101 97 92 89 86 83 84 80 76 70 67 60 55 54
46 46 48 56 62 67 71 74 78 80 83 86 90 94 95 97 102 110 120 125 124 124 125 123 122 120 119 117 112 109 108 103 98 95 92 89 88 86 82 77 74 67 62 58
42 44 47 52 53 57 63 67 72 74 76 77 80 83 87 92 98 100 104 109 117 126 126 125 127 126 125 123 120 118 113 108 105 102 98 95 92 90 89 85 79 73 67 66

GFSCGP_250_spd_072.txt.gz
Wind_Speed
65 65 68 74 77 72 73 68 62 60 57 53 49 48 46 42 38 33 33 28 24 25 20 18 16 12 10 4 7 14 16 15 6 1 5 4 4 7 12 12 14 16 18 17
69 69 69 71 72 71 75 73 66 62 59 54 50 49 48 46 41 36 34 30 29 28 26 23 21 16 14 8 6 9 13 14 11 4 5 6 3 1 7 7 10 12 15 14
74 75 70 70 69 69 77 78 72 66 62 58 54 52 50 51 46 41 38 36 32 32 28 24 23 21 16 14 11 7 9 10 11 10 5 6 5 1 1 4 4 9 10 12
80 77 75 71 71 70 72 79 77 71 68 65 61 57 53 52 50 45 42 39 36 33 31 25 25 23 22 20 15 9 7 9 10 9 8 6 6 5 3 1 4 4 5 7
86 83 79 77 77 75 71 73 79 76 73 69 68 64 58 55 51 47 44 41 39 34 35 29 25 26 26 22 19 13 9 9 10 7 8 8 8 6 5 3 3 2 4 5
89 88 84 82 80 80 73 69 71 76 78 76 73 70 66 61 57 52 49 45 42 39 37 34 30 31 30 24 22 18 12 10 9 8 7 10 10 10 8 6 5 1 2 4
91 94 91 87 84 80 77 74 71 72 74 75 78 76 68 66 63 58 56 53 49 46 42 38 35 33 34 28 25 22 16 10 10 11 8 9 13 14 10 8 8 4 3 2
89 97 97 92 89 84 82 81 78 73 71 72 72 77 70 69 66 64 61 60 56 52 47 43 42 36 37 32 26 25 18 13 13 11 8 7 12 15 13 13 11 8 5 3
88 99 99 98 94 90 86 83 84 78 73 75 77 75 68 69 67 66 65 63 61 57 53 48 46 42 38 35 30 28 24 20 15 16 14 10 12 14 16 16 15 12 8 5
89 88 96 100 100 97 91 89 86 85 79 78 75 73 71 67 66 65 64 65 64 61 57 55 51 48 45 40 34 33 31 29 24 22 20 15 12 15 19 20 19 17 13 10
90 90 93 102 107 100 96 91 89 90 86 84 78 76 70 70 67 65 65 66 66 62 57 54 51 51 48 45 41 40 37 36 32 26 24 19 14 16 20 22 23 22 18 15
89 88 92 101 104 105 102 96 91 89 90 90 83 77 76 74 72 69 66 64 64 64 61 54 53 49 46 45 46 46 44 42 38 34 29 24 21 20 21 24 25 26 22 20
86 88 90 95 103 108 106 101 96 93 94 93 90 84 83 80 76 74 71 69 66 64 61 58 54 51 48 48 48 48 48 46 44 39 38 32 28 26 23 23 25 28 28 27
81 84 88 93 101 106 107 105 100 98 96 97 99 89 89 86 83 79 76 73 70 67 64 61 57 54 51 49 48 48 47 45 44 43 41 36 35 32 27 27 27 26 31 31
76 81 87 89 94 100 107 107 104 101 99 97 95 96 94 92 91 88 84 81 77 74 70 67 63 59 55 52 50 48 48 45 43 44 41 38 36 34 29 29 31 28 29 34
70 75 80 86 94 99 105 107 107 104 101 99 97 97 100 99 96 94 91 87 84 81 77 74 70 66 62 59 54 51 45 48 48 46 46 41 38 38 34 31 32 29 29 30
67 70 76 84 91 100 105 110 110 109 107 104 104 98 98 101 101 100 97 94 91 88 85 81 77 73 69 66 62 58 55 47 47 50 46 48 34 35 37 32 32 32 31 30
64 66 72 77 88 95 99 106 111 111 109 109 106 103 103 101 103 104 103 100 97 93 91 88 84 80 77 72 69 66 63 58 53 47 46 46 49 41 33 29 35 35 32 30
64 65 66 69 80 86 97 103 108 111 111 111 109 107 104 103 103 103 103 103 101 98 95 92 89 86 83 80 76 74 72 67 61 56 50 50 48 47 40 32 38 40 36 33
66 67 67 67 72 80 87 99 105 109 113 113 112 111 110 108 107 102 101 101 100 99 98 96 94 89 87 85 83 81 79 75 70 64 59 56 57 51 53 45 49 42 42 39
68 70 71 70 72 75 81 93 101 108 110 112 114 115 114 113 112 106 107 105 104 102 101 99 97 96 93 90 87 86 85 82 78 74 68 65 66 58 61 62 50 45 45 43
66 70 73 73 74 74 76 81 91 99 107 111 116 116 116 116 116 114 113 111 108 107 105 104 102 99 97 95 93 91 89 88 86 82 78 71 70 72 69 62 60 55 50 48
60 65 70 74 76 76 76 77 80 85 96 107 113 115 119 119 119 118 118 117 116 114 112 110 107 105 103 100 97 96 93 92 90 88 85 81 76 75 73 70 67 62 59 53
54 58 63 66 69 73 77 80 82 85 87 92 101 111 116 118 122 125 124 123 121 120 119 118 115 112 109 106 104 102 99 97 95 95 91 87 84 81 78 76 71 64 63 59
46 50 53 58 61 64 68 72 79 85 89 91 94 98 106 115 121 122 123 126 128 127 125 123 122 121 119 117 112 108 107 103 101 99 97 93 91 89 82 80 79 72 70 66
38 43 48 51 51 53 58 65 69 73 79 85 90 95 98 103 110 116 121 124 128 129 130 130 128 126 126 125 123 118 114 112 108 105 104 100 95 94 89 86 84 79 77 73

GFSCGP_250_spd_075.txt.gz
Wind_Speed
65 63 62 65 67 70 68 67 65 62 58 56 55 55 52 47 42 38 31 24 29 24 21 20 17 11 14 8 9 10 13 9 6 4 2 2 5 10 13 15 16 18 20 23
68 67 67 65 64 65 73 71 69 64 61 57 57 56 54 50 46 41 36 31 29 26 21 22 20 15 16 12 10 7 10 11 4 4 4 5 4 4 8 9 12 14 18 20
73 74 69 66 64 63 71 74 71 70 66 61 56 55 56 54 49 44 40 35 31 28 23 24 22 19 16 18 14 10 9 9 10 2 5 6 5 4 3 5 8 11 14 14
76 75 72 69 68 67 65 77 74 71 68 67 63 58 54 56 50 46 42 38 36 32 27 28 29 22 17 19 17 12 9 7 12 6 3 5 4 5 1 1 3 8 9 13
81 77 77 74 71 72 69 72 77 69 74 71 67 63 55 58 54 48 44 40 39 36 32 27 30 26 22 19 18 14 11 8 7 11 2 4 8 7 4 2 2 3 7 11
86 83 80 80 77 76 74 67 70 70 72 73 71 70 66 63 54 50 46 44 43 39 38 32 31 31 27 23 20 17 14 8 5 8 8 3 10 10 7 5 3 1 3 6
86 86 87 84 82 79 72 72 72 71 72 72 74 75 71 65 62 56 52 49 45 41 41 36 32 32 29 26 24 20 19 13 8 5 6 5 7 10 11 8 6 2 1 3
86 87 91 88 85 83 78 78 75 72 72 73 73 81 71 70 67 62 60 56 49 47 43 40 37 34 32 30 27 23 21 18 13 10 7 4 5 8 11 13 9 6 4 2
82 86 92 90 91 88 83 80 79 82 77 78 81 72 74 72 72 70 66 62 57 53 48 45 43 40 37 35 32 28 24 22 19 15 13 10 7 7 13 15 14 11 8 5
88 92 85 89 92 90 87 85 86 81 81 78 79 71 79 71 75 74 71 68 61 53 49 48 45 45 43 41 38 34 31 27 25 24 21 17 15 13 13 17 17 17 13 9
87 86 83 87 88 94 94 91 90 87 86 85 84 82 70 65 71 75 76 74 68 62 55 52 48 48 45 44 43 38 35 35 34 31 27 24 20 17 16 18 20 21 19 17
87 84 82 84 93 92 93 94 93 90 88 88 90 91 76 73 71 72 75 75 73 68 62 46 49 43 42 44 40 45 44 44 41 38 35 30 26 24 22 19 21 24 24 23
88 87 89 83 85 91 92 95 95 95 96 92 93 92 81 81 76 72 70 70 72 72 67 57 50 44 49 38 40 42 44 46 44 44 40 37 34 31 27 25 23 24 26 27
90 91 89 90 93 91 91 91 93 97 97 94 96 96 87 86 82 77 74 71 70 71 69 66 57 50 51 54 37 44 49 46 46 44 46 42 40 38 33 30 29 29 29 30
93 93 92 89 89 90 87 89 92 96 99 105 111 101 92 89 87 84 80 77 73 73 70 68 66 64 62 58 59 48 48 50 48 48 48 44 44 41 36 34 34 29 33 30
97 97 93 91 92 92 91 91 90 93 100 106 111 99 85 90 96 92 88 84 79 77 74 71 69 66 65 60 61 55 50 47 44 47 51 49 48 43 38 37 34 32 32 33
73 84 92 96 99 98 96 95 95 98 101 110 114 101 99 98 99 99 96 91 88 84 80 76 74 71 68 68 65 63 60 58 56 54 52 50 48 46 37 36 36 38 35 35
65 69 77 84 87 89 92 92 96 99 101 107 111 103 103 101 102 105 102 99 95 91 86 83 79 77 75 72 69 66 64 61 59 56 53 53 51 49 47 35 37 40 40 37
61 66 71 75 75 81 79 84 92 95 100 107 109 111 110 108 109 105 106 105 102 98 94 90 87 84 81 78 75 72 70 66 63 59 56 53 49 52 50 45 36 40 42 39
58 63 68 71 74 78 80 78 83 93 98 103 106 113 114 113 114 109 103 104 105 104 101 99 96 93 89 86 83 80 77 73 71 68 64 59 52 49 52 53 45 37 38 37
56 61 65 70 73 77 73 83 86 91 95 97 104 109 115 119 118 107 109 108 108 109 108 105 103 100 97 94 91 88 85 81 78 75 71 67 61 56 51 53 59 55 46 40
57 62 67 70 73 74 72 83 86 87 91 95 102 108 115 118 121 117 113 114 112 110 109 108 108 105 103 101 98 95 93 89 86 83 79 76 70 65 60 55 56 57 57 54
53 58 65 72 73 73 76 80 80 83 87 93 97 104 110 115 119 121 121 117 117 114 113 112 110 109 108 106 103 101 99 96 93 89 86 84 80 74 69 64 64 61 60 63
49 55 60 64 69 75 75 78 79 81 81 83 89 97 105 112 116 120 124 124 122 120 117 116 116 114 112 110 107 105 102 99 97 95 91 89 87 84 79 74 71 71 68 64
43 49 55 60 65 69 74 77 79 81 82 81 83 87 94 103 111 116 120 126 127 126 125 123 120 119 118 116 114 110 107 103 100 98 97 94 91 89 87 83 80 76 78 75
34 43 48 54 59 64 67 73 77 80 82 83 85 86 88 92 99 109 116 121 126 128 130 130 130 128 126 124 121 118 114 110 106 102 100 98 96 94 92 89 86 85 82 81

GFSCGP_250_spd_078.txt.gz
Wind_Speed
65 63 60 59 59 71 72 69 66 63 57 56 51 50 41 34 38 36 32 32 27 24 21 16 16 15 14 16 16 12 16 16 11 10 9 8 11 13 14 16 17 18 21 23
67 65 67 64 61 61 73 69 68 64 62 62 58 59 59 45 38 43 38 32 29 21 24 19 17 14 11 13 16 14 12 14 15 8 7 8 9 9 12 11 12 15 18 19
70 72 71 68 65 60 60 71 71 69 62 67 66 61 57 49 39 34 38 37 36 30 28 21 19 14 13 15 11 15 12 10 16 12 6 6 6 7 3 5 10 10 17 16
74 74 71 69 67 63 62 67 71 73 68 70 65 67 63 60 56 54 42 42 39 35 30 24 21 17 15 14 15 13 12 9 10 16 8 2 2 5 7 7 8 10 14 13
76 75 73 72 70 68 66 67 71 71 71 68 68 68 62 59 54 52 49 50 46 38 34 26 23 20 19 16 16 15 13 10 6 10 12 5 2 4 6 9 6 7 9 11
80 79 76 75 75 73 74 68 67 70 66 72 69 68 63 59 52 44 45 48 45 44 39 33 28 25 21 18 17 16 15 15 8 4 9 8 3 4 11 7 5 4 5 7
78 82 80 78 76 76 75 73 69 67 64 69 70 71 66 60 52 50 54 56 55 39 31 30 30 29 23 22 20 18 15 16 12 9 7 7 5 4 7 5 4 4 2 2
80 80 80 81 80 78 78 76 72 69 67 69 73 74 69 61 57 63 38 42 51 55 47 40 38 29 27 24 24 21 17 17 16 14 12 7 5 4 5 13 11 7 4 2
81 80 82 85 86 84 80 78 75 74 75 76 81 76 71 65 70 77 53 44 38 39 38 38 40 36 30 30 28 26 22 19 19 18 17 12 11 9 10 12 12 10 7 3
82 77 77 81 84 86 83 80 82 79 79 76 81 73 78 75 80 80 81 73 64 56 43 37 45 41 39 43 38 33 27 25 23 23 21 20 16 15 14 15 16 11 7 5
86 83 83 80 78 82 85 85 80 83 84 80 84 83 76 74 76 81 78 73 68 63 55 46 42 41 39 40 33 33 31 30 28 27 25 24 22 21 19 19 22 16 10 15
91 86 89 83 81 80 81 86 88 90 85 81 88 90 79 71 78 83 81 76 69 66 62 58 44 28 29 32 38 42 32 26 30 32 32 30 30 27 23 22 23 24 16 18
85 90 88 87 84 86 83 83 83 89 92 92 94 90 84 79 83 81 78 78 76 72 68 67 64 43 47 28 23 24 28 28 32 38 38 34 31 33 30 27 27 28 24 22
83 88 93 89 88 88 84 80 81 86 88 89 99 97 89 86 82 79 77 77 76 75 73 71 67 65 53 47 40 40 27 25 37 34 37 30 28 37 36 34 32 30 29 27
86 90 91 90 88 84 83 84 87 86 83 96 108 103 95 90 84 81 79 74 75 76 76 74 72 71 73 67 66 54 49 51 54 36 28 24 28 40 30 38 39 34 34 33
87 94 91 87 88 86 89 90 90 84 88 100 103 105 96 93 89 83 84 79 77 76 76 75 75 78 77 73 71 61 49 55 59 55 58 42 48 38 42 50 43 39 35 35
91 90 91 91 93 90 90 91 88 82 83 102 103 102 101 98 94 88 86 88 84 81 79 77 74 73 74 74 69 66 67 60 58 57 58 56 57 61 48 37 38 40 39 38
97 97 94 92 94 91 85 93 89 89 99 103 97 96 93 97 98 95 92 94 92 89 85 81 79 76 75 74 75 72 75 63 54 57 60 63 61 60 57 58 45 50 43 39
81 95 100 95 94 92 93 91 95 98 104 98 95 95 96 93 104 104 102 101 98 95 92 87 85 81 79 78 80 79 81 81 73 72 63 60 60 58 56 58 51 43 42 44
65 76 87 98 99 100 99 96 94 99 101 94 96 98 94 98 105 106 103 103 102 99 97 95 92 89 85 83 82 83 83 84 85 80 80 73 67 66 63 61 53 55 49 45
53 62 70 79 84 93 96 99 103 102 100 97 101 98 97 100 103 96 96 106 110 108 103 101 100 97 94 91 88 87 84 83 82 76 83 77 71 70 68 62 55 51 54 53
50 54 60 67 74 82 79 85 95 98 102 107 107 102 102 104 105 101 104 109 110 112 110 108 104 104 102 100 97 94 92 89 88 85 84 80 76 73 69 64 59 55 52 55
47 52 57 63 68 71 70 79 87 90 91 94 96 99 101 104 105 102 106 107 112 115 116 114 112 110 108 107 105 103 100 98 96 93 90 88 85 81 76 72 67 62 57 53
43 48 56 61 65 68 71 77 86 87 85 85 84 86 91 95 96 98 104 109 110 112 116 118 118 115 113 111 111 110 108 105 103 101 99 96 93 89 85 80 75 71 66 61
34 41 51 56 61 66 71 74 80 84 85 90 90 89 89 90 91 91 94 102 108 113 115 118 122 122 120 118 116 115 114 112 111 109 107 104 101 97 93 89 84 79 76 71
28 35 42 50 58 62 68 73 79 83 85 86 89 92 95 96 95 94 93 96 104 110 114 119 122 125 126 125 123 121 119 117 116 114 113 110 108 105 101 97 93 88 84 81

GFSCGP_250_spd_081.txt.gz
Wind_Speed
66 64 60 60 60 74 72 68 63 67 54 49 47 50 49 43 30 30 36 28 24 18 16 10 8 8 11 12 15 18 18 21 23 14 12 14 13 15 18 17 20 16 21 23
69 65 67 64 64 64 74 72 68 66 63 54 49 54 54 39 32 28 26 29 25 20 19 12 9 9 9 9 11 13 16 15 21 17 10 11 13 13 14 16 15 19 14 19
72 74 71 69 66 64 65 72 72 69 68 62 57 56 55 46 38 28 26 25 27 27 21 16 10 10 10 8 8 12 13 14 16 20 10 7 8 9 12 9 13 17 15 16
74 76 73 70 69 67 64 65 75 74 70 71 68 65 58 54 57 48 41 31 29 27 28 22 16 11 11 8 9 11 11 11 12 16 11 9 7 8 12 12 9 14 14 16
74 75 74 73 70 69 65 69 72 74 77 76 71 65 63 62 53 49 41 38 29 26 29 25 22 17 14 9 7 9 10 9 8 11 13 12 7 4 6 11 10 11 10 10
78 76 76 74 74 70 72 76 70 68 76 75 76 72 67 63 59 45 41 40 45 43 44 34 30 24 17 12 9 10 10 11 7 6 12 11 7 1 8 5 2 9 8 8
79 79 76 76 76 73 76 74 71 68 63 68 78 81 71 66 61 56 53 39 34 33 36 45 30 28 24 16 12 12 9 10 8 6 10 11 8 3 7 7 4 7 6 6
78 78 79 77 75 75 77 75 75 72 67 66 74 81 78 67 63 61 59 49 43 40 31 34 33 20 20 19 17 16 13 11 8 7 9 11 11 8 6 8 8 6 6 8
82 79 83 80 78 77 80 78 77 76 77 74 76 79 78 71 67 64 57 56 50 46 36 34 40 37 27 20 20 21 19 16 14 12 11 13 14 12 11 8 11 11 12 8
78 78 75 74 82 85 82 81 82 78 78 78 74 73 77 77 71 73 61 62 61 49 30 29 37 37 37 31 26 24 23 20 21 21 18 16 17 16 13 14 13 11 12 13
76 79 81 78 75 77 82 81 79 79 78 78 80 73 69 67 60 65 66 66 65 62 46 43 33 29 28 27 28 26 25 27 28 25 22 21 21 20 17 17 16 14 14 16
77 77 76 74 75 78 76 79 84 81 79 85 86 78 71 64 72 71 72 68 71 64 53 54 36 30 26 23 31 32 31 29 34 31 29 26 24 26 23 22 20 19 17 16
79 82 84 83 82 83 80 83 81 81 88 90 89 83 78 77 77 80 80 75 72 69 68 62 61 51 42 35 25 21 26 25 39 25 24 29 31 29 28 26 25 24 24 22
84 87 85 86 87 82 80 78 78 80 83 90 93 85 84 82 79 77 80 80 80 79 79 75 71 64 54 45 37 46 36 37 42 39 29 27 24 34 34 33 34 30 26 28
89 92 90 88 88 82 80 77 75 82 84 93 96 91 88 83 80 80 78 78 83 86 85 80 73 65 61 63 51 45 39 47 36 32 34 32 26 29 34 25 38 38 32 31
90 93 90 91 87 82 81 82 83 88 92 92 95 92 91 88 84 81 78 78 80 85 88 84 79 75 71 68 56 52 49 42 47 42 39 33 31 33 18 30 28 31 34 37
88 88 85 86 90 89 88 88 91 93 95 93 86 81 88 92 90 87 85 82 82 82 84 86 84 82 80 77 76 75 63 57 54 54 53 45 41 41 37 26 35 32 27 32
87 87 86 88 89 89 91 92 94 96 97 88 86 84 84 84 88 90 89 86 86 85 85 84 84 84 85 85 83 83 79 76 68 60 59 56 63 61 56 62 60 58 37 35
92 90 89 87 91 91 92 94 91 98 95 95 92 91 86 84 84 87 93 92 90 88 89 89 87 85 87 87 91 89 86 81 79 72 71 71 69 70 71 69 67 65 59 60
81 93 94 89 92 93 96 92 92 95 95 97 95 94 90 88 89 94 94 93 95 98 96 96 93 92 90 89 88 90 92 93 88 83 77 76 80 80 75 73 71 72 70 68
61 74 87 97 98 97 97 94 98 99 97 98 98 98 96 90 90 89 91 93 97 100 102 101 98 95 94 93 90 89 90 94 97 91 84 83 79 74 80 78 75 73 73 67
45 55 66 80 90 97 101 96 96 96 100 99 100 101 100 98 96 95 96 96 97 99 102 103 106 103 100 98 96 93 91 90 92 92 93 92 87 86 78 72 72 78 71 64
37 44 54 63 73 82 90 101 106 103 102 100 103 103 101 104 103 101 98 98 99 99 99 102 107 109 106 103 100 99 97 94 93 94 95 98 99 93 87 82 76 73 68 68
33 40 48 54 61 66 73 83 91 101 109 111 107 102 103 104 103 102 101 103 103 102 102 103 106 109 111 111 109 105 104 103 101 99 98 100 104 101 97 91 88 87 84 85
20 27 39 49 55 60 64 71 78 87 93 101 107 108 107 105 103 103 101 100 104 105 104 107 108 108 112 115 116 114 112 111 110 108 106 104 106 107 105 104 101 99 95 90
20 22 30 39 46 53 60 65 72 78 83 89 97 100 101 100 103 107 109 108 107 106 105 108 110 111 112 115 118 120 120 119 116 116 114 112 111 111 109 108 106 100 98 92

GFSCGP_250_spd_084.txt.gz
Wind_Speed
66 66 65 66 70 72 72 67 64 55 56 50 50 46 44 28 22 21 22 26 23 19 12 8 8 5 5 8 12 14 17 19 16 12 14 13 13 16 20 19 19 18 23 26
67 68 72 68 69 71 73 71 69 67 58 53 51 52 49 47 24 24 28 25 25 22 16 11 8 4 7 3 8 11 14 15 16 13 10 10 11 13 14 16 19 16 20 21
72 78 72 70 70 69 69 72 72 71 65 62 53 56 53 50 48 34 28 28 26 24 18 13 9 7 8 5 3 7 10 11 14 15 14 10 9 11 12 11 16 16 17 17
80 76 72 72 71 71 69 68 75 74 71 66 65 56 55 56 54 48 34 28 27 22 19 22 13 12 9 8 3 3 7 7 9 11 15 10 6 7 13 12 11 12 12 15
79 78 77 72 73 71 70 72 70 73 74 70 68 67 58 53 56 48 45 33 29 20 20 21 20 15 11 13 8 1 4 4 4 5 9 11 5 3 5 9 7 12 12 10
77 79 79 78 77 75 78 74 70 66 74 72 74 74 66 61 55 47 49 46 37 34 24 21 22 21 19 16 12 7 4 4 4 4 6 9 10 6 5 4 3 7 8 9
81 76 76 79 78 77 78 76 70 67 65 72 80 74 73 66 61 54 49 53 48 37 31 35 32 24 19 19 23 16 8 7 7 6 5 4 6 7 7 4 5 5 6 8
80 81 79 77 76 79 79 77 72 69 68 67 77 77 72 70 66 60 55 52 45 42 37 34 32 25 24 22 21 17 12 10 11 11 8 6 6 6 7 7 8 9 7 8
81 80 82 79 77 79 82 77 76 77 73 73 70 73 74 72 64 61 64 59 55 47 43 32 26 27 23 21 19 19 19 16 16 15 14 12 10 9 8 8 10 8 11 10
78 76 76 79 80 79 80 82 85 81 78 77 74 69 73 76 76 72 69 66 62 58 53 47 32 29 28 32 25 22 23 21 21 20 19 18 14 15 13 11 9 11 12 12
76 78 78 78 75 79 83 85 85 84 81 79 76 72 65 73 72 80 77 70 65 59 54 54 42 34 27 32 30 26 25 21 21 22 19 19 19 18 17 17 14 12 11 11
80 80 79 77 76 81 85 90 89 88 85 82 76 73 71 69 71 73 79 76 73 69 64 62 49 44 41 34 32 25 33 34 29 25 24 24 22 23 23 21 21 18 16 13
85 83 82 83 83 84 84 83 87 85 85 84 80 74 74 74 73 75 77 77 77 74 73 69 57 48 45 40 35 31 33 33 36 37 30 28 27 26 25 27 25 23 23 20
87 89 89 90 87 84 82 81 83 84 86 85 81 78 76 76 77 76 76 79 78 76 72 71 67 55 51 48 41 38 37 42 35 37 34 29 25 28 27 26 24 26 28 26
89 91 91 89 87 87 85 82 80 80 86 90 84 82 81 79 78 77 74 71 74 79 77 74 72 66 60 54 51 42 38 40 36 40 40 36 37 32 30 30 26 20 17 22
89 89 89 91 89 86 90 86 84 84 89 88 86 86 83 80 77 78 79 77 72 72 74 76 74 72 71 69 64 55 52 50 45 46 40 34 48 42 39 38 30 28 29 21
85 87 89 90 91 92 92 90 89 89 87 83 84 84 86 86 84 83 82 81 81 78 77 78 78 79 73 78 71 63 61 59 60 56 54 54 56 51 45 42 34 33 36 36
80 83 88 90 92 94 95 94 94 91 92 85 81 81 83 85 88 89 87 86 86 85 83 81 84 85 85 87 79 67 67 65 64 59 55 55 53 51 47 48 42 39 36 35
83 80 82 87 91 94 96 97 93 92 92 89 86 83 81 81 85 89 92 91 90 88 87 88 91 93 92 92 88 79 75 67 70 68 59 59 60 57 55 57 52 50 48 41
84 83 83 84 87 93 94 96 97 95 95 92 90 87 86 87 88 93 94 96 97 96 94 93 93 95 99 97 96 93 83 81 73 72 73 68 67 67 62 59 60 65 60 51
76 85 88 85 86 86 89 94 97 94 96 97 96 94 92 90 90 90 92 93 96 100 101 98 97 98 98 99 101 104 103 100 96 84 81 77 76 76 74 69 65 75 69 63
50 66 78 84 92 87 89 92 96 95 97 99 100 99 97 97 98 97 98 98 96 95 94 100 104 104 103 101 101 100 99 101 101 102 100 94 87 82 83 79 80 78 80 77
35 43 53 68 78 87 97 98 97 96 97 99 99 100 103 105 104 102 101 101 99 97 97 98 98 102 106 106 104 102 101 101 99 102 105 106 104 98 93 94 89 89 86 83
20 31 40 47 55 67 81 92 100 103 101 100 102 102 104 103 103 104 104 103 103 103 102 100 99 98 99 103 107 109 107 105 104 103 103 106 108 108 104 97 97 87 90 89
12 21 26 35 46 55 63 74 87 98 104 107 105 103 102 104 105 104 103 104 107 106 106 106 104 103 103 104 106 109 111 111 109 108 107 106 105 107 108 111 111 105 93 92
12 14 20 25 33 45 56 64 73 81 89 97 102 105 107 106 105 105 106 107 109 107 108 110 110 109 107 106 107 107 109 111 114 114 113 112 111 109 109 110 112 115 116 106

GFSCGP_250_spd_090.txt.gz
Wind_Speed
68 67 66 68 66 63 61 58 53 43 42 41 28 31 29 36 38 33 27 22 17 15 16 9 11 8 9 11 15 16 17 19 17 15 16 19 21 23 28 29 30 33 36 38
72 69 72 72 70 67 64 62 58 53 44 39 25 32 38 29 34 38 32 26 22 22 17 13 11 7 4 9 10 13 14 16 20 16 14 16 20 21 25 26 28 29 31 33
77 78 74 75 75 70 68 66 65 61 54 47 47 38 44 43 40 34 32 31 24 23 20 16 9 11 3 5 5 9 12 12 14 17 14 14 17 20 20 23 24 26 27 28
83 81 77 77 76 73 71 70 71 71 64 57 56 47 50 52 45 42 33 36 29 23 22 19 12 11 7 3 3 6 8 10 11 12 15 15 15 18 18 18 21 22 25 24
84 84 80 77 76 76 77 73 73 73 77 68 62 61 54 49 53 46 45 39 32 26 23 19 15 13 12 7 2 2 4 7 8 9 11 12 16 17 17 17 18 20 21 22
85 87 84 81 80 79 81 77 73 78 77 77 76 65 64 55 50 49 46 45 39 25 25 17 19 19 18 12 8 2 4 5 7 7 8 10 11 14 16 17 16 14 19 19
84 83 84 86 84 81 79 77 74 75 78 77 76 75 73 68 57 53 49 48 48 36 31 23 21 22 20 18 15 9 8 9 11 10 7 7 8 10 11 14 16 15 15 17
84 82 82 85 85 84 82 79 72 70 71 79 80 74 77 73 66 61 62 54 52 49 44 41 37 32 25 22 20 15 18 18 20 15 11 8 7 9 10 10 12 15 14 14
83 82 83 84 89 89 86 81 77 73 73 71 77 80 79 74 70 68 69 63 54 50 48 46 38 38 29 25 24 20 22 18 19 18 15 11 9 8 11 10 10 11 12 11
86 83 85 86 86 89 89 86 82 77 73 70 69 76 80 78 75 71 67 64 61 57 53 54 44 43 43 36 29 24 26 22 22 23 20 16 13 10 10 9 7 8 7 8
87 87 86 88 85 86 89 90 86 81 76 74 73 70 77 81 81 80 75 70 64 62 59 57 54 48 46 49 38 35 31 28 27 25 20 19 18 16 14 8 9 10 11 7
89 88 87 86 86 86 86 90 90 86 80 76 74 73 72 74 82 83 80 75 68 66 67 63 61 58 52 50 45 37 33 31 28 19 21 22 18 14 14 16 16 13 12 14
91 90 88 88 87 88 88 89 90 89 85 79 76 76 74 73 72 75 80 80 76 72 71 68 68 66 59 52 50 42 35 33 31 33 26 34 27 22 23 21 21 20 20 18
90 92 92 90 87 85 86 86 85 86 86 82 79 78 78 77 74 71 69 72 75 77 77 75 70 65 60 58 56 54 50 44 38 34 35 41 35 29 31 32 32 28 25 23
92 94 95 94 90 87 86 85 86 84 83 84 81 81 80 80 78 75 73 72 70 70 76 77 76 73 69 61 59 57 59 58 53 51 46 39 31 31 34 34 35 31 26 27
94 97 96 94 92 89 87 86 85 86 85 83 83 82 82 80 79 78 78 77 75 72 68 70 77 78 73 70 69 65 62 59 60 61 48 42 35 37 42 38 36 36 33 31
89 95 97 96 93 93 90 86 85 86 85 86 84 83 84 83 81 81 81 81 81 79 77 72 72 76 78 76 75 73 68 67 65 66 58 53 51 51 53 51 47 45 42 42
80 86 94 96 94 92 91 92 89 86 87 87 85 85 85 84 83 83 87 86 85 85 84 82 79 76 78 81 81 80 76 74 73 69 64 58 61 62 63 60 58 57 51 50
78 80 86 90 93 91 93 93 92 89 88 86 85 88 89 88 87 86 89 91 89 88 86 86 85 84 81 80 82 85 80 76 79 77 74 68 67 67 66 67 63 60 58 57
78 79 80 84 86 89 91 93 94 94 90 88 89 89 90 91 93 92 92 92 92 91 91 91 91 89 88 86 85 83 84 87 81 79 79 77 75 70 70 69 66 62 63 64
82 81 80 78 79 81 85 89 93 93 93 95 94 93 93 94 93 92 91 94 96 97 97 96 95 93 93 91 90 88 86 83 87 92 85 83 83 78 76 73 75 72 66 67
69 81 81 79 76 76 80 84 89 93 95 98 99 97 97 97 95 95 95 94 95 98 101 100 98 96 96 95 95 93 92 91 89 89 96 93 85 83 84 78 80 79 78 71
46 57 71 82 85 81 79 78 81 87 92 96 99 98 99 99 99 99 100 100 100 100 101 103 103 102 100 99 98 96 95 95 95 94 92 92 98 95 90 91 83 80 82 80
25 35 48 61 71 81 86 84 81 79 84 88 93 99 98 101 102 105 106 106 107 107 106 105 106 106 105 103 102 101 100 99 97 98 96 94 92 93 97 98 95 91 87 90
14 21 29 37 49 63 74 82 85 86 85 89 90 93 97 103 104 107 110 111 112 113 113 111 110 109 109 109 107 106 104 104 103 102 101 101 99 97 97 101 105 102 102 99
7 8 13 22 33 40 50 63 76 85 91 94 93 95 98 99 104 108 110 113 117 116 116 116 115 114 113 112 111 111 111 109 108 108 107 105 104 105 103 102 101 108 111 111

GFSCGP_250_spd_093.txt.gz
Wind_Speed
69 68 63 63 63 59 57 53 50 50 47 36 39 39 27 32 28 25 23 21 18 13 7 7 9 9 11 13 16 16 19 21 21 19 21 26 26 29 30 32 35 37 38 36
73 72 71 67 65 63 58 56 54 49 44 41 41 36 35 30 31 32 29 29 21 16 13 10 10 4 7 9 10 13 14 16 20 21 21 22 24 24 28 30 31 31 34 36
78 78 76 71 69 68 63 59 59 53 48 49 44 35 34 34 37 35 32 34 29 29 17 14 12 6 4 4 4 7 11 13 15 18 22 22 22 22 23 28 29 28 28 31
81 82 79 76 72 71 69 64 63 58 58 57 45 41 42 42 39 40 35 35 29 29 21 13 13 12 6 3 2 3 7 11 12 14 18 17 19 19 20 22 27 26 27 27
82 83 81 79 75 75 75 69 66 62 64 61 60 47 47 43 46 45 35 35 31 30 22 17 16 17 11 7 4 0 3 6 10 12 13 15 14 20 20 21 20 23 24 25
85 86 85 83 82 79 78 73 69 69 67 64 63 55 59 53 50 50 45 43 37 32 24 23 24 20 14 11 8 5 2 5 7 10 12 11 12 12 19 20 20 19 20 20
86 86 85 86 86 82 79 76 73 73 75 70 71 65 60 63 56 52 50 47 42 39 33 25 27 21 15 12 13 12 6 4 10 12 10 10 9 12 12 12 16 17 19 18
88 86 85 85 86 87 83 79 74 72 80 84 76 69 66 61 56 52 50 51 48 40 39 34 30 21 16 15 17 18 15 11 11 11 9 10 9 6 7 9 11 13 16 16
89 88 88 87 89 90 87 83 78 78 80 86 83 81 77 71 67 59 51 52 52 49 44 40 37 34 27 25 25 24 20 19 15 12 14 12 10 8 6 5 6 7 9 11
89 91 89 89 90 91 90 88 85 78 78 81 86 84 83 79 71 68 68 63 54 52 49 45 45 45 40 35 36 33 27 24 21 17 18 18 14 13 8 9 3 4 6 6
89 90 91 90 90 91 91 90 86 80 78 78 80 88 88 86 80 77 74 70 67 61 57 52 52 48 46 40 37 37 35 34 29 28 25 20 19 19 16 9 9 5 6 8
91 92 91 92 90 91 90 92 90 85 79 78 77 77 84 90 87 84 81 75 72 69 65 62 57 54 52 49 44 38 43 40 37 38 29 22 25 23 15 11 9 11 10 9
93 93 91 93 91 92 89 90 90 88 84 81 80 77 78 79 86 90 87 81 77 73 70 67 62 59 55 55 52 52 46 44 46 38 35 36 30 26 19 19 18 17 14 15
91 94 93 90 91 89 87 85 88 89 87 84 81 80 80 80 79 79 85 86 82 80 74 68 68 67 63 60 59 56 49 49 49 39 33 30 32 38 31 28 28 25 24 21
89 92 93 90 90 91 91 89 87 87 88 88 85 84 82 82 81 79 78 79 83 85 82 80 77 75 74 72 67 62 60 55 53 46 40 39 43 44 41 34 35 33 32 30
85 88 93 93 91 91 91 89 90 87 86 87 88 86 84 82 83 83 80 79 77 78 81 86 87 83 79 74 72 69 68 67 62 58 53 50 47 41 39 38 39 40 38 35
81 85 93 95 94 92 93 92 89 87 86 86 88 87 87 87 86 86 84 84 82 79 77 76 76 79 82 82 79 74 70 69 65 59 62 63 58 58 53 50 48 45 44 42
77 79 84 89 93 92 91 92 90 88 88 88 87 86 88 87 87 87 88 88 88 87 84 81 78 75 74 77 80 81 76 71 70 70 63 68 66 66 65 57 57 59 53 48
75 76 80 85 87 91 92 93 92 91 90 90 89 89 89 89 88 87 88 89 90 89 88 88 85 82 80 76 76 80 80 81 78 79 75 71 66 70 69 67 62 62 61 58
76 77 76 79 83 87 89 91 93 94 93 93 93 92 90 89 90 90 88 88 89 92 92 91 90 89 85 83 81 78 77 79 80 81 81 77 78 77 75 73 68 69 65 64
75 74 75 77 80 84 87 89 90 90 93 94 94 94 94 94 94 92 90 90 90 91 93 93 93 91 90 89 87 85 83 81 80 84 84 83 84 83 80 77 75 72 71 72
72 72 73 75 76 76 79 84 88 89 91 93 95 96 95 95 96 96 95 93 93 93 94 94 94 93 91 91 91 90 89 87 85 83 84 89 89 86 84 83 79 80 77 74
52 69 73 71 72 73 74 76 79 85 90 93 95 96 97 98 99 98 98 97 97 97 97 98 97 95 94 94 94 95 95 94 93 92 91 89 91 95 92 92 89 90 89 86
25 37 50 65 74 76 74 73 74 76 81 86 93 97 98 98 99 101 102 103 102 102 101 100 101 101 101 100 99 98 98 100 98 97 96 96 96 95 95 98 99 96 98 92
12 20 28 37 47 58 69 75 79 79 79 81 83 88 93 96 99 101 104 106 106 106 106 104 104 105 105 105 105 104 103 103 102 101 102 102 101 101 100 100 99 100 103 104
7 10 15 22 28 36 46 56 66 74 81 85 85 85 88 90 93 98 102 104 106 109 111 110 110 110 110 110 109 109 109 108 107 107 106 105 105 105 105 105 105 103 102 102

GFSCGP_250_spd_096.txt.gz
Wind_Speed
69 68 66 65 63 60 56 54 47 45 44 43 30 21 17 25 26 27 19 16 15 12 6 6 7 9 10 12 16 18 21 21 21 24 25 27 31 31 31 32 36 37 38 38
73 70 72 66 65 65 63 61 56 48 49 45 45 34 27 27 33 27 25 23 19 15 10 10 7 7 5 9 11 14 18 20 22 23 24 25 28 30 30 29 30 34 34 36
77 77 72 71 69 69 67 62 59 54 50 50 52 42 43 32 38 38 34 29 24 20 18 15 11 7 4 4 7 10 14 17 20 21 22 20 24 24 25 26 28 29 31 31
80 79 77 75 73 73 72 66 62 59 53 55 52 49 53 39 25 38 40 36 31 26 28 23 17 9 6 2 3 6 11 15 17 20 19 19 21 20 21 22 24 27 28 30
82 81 79 77 78 77 76 71 65 60 57 58 54 53 58 54 47 41 38 35 37 32 29 22 18 13 10 7 2 4 7 11 13 16 16 15 18 21 23 21 21 20 24 26
82 84 84 82 80 80 76 76 71 68 63 62 62 57 56 53 49 48 40 42 38 37 36 30 23 16 15 12 8 6 3 6 10 13 10 13 13 12 16 19 18 18 20 21
83 86 84 84 83 82 80 77 75 71 70 66 64 61 58 59 50 51 44 43 40 40 35 29 25 20 21 17 13 11 7 2 4 9 12 8 10 8 7 9 15 15 13 16
86 88 84 84 84 83 82 79 77 73 75 73 67 67 63 65 63 56 56 46 52 48 42 32 30 23 25 22 17 13 14 8 2 4 6 9 7 7 7 6 8 11 14 14
88 92 89 87 87 86 86 83 79 78 77 77 75 74 61 66 67 65 59 57 49 52 44 36 34 29 25 24 21 19 17 16 12 9 5 9 9 7 7 4 4 5 7 9
88 92 91 91 90 90 87 87 84 80 78 81 82 81 74 65 68 70 69 64 62 55 49 44 40 36 32 30 23 24 20 21 22 19 15 16 14 11 9 7 4 3 3 5
85 93 95 94 90 90 88 89 84 83 82 84 88 83 83 73 71 72 73 70 63 60 54 47 47 43 42 38 36 36 30 28 27 27 23 22 23 19 13 11 9 7 7 7
81 93 95 94 93 91 90 92 88 86 83 81 94 93 89 86 73 73 72 70 69 60 55 52 54 51 45 43 42 43 31 22 30 31 29 27 24 23 21 15 14 11 11 10
79 86 95 97 95 94 93 92 91 88 87 87 89 99 97 96 92 83 76 64 67 69 63 57 54 54 51 48 48 47 42 44 36 44 38 36 32 28 25 27 21 18 15 16
77 82 89 95 96 97 92 91 92 92 91 89 89 96 95 99 98 96 94 89 70 67 66 70 65 59 53 55 54 54 53 54 48 49 47 43 38 32 31 32 30 26 23 22
75 79 87 93 95 94 94 93 93 94 96 93 94 93 90 94 100 99 98 94 89 78 71 71 72 72 69 64 63 62 61 58 57 51 51 47 44 36 35 36 35 33 31 31
70 78 83 87 93 95 97 95 95 94 94 97 94 93 91 90 93 96 101 98 95 92 89 86 83 81 77 74 72 72 70 67 61 55 54 54 50 40 42 41 39 41 39 39
77 79 81 87 91 96 97 98 96 92 93 94 97 94 94 92 90 93 92 93 97 97 95 90 89 85 81 76 78 74 74 71 70 65 60 61 58 54 49 54 47 44 42 39
78 79 82 85 90 94 99 96 96 94 93 93 92 94 95 95 93 91 93 93 91 91 91 91 90 92 91 83 79 79 78 78 78 74 73 70 67 65 60 57 58 53 50 46
80 77 79 79 87 94 96 97 97 97 94 93 93 94 94 96 96 95 94 94 92 90 89 89 87 85 84 86 85 82 79 79 80 78 79 75 72 72 71 68 66 62 60 58
77 75 77 78 80 87 89 94 97 98 100 98 95 94 94 93 95 95 95 94 95 94 92 92 90 88 86 83 84 89 92 93 93 91 87 84 80 78 72 66 69 69 69 69
72 75 77 76 76 78 85 90 94 97 98 96 98 97 97 97 95 94 94 95 95 97 96 96 94 93 92 90 87 85 84 83 81 78 80 82 84 81 78 75 74 68 70 71
62 74 77 78 77 74 76 84 88 89 93 96 97 99 98 98 97 98 96 95 95 96 97 98 98 98 96 94 93 92 90 88 85 85 81 81 83 86 87 87 82 80 73 73
50 62 72 75 75 75 74 74 79 85 87 91 96 97 99 100 99 98 97 97 98 97 97 98 98 99 99 99 98 97 96 95 94 92 91 89 87 86 86 88 91 92 87 88
30 48 61 69 71 72 71 73 73 76 81 86 89 92 96 98 102 101 100 100 100 99 99 99 98 99 100 101 102 102 102 101 100 100 98 97 96 93 92 89 89 88 92 88
12 23 36 53 65 70 72 72 72 73 76 79 83 88 92 93 95 100 104 105 104 103 103 102 102 102 102 103 103 103 104 104 104 104 104 103 102 100 99 98 96 94 94 94
4 8 16 26 36 49 62 72 75 75 76 79 82 83 85 90 96 99 100 102 104 106 108 108 106 106 107 107 108 107 107 107 107 106 107 107 107 106 105 104 103 103 101 100

GFSCGP_250_spd_099.txt.gz
Wind_Speed
70 68 67 64 61 52 41 37 29 35 39 35 30 27 27 16 13 22 17 15 12 8 5 4 7 10 13 13 16 20 21 21 23 27 27 28 30 32 34 35 35 35 35 36
73 70 71 68 64 57 46 39 29 37 45 40 36 24 26 35 24 23 23 19 15 11 11 8 7 6 7 9 11 16 20 21 21 21 24 25 25 27 29 32 31 33 34 33
75 77 74 70 65 63 58 57 37 23 48 46 45 41 35 33 30 33 31 27 25 18 15 11 11 12 2 4 7 14 18 20 20 21 24 20 20 24 25 27 29 28 29 33
77 79 75 71 72 70 69 70 58 36 57 56 48 42 42 37 41 38 35 33 31 26 20 17 15 17 7 3 3 8 14 17 19 18 22 23 22 20 22 24 26 27 27 26
77 78 78 77 76 77 76 73 65 30 64 68 60 52 43 45 38 33 44 38 37 36 29 23 23 20 10 8 3 7 11 14 15 14 15 15 14 19 22 21 21 23 24 24
80 80 78 82 81 79 79 86 79 46 66 68 67 62 51 49 47 31 31 33 37 41 37 29 22 18 11 11 8 6 8 9 13 14 13 14 14 15 15 16 14 16 20 22
77 77 79 83 84 81 80 88 89 80 67 67 69 66 56 58 52 44 33 39 35 40 36 36 29 25 19 15 16 11 10 6 6 9 11 11 12 12 9 10 14 14 18 19
75 82 83 82 82 84 83 84 85 82 77 72 73 67 64 63 62 61 53 50 43 47 42 39 33 30 27 22 20 14 14 7 5 4 8 10 8 10 9 9 10 13 15 18
75 81 88 86 84 86 86 86 83 84 81 74 75 72 64 65 68 69 68 66 65 53 48 43 36 30 29 23 23 19 16 16 11 5 2 3 6 13 8 8 7 9 13 7
77 81 87 89 89 86 89 88 86 82 83 80 79 77 72 68 70 73 75 68 72 66 51 48 40 31 31 26 27 25 23 19 17 14 11 10 13 15 12 11 9 2 6 9
76 77 84 88 90 88 88 87 87 85 84 83 80 87 76 72 74 75 77 72 65 65 61 51 50 41 37 33 29 32 29 24 19 16 18 18 14 16 17 12 12 8 6 7
77 79 83 87 91 94 93 90 91 90 86 84 90 88 82 82 74 75 77 78 70 64 62 58 53 53 46 36 38 36 26 33 26 23 23 22 23 20 15 15 15 14 14 13
76 77 81 86 93 97 92 89 92 91 91 90 91 98 95 89 75 72 80 77 79 69 66 65 61 54 51 48 42 45 46 41 31 30 24 29 28 26 21 19 19 19 19 17
60 71 78 82 89 94 96 95 95 95 95 92 92 94 100 97 94 74 77 81 78 77 76 67 65 62 57 53 52 48 49 46 42 39 35 35 39 35 31 31 26 22 23 28
64 64 76 84 87 91 96 99 97 96 96 97 98 99 98 99 98 95 83 78 81 80 76 74 69 70 60 57 54 55 54 51 49 46 47 45 42 41 39 37 37 27 29 28
68 64 63 77 84 90 97 99 98 100 102 101 105 96 43 103 104 102 101 92 83 78 83 77 73 71 64 62 56 59 57 57 58 61 53 51 52 50 48 47 42 35 33 33
68 64 59 66 78 87 92 99 99 99 104 105 106 108 101 96 105 107 106 101 97 86 80 78 82 82 76 71 68 66 66 62 62 58 56 56 53 57 56 56 51 49 41 41
62 60 67 71 67 79 94 98 103 106 102 102 105 101 99 96 100 105 111 109 106 99 95 85 82 80 78 76 70 65 68 71 65 66 65 65 62 62 63 62 57 49 46 48
65 75 73 68 65 76 82 92 101 104 103 103 102 102 102 101 104 104 106 113 109 109 106 99 93 87 82 80 80 77 71 76 80 78 80 78 77 73 71 70 67 63 58 52
71 75 86 72 76 85 84 85 96 102 106 102 102 101 101 105 108 104 103 103 110 110 106 106 105 104 103 101 99 95 88 85 84 80 85 81 79 79 77 78 78 75 73 71
64 70 75 77 79 76 77 87 93 99 107 100 103 101 101 103 103 102 107 106 105 107 111 109 105 104 104 104 104 103 101 99 97 95 92 88 88 85 82 79 81 80 80 80
56 63 69 76 84 83 75 82 86 89 97 100 102 103 104 102 104 102 104 106 108 106 107 108 109 106 105 104 104 104 101 99 97 96 94 93 93 95 90 91 87 80 77 78
39 52 61 68 78 82 85 80 80 80 88 96 100 102 102 104 104 104 105 104 106 107 108 109 109 109 108 106 105 103 102 100 99 96 96 94 93 100 100 97 93 93 90 92
22 34 47 57 67 76 79 77 77 76 77 84 95 98 100 102 102 104 104 104 105 106 106 107 109 111 111 110 109 109 107 105 103 101 101 99 99 98 98 100 103 102 97 93
10 18 31 44 57 69 76 75 75 75 75 75 80 89 97 101 103 103 104 105 105 105 106 107 107 107 108 109 111 112 112 110 110 109 107 105 103 103 103 102 102 100 99 95
4 8 17 26 40 52 66 75 77 77 77 77 76 77 84 92 98 102 105 106 106 107 108 109 109 109 110 110 109 109 110 111 113 114 113 112 111 110 108 107 107 106 105 104

GFSCGP_250_spd_102.txt.gz
Wind_Speed
70 68 65 62 59 52 46 37 35 32 42 41 34 31 29 24 23 19 13 15 10 6 1 4 9 11 15 16 17 17 21 23 25 28 30 32 32 35 36 39 40 38 36 30
73 69 68 67 63 53 43 46 38 33 46 33 41 34 26 30 25 23 18 19 10 10 7 4 4 9 10 13 13 16 19 22 23 25 25 29 32 33 36 36 37 38 37 33
75 75 74 70 67 59 50 41 47 47 38 45 47 39 35 33 31 28 21 19 21 14 15 8 5 5 6 8 11 14 18 20 23 26 29 30 30 29 31 30 39 37 34 36
76 79 76 73 70 68 68 48 48 52 41 45 49 46 38 37 37 30 25 22 29 20 22 20 10 9 7 1 5 9 13 16 17 16 21 22 25 23 29 24 24 32 32 34
77 80 77 74 73 73 68 59 55 44 44 32 46 49 45 42 36 37 30 35 27 28 25 29 19 12 9 3 2 7 10 13 15 15 15 21 20 23 19 21 20 26 34 33
78 80 80 78 75 75 72 66 58 52 33 45 44 52 54 45 44 44 41 35 35 32 33 32 27 23 10 7 6 5 7 12 12 15 15 18 20 20 17 12 17 20 22 32
78 80 80 79 77 79 78 74 72 54 51 23 50 54 60 48 47 42 39 32 31 37 36 28 24 27 14 12 6 8 8 5 9 14 14 14 16 15 11 13 13 19 15 13
76 80 78 78 82 82 83 83 79 66 50 29 48 57 67 49 45 43 38 41 30 30 40 25 26 22 23 22 15 12 14 9 7 9 11 12 13 15 11 10 10 10 13 12
73 80 86 87 87 88 89 92 93 76 64 48 50 62 71 58 51 56 44 43 33 32 39 30 26 28 27 24 24 20 18 16 12 7 1 5 9 13 11 10 9 7 13 2
75 74 81 88 90 90 91 101 97 90 79 64 60 66 75 65 57 62 60 53 46 42 43 33 30 33 29 28 17 20 23 24 21 13 5 5 8 10 10 11 8 9 4 7
73 72 77 85 89 90 94 97 101 98 91 77 67 70 82 74 60 56 65 62 57 55 48 39 28 27 34 32 33 38 32 29 23 19 15 10 9 11 10 9 8 9 7 2
78 76 82 76 84 92 95 98 100 103 101 97 69 73 75 78 77 61 62 70 70 68 64 54 49 29 52 43 36 36 35 37 31 24 20 16 14 12 20 10 6 8 11 14
76 74 73 74 79 90 94 97 100 103 109 106 100 85 71 69 77 86 68 68 73 76 72 70 66 72 69 62 55 42 38 36 38 34 28 26 20 25 26 20 17 13 12 15
74 78 77 77 84 86 94 98 101 102 109 109 105 103 85 80 90 86 87 74 76 79 78 75 76 75 69 59 56 53 54 45 42 37 37 38 30 29 24 25 24 25 24 18
74 78 84 88 81 86 86 95 97 101 102 108 113 112 100 99 87 82 91 81 75 77 77 78 73 68 68 68 64 59 56 47 48 46 43 43 39 39 36 34 32 31 32 30
73 77 78 76 80 81 81 88 95 101 103 107 106 103 98 89 76 99 81 87 80 76 79 82 79 79 68 66 66 65 59 54 53 54 54 53 49 47 45 42 42 37 38 35
69 70 69 72 81 80 82 88 97 101 99 103 112 105 99 90 84 72 103 93 80 78 77 80 85 84 79 73 71 69 65 65 59 58 62 61 54 57 52 48 47 47 46 44
68 66 63 65 67 75 79 82 87 94 99 113 110 102 94 95 98 96 75 101 98 86 82 83 84 84 85 85 83 77 67 63 64 64 66 68 67 65 60 57 57 53 54 53
68 61 62 62 61 60 77 84 89 95 101 107 102 99 96 99 102 105 102 62 105 104 94 87 84 87 87 88 86 82 81 80 76 70 69 67 72 71 71 67 62 59 57 57
68 68 68 68 66 63 62 74 83 88 91 96 94 106 104 107 111 100 105 108 89 106 112 103 98 93 88 89 91 89 87 90 85 76 74 76 70 71 71 69 67 64 66 69
64 69 69 68 70 70 71 69 70 82 86 85 101 110 108 109 113 111 98 103 103 101 113 115 112 106 104 100 95 90 92 93 93 92 87 84 82 81 75 76 75 76 77 79
55 66 75 77 82 80 84 78 72 77 84 90 96 103 109 112 114 112 115 113 111 106 91 118 119 119 115 110 108 106 103 99 97 95 94 94 90 88 89 89 83 84 85 86
46 60 74 81 76 74 84 80 87 81 86 88 97 100 106 111 114 111 110 113 115 114 117 117 109 119 123 119 120 119 116 110 106 103 101 100 99 96 92 93 92 88 87 80
34 48 64 78 80 82 78 74 82 89 88 86 91 93 100 106 109 110 111 111 111 115 117 116 116 116 116 121 124 126 126 124 121 116 110 108 107 105 104 108 107 106 107 108
15 28 43 59 72 84 87 86 86 86 86 85 78 82 91 97 103 108 110 113 113 112 113 115 118 119 119 119 121 121 123 127 126 124 122 121 119 117 116 116 116 115 111 109
3 9 19 31 45 58 69 81 89 88 91 83 78 74 77 87 90 98 107 111 114 114 113 113 114 115 115 117 119 121 121 123 124 125 126 125 123 120 118 116 114 113 116 112

GFSCGP_250_spd_105.txt.gz
Wind_Speed
74 71 67 66 63 60 58 53 52 44 42 31 35 35 28 23 23 16 13 7 3 3 1 6 7 11 16 18 22 22 24 24 27 33 33 35 35 42 44 42 45 38 35 32
73 72 72 72 68 64 60 58 52 48 48 35 44 41 33 27 26 26 22 13 9 6 4 4 5 6 12 14 18 19 22 27 29 31 30 33 32 34 41 42 46 46 36 33
76 78 78 77 71 68 65 59 54 49 44 33 30 32 32 33 29 27 22 20 12 11 3 2 5 5 6 8 13 15 14 17 21 24 26 29 33 26 33 36 42 47 42 38
79 81 80 77 77 73 69 64 59 51 50 41 44 35 34 41 32 30 26 23 15 15 12 6 9 6 2 3 7 10 13 14 15 22 24 25 23 23 26 26 32 39 40 44
82 83 82 80 78 76 73 72 60 57 51 31 29 37 33 39 37 33 30 25 20 18 17 15 13 13 5 4 3 7 7 11 16 19 19 21 21 17 19 22 21 29 34 38
81 85 84 82 81 78 75 70 65 62 57 46 51 44 47 44 46 43 37 32 31 24 19 19 15 14 14 5 5 6 6 4 13 17 18 17 17 18 16 19 23 17 23 28
76 79 82 83 84 80 78 76 71 69 60 48 52 46 45 52 52 46 41 37 28 32 24 22 18 12 9 7 6 8 9 5 10 16 17 15 17 16 15 14 16 15 17 22
77 82 82 83 81 80 81 78 67 75 63 48 54 44 42 46 51 48 44 37 37 30 26 27 22 14 9 10 13 10 11 8 8 4 6 9 12 13 14 13 10 11 7 6
77 82 90 88 88 88 83 82 83 81 63 51 46 53 47 53 54 51 47 43 37 32 34 28 23 25 17 21 18 12 17 16 13 8 2 4 7 11 10 10 10 11 5 2
78 77 79 84 88 90 91 91 82 75 71 57 36 44 61 53 56 57 48 44 38 39 38 25 26 20 22 31 21 23 20 25 20 15 9 8 7 8 8 7 7 7 4 6
75 72 77 82 84 88 93 95 97 80 80 73 52 55 50 60 64 62 52 46 42 41 42 29 22 26 24 38 33 31 23 26 24 21 13 13 9 11 6 6 3 4 4 1
70 71 72 77 84 89 93 93 99 97 84 81 73 65 47 55 68 68 53 49 47 46 45 38 35 33 27 38 34 28 23 20 26 20 17 16 15 14 13 10 10 6 7 7
73 77 72 76 82 87 93 95 95 100 101 92 91 70 61 61 64 67 60 57 57 51 46 41 37 33 37 35 45 34 41 29 25 26 25 23 25 23 16 20 21 19 16 12
71 77 78 79 80 85 92 97 97 104 105 101 96 89 71 67 60 71 63 60 65 56 55 47 48 36 30 25 29 39 43 38 33 31 33 37 35 34 31 23 27 25 23 20
74 77 83 84 82 87 91 96 101 103 103 106 104 96 80 62 64 74 67 63 59 55 58 59 59 54 32 32 31 57 58 54 53 45 50 47 41 43 43 38 34 32 29 29
73 81 82 79 81 80 83 94 101 103 103 110 109 102 93 75 64 70 78 73 67 61 65 64 59 61 50 74 65 53 55 61 64 58 52 55 52 49 50 47 43 41 40 39
69 72 78 83 81 82 88 89 98 102 104 108 110 112 100 88 71 71 73 80 75 71 64 65 66 66 73 80 83 85 83 81 74 74 68 60 59 53 52 52 51 47 46 45
72 70 75 79 85 88 83 87 90 96 102 103 104 98 100 100 89 79 78 83 83 82 73 82 83 79 77 80 81 80 79 77 72 66 65 63 60 58 58 59 60 60 53 52
60 74 71 77 82 86 88 86 85 86 89 98 98 99 100 99 103 91 87 79 83 86 88 87 87 87 85 89 88 83 78 81 77 78 71 68 67 67 66 66 65 67 67 56
49 66 72 72 78 80 83 86 85 83 86 87 92 85 84 74 102 103 103 101 101 94 96 92 93 95 97 102 95 90 94 88 81 87 87 83 78 77 74 74 72 73 71 72
47 56 69 70 72 75 79 80 83 86 86 84 85 85 62 58 63 101 111 108 99 107 99 92 99 103 102 92 92 87 88 89 92 87 81 80 78 81 80 76 75 77 79 77
42 47 63 65 64 67 73 78 84 85 85 85 84 83 79 77 58 64 92 121 117 111 106 105 92 111 108 101 101 100 96 96 95 97 95 92 94 91 91 88 90 90 87 85
33 47 61 64 61 64 67 74 75 76 76 81 85 91 74 94 99 97 95 102 122 119 113 113 119 107 106 107 110 109 106 108 104 105 99 99 99 96 97 98 95 88 89 89
18 32 53 66 65 70 75 79 78 77 75 81 80 89 95 86 96 91 93 91 102 116 117 118 119 121 121 114 110 113 119 117 112 110 110 107 108 105 106 103 102 100 99 99
20 32 42 61 71 74 75 79 79 80 80 79 82 79 84 98 106 111 105 101 102 108 118 119 120 115 117 119 120 114 114 124 120 121 124 120 116 111 114 115 113 108 104 102
7 14 32 50 64 76 79 81 82 84 85 83 85 83 83 85 91 104 112 112 118 117 112 111 119 122 124 123 118 120 128 128 127 127 127 128 130 128 125 122 122 121 121 117

GFSCGP_250_spd_108.txt.gz
Wind_Speed
55 58 65 71 69 64 62 61 57 52 35 32 29 33 30 23 19 14 11 7 7 6 8 7 9 12 15 18 21 23 25 29 32 36 39 42 46 45 41 35 35 34 31 24
64 61 71 75 72 68 66 67 67 61 49 45 39 33 31 37 32 20 17 10 8 9 7 7 9 10 11 14 14 16 18 21 26 27 28 31 35 43 49 38 38 37 38 38
68 74 77 79 77 74 75 73 69 63 57 48 40 43 35 32 29 23 24 19 13 12 9 8 7 8 6 8 11 14 16 17 20 20 21 25 29 30 35 41 41 40 41 43
77 80 80 82 81 81 78 74 70 65 60 44 45 38 30 36 36 31 25 24 19 16 15 9 2 7 6 4 4 9 13 12 15 16 17 21 26 26 26 31 36 40 38 43
87 84 86 87 87 84 79 77 74 69 67 58 49 44 40 40 37 33 28 28 23 19 17 14 6 5 1 4 1 3 6 9 11 14 16 18 19 24 25 26 28 35 37 38
85 86 82 87 88 87 83 80 78 73 73 66 51 41 38 47 44 33 32 30 30 24 20 16 10 9 2 1 3 3 2 7 12 13 15 14 18 18 17 21 23 22 27 34
86 84 87 88 87 86 83 82 79 77 74 69 59 53 50 51 49 35 30 34 33 26 24 20 17 11 6 6 6 8 7 7 10 10 15 15 14 13 13 14 14 14 14 20
85 86 88 88 88 89 86 86 83 79 71 62 56 48 57 49 46 43 34 39 37 29 28 25 22 15 12 12 12 9 13 8 5 4 6 9 12 12 11 11 10 9 8 11
87 88 88 90 91 91 89 89 87 81 75 72 65 59 53 51 50 46 43 41 46 36 30 33 29 19 16 14 16 18 13 12 12 8 3 1 6 7 8 9 6 5 8 12
83 85 85 88 91 91 90 92 88 86 79 76 62 60 57 56 58 56 47 47 47 43 34 33 29 22 25 25 23 21 18 13 15 16 14 8 6 3 5 5 5 4 8 8
77 78 81 86 89 86 88 86 89 87 83 75 59 64 62 59 59 57 52 47 48 46 45 38 34 29 28 24 23 26 23 16 16 22 22 17 13 8 4 4 3 3 5 7
73 76 79 81 88 89 91 91 93 90 88 80 70 67 66 60 58 55 52 52 51 50 44 40 33 35 30 22 18 27 22 15 19 20 23 26 19 18 14 7 8 6 5 10
73 77 79 83 87 89 93 92 93 96 95 85 77 67 66 63 62 58 55 51 52 50 44 36 38 41 30 26 27 35 39 30 19 18 22 24 25 25 21 17 18 19 19 15
71 79 81 83 85 85 90 94 97 97 95 95 90 67 69 60 65 56 66 58 54 54 50 39 43 41 48 42 34 35 43 37 29 32 30 29 32 29 26 25 26 27 27 25
66 80 82 80 79 86 90 96 97 95 99 92 97 76 66 58 54 69 54 60 60 57 52 49 48 51 48 42 38 38 40 39 39 43 41 39 39 34 31 32 33 35 36 36
63 76 81 81 79 85 89 91 96 99 102 100 99 84 66 55 45 55 70 63 63 61 58 53 41 47 53 42 39 40 44 47 49 46 52 55 49 49 43 43 40 40 47 47
59 69 79 83 85 84 85 93 97 100 101 108 101 100 80 75 66 54 62 68 70 71 67 59 63 55 46 50 47 29 37 33 34 48 56 56 54 52 52 48 49 51 54 56
61 62 70 78 87 89 85 90 94 95 100 107 104 100 96 85 75 66 66 67 74 74 65 55 61 67 62 52 56 58 55 61 61 55 58 66 65 65 63 63 64 57 59 60
57 59 63 74 82 85 87 87 94 92 97 104 108 104 101 97 94 82 79 78 81 78 76 59 62 62 63 63 67 70 58 60 62 69 73 71 73 73 71 76 72 67 64 62
57 59 61 63 75 78 83 86 88 92 95 101 104 107 107 106 103 101 91 86 85 89 83 80 71 71 72 72 76 78 87 87 84 82 74 80 87 93 89 85 79 73 68 64
51 63 65 69 65 74 76 84 85 89 93 98 100 103 102 102 106 104 104 99 97 90 94 88 83 80 79 81 79 82 85 82 85 84 82 79 85 89 84 79 79 78 73 77
32 56 63 71 73 69 73 74 85 86 88 94 97 99 101 99 104 100 97 103 107 103 96 95 97 95 91 90 91 87 92 96 99 97 96 92 83 89 91 93 99 98 98 93
19 32 45 69 73 72 66 70 74 84 91 91 90 93 95 98 91 94 101 106 103 111 116 108 104 104 104 104 101 99 100 100 104 106 105 107 106 107 106 106 99 97 102 92
11 23 42 56 65 67 69 71 71 75 79 84 91 88 87 91 88 81 85 93 104 105 103 120 120 115 113 113 110 109 107 105 107 107 108 106 108 107 104 105 104 103 96 96
5 18 33 40 48 60 70 73 73 76 76 76 82 89 88 87 86 85 87 83 88 99 104 105 112 114 124 122 119 119 114 113 113 113 113 111 113 114 115 112 106 107 103 104
7 12 25 40 44 51 65 70 73 72 73 78 80 82 86 91 92 91 93 94 90 93 97 94 100 114 109 114 128 129 126 125 126 128 123 124 122 121 121 121 114 110 110 115

GFSCGP_250_spd_111.txt.gz
Wind_Speed
49 50 50 61 66 64 61 57 52 40 35 29 25 33 28 22 12 11 5 6 4 1 7 11 10 14 17 19 20 25 29 28 33 34 41 41 38 41 44 42 33 33 30 29
53 59 62 63 68 67 67 63 60 52 37 37 31 36 34 31 16 19 8 8 8 7 5 10 8 11 14 17 17 18 22 23 27 31 31 35 40 43 42 45 44 40 38 34
54 66 63 62 70 72 74 71 73 63 46 43 42 34 32 36 30 25 25 18 11 9 9 9 7 7 8 12 14 16 15 18 21 28 29 28 31 35 41 44 44 41 42 39
63 62 69 65 71 78 80 77 76 70 61 44 45 42 43 38 33 28 25 22 19 14 12 10 7 7 7 6 9 11 10 13 18 21 24 27 28 28 32 38 41 38 38 42
59 68 78 74 71 82 85 83 80 78 67 56 52 40 44 41 36 33 31 19 23 21 18 13 7 6 5 3 4 7 10 12 15 16 17 16 19 23 23 25 29 34 35 38
59 66 76 82 78 78 86 86 82 81 76 71 60 58 44 44 40 37 29 27 26 24 24 18 12 6 6 4 4 4 9 14 15 14 16 15 14 15 17 17 20 25 30 31
53 70 80 84 86 83 88 89 87 83 82 75 66 64 52 47 44 36 31 31 30 28 26 23 19 10 6 7 7 8 11 14 13 13 13 14 13 11 13 17 19 19 20 24
50 63 83 92 93 90 90 94 93 87 84 78 70 65 59 52 44 36 37 34 32 30 32 28 23 16 13 10 12 13 12 10 9 7 7 11 11 9 9 12 15 16 16 19
41 53 73 93 95 93 91 96 95 92 86 80 76 64 61 56 55 51 43 44 37 36 37 29 29 19 19 13 15 14 15 12 10 7 4 2 7 6 6 10 11 12 9 14
34 44 62 88 95 95 93 99 98 96 90 83 77 74 66 59 59 53 57 49 40 36 40 34 37 28 22 21 17 17 16 15 15 14 11 8 4 3 2 4 8 11 10 10
33 42 57 82 93 93 91 95 97 96 92 88 82 79 71 65 58 55 58 54 49 43 38 42 33 32 29 26 25 22 19 22 20 15 16 17 12 9 7 3 2 5 7 9
32 42 56 77 89 89 94 99 100 98 96 90 87 83 77 67 67 63 60 57 51 49 42 41 43 35 32 30 26 27 24 25 22 14 13 17 18 15 13 12 10 6 1 6
30 44 56 78 87 91 93 94 96 95 94 89 86 81 72 70 69 68 60 60 56 51 46 47 44 43 38 35 32 28 27 29 22 18 18 19 13 15 22 21 18 15 12 9
31 47 61 77 84 86 86 88 93 93 93 90 84 78 69 70 62 66 69 67 59 52 48 47 47 50 44 39 38 32 30 35 33 22 19 22 18 26 31 30 31 27 20 17
38 47 61 75 83 84 85 88 93 93 92 90 86 81 72 66 72 61 65 68 60 56 52 51 51 51 45 42 39 39 33 34 34 31 35 35 30 36 40 38 36 33 29 26
40 42 59 74 83 83 83 87 89 94 91 92 90 85 82 70 65 69 63 64 68 57 57 53 53 53 46 47 41 43 50 48 44 38 41 42 41 45 45 44 43 42 37 34
41 47 54 69 81 83 82 83 87 91 95 94 92 94 91 77 67 69 60 66 58 61 62 60 58 54 51 52 46 47 48 44 40 41 42 48 50 48 56 56 54 53 48 44
45 49 50 66 77 84 82 83 87 91 97 97 95 97 97 80 79 64 60 70 68 68 63 68 62 58 60 56 55 53 51 43 36 42 47 50 58 63 66 60 59 61 60 56
47 50 53 58 73 78 81 83 86 94 94 95 97 96 99 92 71 71 66 64 72 68 74 73 75 71 65 54 51 49 52 50 46 48 49 49 55 54 58 64 65 63 62 62
46 46 51 48 59 72 78 83 86 89 94 95 98 99 100 92 93 83 70 69 68 74 73 73 76 79 76 66 63 53 49 56 61 27 45 62 60 57 61 61 64 69 72 72
40 47 48 53 51 61 72 82 81 83 88 92 98 100 100 99 94 92 90 73 76 71 75 75 76 82 78 76 73 72 69 62 60 63 60 51 51 62 65 71 72 76 82 79
38 49 50 53 57 55 65 76 82 83 86 91 94 100 103 105 100 98 99 92 85 77 76 82 76 84 90 87 84 83 74 76 72 76 68 80 75 79 76 77 81 82 83 82
27 40 54 56 57 61 61 69 76 83 85 89 91 96 101 104 105 103 100 104 96 92 84 86 83 80 87 90 89 88 88 81 86 90 89 91 92 89 84 83 89 91 90 92
17 19 36 51 57 60 63 64 68 76 85 87 89 90 93 100 104 107 101 109 107 108 106 99 96 92 90 90 90 93 98 94 92 95 96 100 102 103 102 105 103 105 103 96
10 12 16 27 40 55 62 65 66 68 75 80 87 91 91 94 97 104 102 100 109 117 113 108 106 105 105 98 97 97 97 100 103 105 107 104 106 113 114 115 114 109 110 111
16 10 9 15 28 40 48 59 64 68 65 76 79 82 89 90 91 94 98 95 97 97 109 115 118 118 115 113 113 113 110 108 110 110 111 112 114 113 114 118 119 119 117 114

GFSCGP_250_spd_117.txt.gz
Wind_Speed
37 37 37 36 43 51 57 56 51 47 47 41 32 29 27 23 16 18 13 11 6 8 11 11 12 12 22 27 28 30 34 38 42 44 40 37 26 29 30 28 28 25 21 21
41 41 41 43 42 50 59 62 58 54 54 43 39 33 31 27 21 22 19 16 10 9 10 10 11 9 14 21 25 24 26 31 37 41 41 40 36 31 30 30 30 30 23 22
39 41 45 47 49 51 59 66 64 60 60 50 44 41 37 30 25 21 18 16 10 12 13 15 9 11 10 15 17 21 22 26 28 32 36 38 39 35 32 25 24 24 25 25
33 38 40 45 52 56 59 68 71 67 65 59 51 44 44 44 44 30 26 18 12 13 13 14 10 8 8 10 10 11 14 17 20 26 26 26 31 36 36 37 31 27 27 29
40 42 46 51 54 57 64 67 75 75 71 62 59 50 47 48 45 37 36 23 15 18 19 14 14 9 7 7 9 7 7 11 18 18 24 24 26 28 32 35 36 34 33 32
43 43 44 49 56 62 66 73 78 82 76 70 62 54 56 51 49 40 41 25 26 23 23 19 16 10 9 7 8 8 7 10 12 16 20 22 20 22 27 29 32 36 34 31
41 42 46 50 54 60 73 78 77 86 83 77 66 63 64 51 52 48 46 37 35 27 28 24 19 12 11 10 9 11 11 11 13 17 18 18 18 20 19 23 26 27 29 30
47 45 44 48 49 52 67 77 83 88 88 81 75 70 71 61 59 50 44 39 33 30 31 30 25 18 16 12 13 17 13 12 12 13 16 16 17 16 17 19 21 25 24 25
51 45 43 43 47 43 55 77 84 84 92 85 81 78 79 68 62 53 54 50 42 38 35 32 30 26 21 15 15 17 16 13 10 8 10 12 15 13 16 15 16 20 20 20
49 46 42 41 35 35 55 75 78 83 97 93 87 83 78 71 63 58 57 57 52 48 41 36 35 33 30 21 19 20 19 18 15 11 8 6 6 8 9 14 14 13 14 16
42 43 40 41 34 28 55 75 81 86 96 96 95 87 79 76 69 66 63 58 54 54 50 43 40 37 34 29 24 22 27 20 19 17 14 12 8 5 7 9 10 11 9 11
41 41 42 40 36 28 46 71 85 86 94 100 99 95 82 79 75 71 60 62 60 55 52 47 43 42 39 33 28 26 26 28 24 22 17 14 9 10 7 12 11 12 10 7
40 41 42 39 40 35 31 66 85 92 96 101 102 100 97 83 81 80 63 60 61 60 54 49 46 45 39 38 35 32 29 28 29 24 22 17 16 14 15 15 17 14 13 10
43 41 41 42 45 43 33 53 78 95 96 102 103 104 102 95 88 85 74 71 60 58 55 51 48 45 43 40 40 39 34 32 33 31 26 25 24 24 23 22 21 21 18 15
40 43 44 47 48 43 35 44 72 93 98 98 104 106 104 99 91 87 80 69 72 65 61 59 61 52 48 47 46 41 44 39 35 37 32 29 29 33 28 23 23 24 24 21
42 44 50 51 43 39 37 41 62 86 101 100 101 107 103 101 99 89 85 71 75 68 62 62 59 58 54 49 53 48 45 42 41 41 40 35 33 38 36 30 30 26 27 31
46 53 55 43 34 34 37 44 57 77 94 105 102 104 103 101 102 95 91 77 79 73 72 65 58 57 57 53 52 55 54 50 49 43 44 42 37 37 43 38 36 34 33 35
49 55 48 29 25 33 40 46 57 70 86 102 105 103 101 93 88 99 95 87 79 77 75 71 68 64 70 63 57 57 56 53 52 49 50 47 44 43 41 47 44 40 41 43
50 53 33 17 26 38 42 43 50 62 80 97 104 100 98 95 71 87 92 93 91 81 82 76 68 68 64 64 67 62 60 55 55 54 56 55 51 49 48 50 50 50 50 48
47 43 23 12 26 35 38 43 49 57 69 88 103 100 96 94 87 81 86 92 91 87 78 83 85 76 71 67 68 65 64 64 60 58 58 58 48 56 56 55 55 53 52 55
44 37 16 14 27 35 37 44 50 55 61 78 94 99 92 78 78 71 79 93 94 98 77 81 89 84 80 73 72 70 69 67 63 60 58 61 61 62 62 63 60 60 58 58
41 36 17 13 28 35 35 40 47 56 63 70 85 92 80 81 71 77 75 82 94 95 95 78 86 87 85 78 77 76 75 73 71 69 66 68 66 68 66 62 60 60 59 70
34 36 21 9 27 35 36 39 45 54 59 67 80 77 65 75 78 81 82 80 79 89 96 76 78 90 86 80 79 79 80 78 74 73 70 69 67 69 66 60 66 68 71 65
28 32 20 11 16 31 38 34 38 47 56 61 71 83 76 68 69 77 82 82 79 74 81 85 72 72 84 79 77 75 74 79 79 78 76 76 74 69 60 49 55 64 69 73
24 29 24 13 9 23 35 41 39 41 52 59 68 76 79 81 76 71 69 83 83 82 79 82 84 82 79 80 84 85 82 79 78 79 80 81 83 84 74 69 71 70 78 80
19 24 26 12 7 6 25 41 47 43 44 52 63 72 79 82 83 83 80 77 81 89 85 82 85 86 84 81 81 79 82 87 82 82 84 83 84 83 89 92 94 86 85 87

GFSCGP_250_spd_120.txt.gz
Wind_Speed
33 35 34 33 36 45 54 56 52 48 45 42 38 33 28 26 19 16 14 11 9 7 7 5 11 14 20 28 33 35 37 39 38 37 26 25 25 28 23 18 19 23 23 23
32 32 35 37 38 42 50 58 58 54 53 45 45 41 36 33 28 21 19 16 9 10 10 8 10 11 12 19 26 29 31 37 38 38 32 24 22 25 26 27 20 22 23 24
37 36 36 40 43 44 46 53 60 59 57 54 49 47 42 36 32 25 24 21 15 12 14 13 10 13 10 11 17 24 26 24 26 28 34 33 25 21 24 29 24 21 24 27
38 38 39 41 43 46 49 50 57 64 63 59 55 51 51 41 39 29 29 26 20 15 15 14 10 11 10 8 9 11 20 21 21 25 26 30 33 29 26 29 26 24 28 29
32 32 32 34 36 41 48 54 54 63 68 66 62 56 55 48 46 37 35 28 25 22 18 16 13 11 9 9 8 6 11 17 20 21 22 27 32 38 30 31 29 27 31 41
29 33 38 40 42 44 46 52 57 59 68 70 66 62 60 55 51 41 37 34 31 26 23 19 16 14 13 10 11 11 12 13 19 19 14 18 22 24 31 32 30 29 33 34
36 39 41 41 45 47 50 54 56 66 65 76 71 68 64 61 56 47 46 40 35 31 26 25 20 13 14 13 12 14 14 13 15 15 13 13 15 20 23 28 31 29 28 28
38 40 42 40 40 42 44 52 60 66 74 71 77 78 68 66 64 58 56 48 42 34 30 31 25 21 18 17 15 15 19 18 17 16 17 17 16 17 19 20 23 24 23 20
44 42 43 43 42 40 42 47 55 68 72 74 81 84 76 68 65 64 63 57 48 41 37 35 31 29 22 20 19 19 18 21 19 17 16 16 16 16 17 18 15 18 21 19
42 41 42 43 42 39 42 44 46 54 72 78 81 88 81 75 68 67 65 63 55 46 43 37 38 35 29 23 23 25 21 20 18 18 16 13 13 15 16 17 16 13 14 13
38 40 39 38 37 37 38 38 41 43 63 80 86 90 87 82 75 71 69 63 60 52 52 43 42 42 35 28 25 26 27 23 22 19 18 13 9 8 13 14 14 14 13 11
36 38 37 38 38 37 37 38 34 36 59 81 86 85 92 85 80 79 73 70 61 55 51 47 44 42 40 38 31 29 29 29 27 23 20 17 14 13 11 16 14 13 13 13
38 40 38 35 37 38 36 37 36 29 45 73 93 92 92 93 90 84 80 71 69 60 57 55 48 47 43 43 40 34 31 30 31 28 24 21 19 12 10 14 20 19 17 14
39 40 38 38 38 37 38 39 41 33 37 71 90 95 96 95 91 89 83 78 71 68 70 63 57 53 47 45 43 39 37 33 33 33 31 26 23 20 19 21 21 23 24 21
37 37 38 40 39 40 43 43 46 44 36 60 93 94 94 101 98 96 90 84 79 71 76 67 63 58 54 52 47 44 41 39 36 35 33 30 26 26 24 28 26 25 29 27
35 38 40 41 43 46 48 51 56 49 40 58 88 97 95 101 100 99 93 87 81 75 71 69 65 58 59 56 52 48 46 45 42 38 34 33 36 32 31 29 32 29 31 31
38 38 41 43 48 52 53 57 52 46 44 63 88 94 96 100 106 99 96 93 84 74 69 70 64 62 61 56 54 53 47 50 49 48 44 38 37 39 37 37 36 36 34 35
36 39 41 47 51 53 43 41 45 43 47 65 86 95 96 100 104 101 99 93 88 78 73 73 70 64 61 52 52 58 56 52 54 52 48 48 42 43 44 42 40 40 44 47
34 38 42 49 49 36 30 33 40 44 48 61 81 93 97 100 105 105 95 93 89 84 73 74 73 74 65 60 58 65 61 58 60 58 54 51 48 49 50 51 49 49 41 49
35 38 44 48 34 25 26 32 38 44 49 60 76 91 96 99 99 102 103 99 97 96 93 81 80 77 73 68 70 70 65 62 64 61 63 61 57 56 50 55 53 57 52 55
32 35 40 42 25 18 21 32 36 36 40 58 71 83 93 96 91 92 92 107 105 101 98 91 84 85 77 76 73 74 68 62 68 66 62 62 64 63 61 63 61 60 60 61
29 33 36 36 20 18 23 29 30 31 37 52 68 75 83 76 97 85 93 99 106 108 106 97 92 83 79 80 76 74 73 78 75 76 76 70 69 68 66 64 62 57 56 61
28 29 32 31 19 18 25 28 31 32 30 43 62 72 78 77 90 93 87 96 95 101 110 104 100 86 84 83 80 79 84 76 81 82 80 76 78 79 74 72 67 64 65 63
24 24 26 29 18 15 26 31 30 32 34 41 54 59 72 72 78 86 81 90 96 96 104 109 103 92 83 85 85 82 80 85 83 81 79 79 82 80 76 74 73 71 72 76
22 21 22 25 21 13 23 31 33 30 33 36 41 61 60 67 67 79 87 91 89 89 94 100 104 102 82 81 82 84 83 73 77 89 90 84 81 80 80 79 80 81 80 79
19 19 18 19 21 14 11 31 36 34 33 36 39 48 58 71 65 71 79 86 87 88 86 84 90 92 97 97 84 84 81 83 80 76 79 85 86 83 84 84 84 84 85 84

GFSCGP_250_spd_123.txt.gz
Wind_Speed
29 32 34 32 32 39 47 52 51 48 46 43 39 35 27 27 21 19 15 12 10 6 1 6 11 15 19 27 31 36 35 34 26 24 26 24 16 12 14 16 18 18 23 23
30 31 34 38 37 34 39 49 53 53 50 51 44 39 32 32 28 22 22 17 14 11 8 3 8 11 14 20 23 27 28 30 31 25 23 20 23 18 15 15 21 22 24 25
35 33 35 36 39 39 36 40 50 56 55 53 53 44 42 35 35 28 27 21 16 16 13 9 9 10 11 13 15 19 23 28 31 29 26 25 23 23 19 19 16 19 22 23
37 37 37 39 38 40 43 41 41 52 58 57 55 49 49 43 38 33 31 27 20 17 17 12 10 11 11 9 11 12 17 26 29 33 32 30 29 28 23 20 19 20 21 27
35 39 39 39 40 42 43 47 47 44 53 61 60 53 53 49 43 38 37 33 28 22 20 18 14 11 11 11 9 8 10 16 24 26 29 29 29 29 26 21 21 27 29 34
33 33 34 36 38 40 41 45 50 53 48 53 64 60 58 53 49 46 42 38 33 27 24 22 18 15 11 12 11 11 8 13 15 17 20 24 27 29 29 23 27 32 36 39
22 23 26 29 32 37 38 42 46 49 55 56 57 66 66 62 57 52 47 43 38 33 28 25 21 17 14 12 13 15 13 12 12 12 14 19 26 27 28 30 32 35 35 33
28 31 33 36 39 42 46 48 51 53 54 59 57 65 70 63 64 60 55 49 41 36 33 28 23 21 17 15 14 17 18 16 14 12 12 17 20 24 27 25 25 28 28 23
32 27 32 32 35 37 42 48 52 55 58 57 62 64 70 73 71 63 62 52 50 42 39 36 31 27 21 17 17 18 18 19 18 17 16 16 17 18 22 21 20 20 19 15
37 35 33 34 34 37 40 42 46 49 53 57 62 69 62 71 72 71 69 61 51 48 43 40 33 32 28 20 21 22 22 21 21 21 19 18 17 17 17 16 18 19 18 17
38 37 32 36 32 34 38 37 36 38 43 49 59 67 66 75 79 76 74 69 61 57 48 47 39 38 33 27 24 26 26 23 19 21 20 20 20 19 18 18 16 16 15 12
35 39 37 39 37 40 38 39 40 40 44 46 48 63 74 78 81 84 79 76 68 65 56 55 46 43 40 35 29 29 30 29 25 21 18 17 16 18 20 18 16 14 13 13
34 37 38 39 39 41 39 43 42 42 45 43 44 55 67 80 81 86 85 79 73 68 65 60 51 47 46 42 37 30 33 32 29 28 24 21 19 15 15 17 17 18 17 17
37 38 39 41 42 38 43 42 43 46 43 42 37 51 59 81 87 90 89 84 79 76 72 64 54 49 51 48 43 39 33 34 35 33 30 27 24 18 14 14 16 21 20 20
36 37 36 36 39 36 39 40 42 46 38 39 35 42 47 75 87 87 91 87 81 78 77 68 63 57 55 52 50 46 41 37 37 36 34 33 29 25 23 22 22 21 25 23
32 32 35 38 40 38 39 41 42 54 49 43 42 44 37 69 83 93 95 91 85 82 78 70 58 67 60 56 51 50 46 46 44 39 37 36 36 33 30 28 27 27 28 28
33 33 38 43 38 37 40 48 50 53 51 50 49 54 40 65 81 93 90 94 88 83 80 74 72 71 69 59 53 53 49 49 48 47 46 41 38 40 39 35 34 33 31 34
33 37 39 42 38 40 43 49 52 55 58 52 61 45 49 55 84 85 94 97 81 68 79 79 72 69 67 64 61 57 54 52 52 50 48 47 43 41 42 42 41 40 37 38
36 40 41 40 41 44 39 49 52 47 48 63 60 64 63 74 76 94 91 95 95 80 83 81 78 79 67 67 68 62 62 59 57 52 53 52 54 52 48 46 44 43 46 44
36 38 40 40 41 44 44 36 21 30 34 46 56 64 63 67 78 81 89 98 97 87 86 85 83 80 72 74 68 66 64 62 59 58 54 59 57 60 58 56 52 50 48 48
38 40 39 37 41 44 40 28 30 30 22 27 47 57 58 66 75 78 91 94 99 94 91 86 93 79 82 79 72 71 67 67 60 60 61 68 67 63 62 63 61 58 56 55
37 38 35 35 39 43 35 19 16 23 28 33 41 48 57 66 74 80 84 94 100 91 97 96 97 93 84 80 77 74 69 67 65 62 68 70 74 72 68 67 68 65 61 58
37 35 34 32 35 36 29 18 14 21 27 34 33 42 52 67 70 80 79 87 99 100 97 100 95 97 87 75 83 81 76 78 67 68 65 73 73 70 73 72 74 75 73 71
34 32 32 30 32 33 26 16 17 19 21 25 31 38 56 65 73 81 77 83 97 89 96 100 98 98 99 92 74 82 86 82 81 80 76 74 72 79 79 77 78 75 74 74
31 29 29 26 28 30 26 18 19 22 21 21 28 42 52 62 74 80 82 83 90 86 93 92 102 101 99 92 78 87 85 84 80 86 91 94 90 89 86 78 83 85 81 83
28 28 27 24 23 10 26 18 18 26 28 23 25 34 47 58 70 79 87 91 93 92 87 86 94 104 106 101 89 73 89 90 87 86 85 88 85 85 87 90 90 91 91 91